[[{"header":{"parameterUnit":"m.s-1","parameterCategory":1,"la1":31.0,"la2":29.5877,"lo1":-88.7671,"lo2":-86.6584,"dy":0.0162,"dx":0.0185,"nx":115,"ny":88,"refTime":"2024-08-10T06:00:00:Z","depth":0,"parameterNumber":2,"parameterNumberName":"U-component_of_WINDS"},"data":[0.0,0.0,0.0,0.0,0.0,0.0,0.0,0.0,0.0,0.0,0.0,0.0,0.0,0.0,0.0,0.0,0.0,0.0,0.0,0.0,0.0,0.0,0.0,0.0,0.0,0.0,0.0,0.0,0.0,0.0,0.0,0.0,0.0,0.0,0.0,0.0,0.0,0.0,0.0,0.0,0.0,0.0,0.0,0.0,0.0,0.0,0.0,0.0,0.0,0.0,0.0,0.0,0.0,0.0,0.0,0.0,0.0,0.0,0.0,0.0,0.0,0.0,0.0,0.0,0.0,0.0,0.0,0.0,0.0,0.0,0.0,0.0,0.0,0.0,0.0,0.0,0.0,0.0,0.0,0.0,0.0,0.0,0.0,0.0,0.0,0.0,0.0,0.0,0.0,0.0,0.0,0.0,0.0,0.0,0.0,0.0,0.0,0.0,0.0,0.0,0.0,0.0,0.0,0.0,0.0,0.0,0.0,0.0,0.0,0.0,0.0,0.0,0.0,0.0,0.0,0.0,0.0,0.0,0.0,0.0,0.0,0.0,0.0,0.0,0.0,0.0,0.0,0.0,0.0,0.0,0.0,0.0,0.0,0.0,0.0,0.0,0.0,0.0,0.0,0.0,0.0,0.0,0.0,0.0,0.0,0.0,0.0,0.0,0.0,0.0,0.0,0.0,0.0,0.0,0.0,0.0,0.0,0.0,0.0,0.0,0.0,0.0,0.0,0.0,0.0,0.0,0.0,0.0,0.0,0.0,0.0,0.0,0.0,0.0,0.0,0.0,0.0,0.0,0.0,0.0,0.0,0.0,0.0,0.0,0.0,0.0,0.0,0.0,0.0,0.0,0.0,0.0,0.0,0.0,0.0,0.0,0.0,0.0,0.0,0.0,0.0,0.0,0.0,0.0,0.0,0.0,0.0,0.0,0.0,0.0,0.0,0.0,0.0,0.0,0.0,0.0,0.0,0.0,0.0,0.0,0.0,0.0,0.0,0.0,0.0,0.0,0.0,0.0,0.0,0.0,0.0,0.0,0.0,0.0,0.0,0.0,0.0,0.0,0.0,0.0,0.0,0.0,0.0,0.0,0.0,0.0,0.0,0.0,0.0,0.0,0.0,0.0,0.0,0.0,0.0,0.0,0.0,0.0,0.0,0.0,0.0,0.0,0.0,0.0,0.0,0.0,0.0,0.0,0.0,0.0,0.0,0.0,0.0,0.0,0.0,0.0,0.0,0.0,0.0,0.0,0.0,0.0,0.0,0.0,0.0,0.0,0.0,0.0,0.0,0.0,0.0,0.0,0.0,0.0,0.0,0.0,0.0,0.0,0.0,0.0,0.0,0.0,0.0,0.0,0.0,0.0,0.0,0.0,0.0,0.0,0.0,0.0,0.0,0.0,0.0,0.0,0.0,0.0,0.0,0.0,0.0,0.0,0.0,0.0,0.0,0.0,0.0,0.0,0.0,0.0,0.0,0.0,0.0,0.0,0.0,0.0,0.0,0.0,0.0,0.0,0.0,0.0,0.0,0.0,0.0,0.0,0.0,0.0,0.0,0.0,0.0,0.0,0.0,0.0,0.0,0.0,0.0,0.0,0.0,0.0,0.0,0.0,0.0,0.0,0.0,0.0,0.0,0.0,0.0,0.0,0.0,0.0,0.0,0.0,0.0,0.0,0.0,0.0,0.0,0.0,0.0,0.0,0.0,0.0,0.0,0.0,0.0,0.0,0.0,0.0,0.0,0.0,0.0,0.0,0.0,0.0,0.0,0.0,0.0,0.0,0.0,0.0,0.0,0.0,0.0,0.0,0.0,0.0,0.0,0.0,0.0,0.0,0.0,0.0,0.0,0.0,0.0,0.0,0.0,0.0,0.0,0.0,0.0,0.0,0.0,0.0,0.0,0.0,0.0,0.0,0.0,0.0,0.0,0.0,0.0,0.0,0.0,0.0,0.0,0.0,0.0,0.0,0.0,0.0,0.0,0.0,0.0,0.0,0.0,0.0,0.0,0.0,0.0,0.0,0.0,0.0,0.0,0.0,0.0,0.0,0.0,0.0,0.0,0.0,0.0,0.0,0.0,0.0,0.0,0.0,0.0,0.0,0.0,0.0,0.0,0.0,0.0,0.0,0.0,0.0,0.0,0.0,0.0,0.0,0.0,0.0,0.0,0.0,0.0,0.0,0.0,0.0,0.0,0.0,0.0,0.0,0.0,0.0,0.0,0.0,0.0,0.0,0.0,0.0,0.0,0.0,0.0,0.0,0.0,0.0,0.0,0.0,0.0,0.0,0.0,0.0,0.0,0.0,0.0,0.0,0.0,0.0,0.0,0.0,0.0,0.0,0.0,0.0,0.0,0.0,0.0,0.0,0.0,0.0,0.0,0.0,0.0,0.0,0.0,0.0,0.0,0.0,0.0,0.0,0.0,0.0,0.0,0.0,0.0,0.0,0.0,0.0,0.0,0.0,0.0,0.0,0.0,0.0,0.0,0.0,0.0,0.0,0.0,0.0,0.0,0.0,0.0,0.0,0.0,0.0,0.0,0.0,0.0,0.0,0.0,0.0,0.0,0.0,0.0,0.0,0.0,0.0,0.0,0.0,0.0,0.0,0.0,0.0,0.0,0.0,0.0,0.0,0.0,0.0,0.0,0.0,0.0,0.0,0.0,0.0,0.0,0.0,0.0,0.0,0.0,0.0,0.0,0.0,0.0,0.0,0.0,0.0,0.0,0.0,0.0,0.0,0.0,0.0,0.0,0.0,0.0,0.0,0.0,0.0,0.0,0.0,0.0,0.0,0.0,0.0,0.0,0.0,0.0,0.0,0.0,0.0,0.0,0.0,0.0,0.0,0.0,0.0,0.0,0.0,0.0,0.0,0.0,0.0,0.0,0.0,0.0,0.0,0.0,0.0,0.0,0.0,0.0,0.0,0.0,0.0,0.0,0.0,0.0,0.0,0.0,0.0,0.0,0.0,0.0,0.0,0.0,0.0,0.0,0.0,0.0,0.0,0.0,0.0,0.0,0.0,0.0,0.0,0.0,0.0,0.0,0.0,0.0,0.0,0.0,0.0,0.0,0.0,0.0,0.0,0.0,0.0,0.0,0.0,0.0,0.0,0.0,0.0,0.0,0.0,0.0,0.0,0.0,0.0,0.0,0.0,0.0,0.0,0.0,0.0,0.0,0.0,0.0,0.0,0.0,0.0,0.0,0.0,0.0,0.0,0.0,0.0,0.0,0.0,0.0,0.0,0.0,0.0,0.0,0.0,0.0,0.0,0.0,0.0,0.0,0.0,0.0,0.0,0.0,0.0,0.0,0.0,0.0,0.0,0.0,0.0,0.0,0.0,0.0,0.0,0.0,0.0,0.0,0.0,0.0,0.0,0.0,0.0,0.0,0.0,0.0,0.0,0.0,0.0,0.0,0.0,0.0,0.0,0.0,0.0,0.0,0.0,0.0,0.0,0.0,0.0,0.0,0.0,0.0,0.0,0.0,0.0,0.0,0.0,0.0,0.0,0.0,0.0,0.0,0.0,0.0,0.0,0.0,0.0,0.0,0.0,0.0,0.0,0.0,0.0,0.0,0.0,0.0,0.0,0.0,0.0,0.0,0.0,0.0,0.0,0.0,0.0,0.0,0.0,0.0,0.0,0.0,0.0,0.0,0.0,0.0,0.0,0.0,0.0,0.0,0.0,0.0,0.0,0.0,0.0,0.0,0.0,0.0,0.0,0.0,0.0,0.0,0.0,0.0,0.0,0.0,0.0,0.0,0.0,0.0,0.0,0.0,0.0,0.0,0.0,0.0,0.0,0.0,0.0,0.0,0.0,0.0,0.0,0.0,0.0,0.0,0.0,0.0,0.0,0.0,0.0,0.0,0.0,0.0,0.0,0.0,0.0,0.0,0.0,0.0,0.0,0.0,0.0,0.0,0.0,0.0,0.0,0.0,0.0,0.0,0.0,0.0,0.0,0.0,0.0,0.0,0.0,0.0,0.0,0.0,0.0,0.0,0.0,0.0,0.0,0.0,0.0,0.0,0.0,0.0,0.0,0.0,0.0,0.0,0.0,0.0,0.0,0.0,0.0,0.0,0.0,0.0,0.0,0.0,0.0,0.0,0.0,0.0,0.0,0.0,0.0,0.0,0.0,0.0,0.0,0.0,0.0,0.0,0.0,0.0,0.0,0.0,0.0,0.0,0.0,0.0,0.0,0.0,0.0,0.0,0.0,0.0,0.0,0.0,0.0,0.0,0.0,0.0,0.0,0.0,0.0,0.0,0.0,0.0,0.0,0.0,0.0,-0.2807,0.0,0.0,0.0,0.0,0.0,0.0,0.0,0.0,0.0,0.0,0.0,0.0,0.0,0.0,0.0,0.0,0.0,0.0,0.0,0.0,0.0,0.0,0.0,0.0,0.0,0.0,0.0,0.0,0.0,0.0,0.0,0.0,0.0,0.0,0.0,0.0,0.0,0.0,0.0,0.0,0.0,0.0,0.0,0.0,0.0,0.0,0.0,0.0,0.0,0.0,0.0,0.0,0.0,0.0,0.0,0.0,0.0,0.0,0.0,0.0,0.0,0.0,0.0,0.0,0.0,0.0,0.0,0.0,0.0,0.0,0.0,0.0,0.0,0.0,0.0,0.0,0.0,0.0,0.0,0.0,0.0,0.0,0.0,0.0,0.0,0.0,0.0,0.0,0.0,0.0,0.0,0.0,0.0,0.0,0.0,0.0,0.0,0.0,0.0,0.0,0.0,0.0,0.0,0.0,0.0,0.0,0.0,0.0,0.0,0.0,-0.2724,-0.2742,-0.2779,-0.2807,-0.2807,0.0,0.0,0.0,0.0,0.0,0.0,0.0,0.0,0.0,0.0,0.0,0.0,0.0,0.0,0.0,0.0,0.0,0.0,0.0,0.0,0.0,0.0,0.0,0.0,0.0,0.0,0.0,0.0,0.0,0.0,0.0,0.0,0.0,0.0,0.0,0.0,0.0,0.0,0.0,0.0,0.0,0.0,0.0,0.0,0.0,0.0,0.0,0.0,0.0,0.0,0.0,0.0,0.0,0.0,0.0,0.0,0.0,0.0,0.0,0.0,0.0,0.0,0.0,0.0,0.0,0.0,0.0,0.0,0.0,0.0,0.0,0.0,0.0,0.0,0.0,0.0,0.0,0.0,0.0,0.0,0.0,0.0,0.0,0.0,0.0,0.0,0.0,0.0,0.0,0.0,0.0,0.0,0.0,0.0,0.0,0.0,0.0,0.0,0.0,0.0,0.0,0.0,0.0,0.0,0.0,0.0,0.0,0.0,0.0,0.0,0.0,0.0,-0.2897,-0.2854,-0.2779,0.0,0.0,0.0,0.0,0.0,0.0,0.0,0.0,0.0,0.0,0.0,0.0,0.0,0.0,0.0,0.0,0.0,0.0,0.0,0.0,0.0,0.0,0.0,0.0,0.0,0.0,0.0,0.0,0.0,0.0,0.0,0.0,0.0,0.0,0.0,0.0,0.0,0.0,0.0,0.0,0.0,0.0,0.0,0.0,0.0,0.0,0.0,0.0,0.0,0.0,0.0,0.0,0.0,0.0,0.0,0.0,0.0,0.0,0.0,0.0,0.0,0.0,0.0,0.0,0.0,0.0,0.0,0.0,0.0,0.0,0.0,0.0,0.0,0.0,0.0,0.0,0.0,0.0,0.0,0.0,0.0,0.0,0.0,0.0,0.0,0.0,0.0,0.0,0.0,0.0,0.0,0.0,0.0,0.0,0.0,0.0,0.0,0.0,0.0,0.0,0.0,0.0,0.0,0.0,0.0,0.0,0.0,0.0,0.0,0.0,-0.32,-0.3328,-0.3284,0.0,-0.2745,0.0,0.0,0.0,0.0,0.0,0.0,0.0,0.0,0.0,0.0,0.0,0.0,0.0,0.0,0.0,0.0,0.0,0.0,0.0,0.0,0.0,0.0,0.0,0.0,0.0,0.0,0.0,0.0,0.0,0.0,0.0,0.0,0.0,0.0,0.0,0.0,0.0,0.0,0.0,0.0,0.0,0.0,0.0,0.0,0.0,0.0,0.0,0.0,0.0,0.0,0.0,0.0,0.0,0.0,0.0,0.0,0.0,0.0,0.0,0.0,0.0,0.0,0.0,0.0,0.0,0.0,0.0,0.0,0.0,0.0,0.0,0.0,0.0,0.0,0.0,0.0,0.0,0.0,0.0,0.0,0.0,0.0,0.0,0.0,0.0,0.0,0.0,0.0,0.0,0.0,0.0,0.0,0.0,0.0,0.0,0.0,0.0,0.0,0.0,0.0,0.0,0.0,0.0,0.0,0.0,0.0,0.0,0.0,0.0,0.0,0.0,-0.3681,-0.3712,-0.3513,0.0,0.0,0.0,0.0,0.0,0.0,0.0,0.0,0.0,0.0,0.0,0.0,0.0,0.0,0.0,0.0,0.0,0.0,0.0,0.0,0.0,0.0,0.0,0.0,0.0,0.0,0.0,0.0,0.0,0.0,0.0,0.0,0.0,0.0,0.0,0.0,0.0,0.0,0.0,0.0,0.0,0.0,0.0,0.0,0.0,0.0,0.0,0.0,0.0,0.0,0.0,0.0,0.0,0.0,0.0,0.0,0.0,0.0,0.0,0.0,0.0,0.0,0.0,0.0,0.0,0.0,0.0,0.0,0.0,0.0,0.0,0.0,0.0,0.0,0.0,0.0,0.0,0.0,0.0,0.0,0.0,0.0,0.0,0.0,0.0,0.0,0.0,0.0,0.0,0.0,0.0,0.0,0.0,0.0,0.0,0.0,0.0,0.0,0.0,0.0,0.0,0.0,0.0,0.0,0.0,0.0,0.0,0.0,0.0,0.0,-0.3369,0.0,-0.4048,-0.4134,-0.3921,-0.34,0.0,0.0,0.0,0.0,0.0,0.0,0.0,0.0,0.0,0.0,0.0,0.0,0.0,0.0,0.0,0.0,0.0,0.0,0.0,0.0,0.0,0.0,0.0,0.0,0.0,0.0,0.0,0.0,0.0,0.0,0.0,0.0,0.0,0.0,0.0,0.0,0.0,0.0,0.0,0.0,0.0,0.0,0.0,0.0,0.0,0.0,0.0,0.0,0.0,0.0,0.0,0.0,0.0,0.0,0.0,0.0,0.0,0.0,0.0,0.0,0.0,0.0,0.0,0.0,0.0,0.0,0.0,0.0,0.0,0.0,0.0,0.0,0.0,0.0,0.0,0.0,0.0,0.0,0.0,0.0,0.0,0.0,0.0,0.0,0.0,0.0,0.0,0.0,0.0,0.0,0.0,0.0,0.0,0.0,0.0,0.0,0.0,0.0,0.0,0.0,0.0,0.0,0.0,0.0,0.0,0.0,0.0,0.0,0.0,-0.388,-0.4395,-0.4482,-0.4557,-0.4169,0.0,0.0,0.0,0.0,0.0,0.0,0.0,0.0,0.0,0.0,0.0,0.0,0.0,0.0,0.0,0.0,0.0,0.0,0.0,0.0,0.0,0.0,0.0,0.0,0.0,0.0,0.0,0.0,0.0,0.0,0.0,0.0,0.0,0.0,0.0,0.0,0.0,0.0,0.0,0.0,0.0,0.0,0.0,0.0,0.0,0.0,0.0,0.0,0.0,0.0,0.0,0.0,0.0,0.0,0.0,0.0,0.0,0.0,0.0,0.0,0.0,0.0,0.0,0.0,0.0,0.0,0.0,0.0,0.0,0.0,0.0,0.0,0.0,0.0,0.0,0.0,0.0,0.0,0.0,0.0,0.0,0.0,0.0,0.0,0.0,0.0,0.0,0.0,0.0,0.0,0.0,0.0,0.0,0.0,0.0,0.0,0.0,0.0,0.0,0.0,0.0,0.0,0.0,0.0,0.0,0.0,0.0,0.0,0.0,-0.3753,-0.4471,-0.4876,-0.494,-0.4968,-0.4726,0.0,0.0,0.0,0.0,0.0,0.0,0.0,0.0,0.0,0.0,0.0,0.0,0.0,0.0,0.0,0.0,0.0,0.0,0.0,0.0,0.0,0.0,0.0,0.0,0.0,0.0,0.0,0.0,0.0,0.0,0.0,0.0,0.0,0.0,0.0,0.0,0.0,0.0,0.0,0.0,0.0,0.0,0.0,0.0,0.0,0.0,0.0,0.0,0.0,0.0,0.0,0.0,0.0,0.0,0.0,0.0,0.0,0.0,0.0,0.0,0.0,0.0,0.0,0.0,0.0,0.0,0.0,0.0,0.0,0.0,0.0,0.0,0.0,0.0,0.0,0.0,0.0,0.0,0.0,0.0,0.0,0.0,0.0,0.0,0.0,0.0,0.0,0.0,0.0,0.0,0.0,0.0,0.0,0.0,0.0,0.0,0.0,0.0,0.0,0.0,0.0,0.0,0.0,0.0,0.0,0.0,0.0,0.0,0.0,-0.4356,0.0,-0.5078,0.0,-0.5137,-0.4923,0.0,0.0,0.0,0.0,0.0,0.0,0.0,0.0,0.0,0.0,0.0,0.0,0.0,0.0,0.0,0.0,0.0,0.0,0.0,0.0,0.0,0.0,0.0,0.0,0.0,0.0,0.0,0.0,0.0,0.0,0.0,0.0,0.0,0.0,0.0,0.0,0.0,0.0,0.0,0.0,0.0,0.0,0.0,0.0,0.0,0.0,0.0,0.0,0.0,0.0,0.0,0.0,0.0,0.0,0.0,0.0,0.0,0.0,0.0,0.0,0.0,0.0,0.0,0.0,0.0,0.0,0.0,0.0,0.0,0.0,0.0,0.0,0.0,0.0,0.0,0.0,0.0,0.0,0.0,0.0,0.0,0.0,0.0,0.0,0.0,0.0,0.0,0.0,0.0,0.0,0.0,0.0,0.0,0.0,0.0,0.0,0.0,0.0,0.0,0.0,0.0,0.0,0.0,0.0,0.0,0.0,0.0,0.0,-0.3876,-0.4756,-0.4882,-0.497,-0.5019,-0.5038,-0.481,0.0,0.0,0.0,0.0,0.0,0.0,0.0,0.0,0.0,0.0,0.0,0.0,0.0,0.0,0.0,0.0,0.0,0.0,0.0,0.0,0.0,0.0,0.0,0.0,0.0,0.0,0.0,0.0,0.0,0.0,0.0,0.0,0.0,0.0,0.0,0.0,0.0,0.0,0.0,0.0,0.0,0.0,0.0,0.0,0.0,0.0,0.0,0.0,0.0,0.0,0.0,0.0,0.0,0.0,0.0,0.0,0.0,0.0,0.0,0.0,0.0,0.0,0.0,0.0,0.0,0.0,0.0,0.0,0.0,0.0,0.0,0.0,0.0,0.0,0.0,0.0,0.0,0.0,0.0,0.0,0.0,0.0,0.0,0.0,0.0,0.0,0.0,0.0,0.0,0.0,0.0,0.0,0.0,0.0,0.0,0.0,0.0,0.0,0.0,0.0,0.0,0.0,0.0,0.0,0.0,0.0,0.0,0.0,0.0,-0.5205,-0.5236,-0.53,-0.5416,-0.5416,-0.5187,0.0,0.0,0.0,0.0,0.0,0.0,0.0,0.0,0.0,0.0,0.0,0.0,0.0,0.0,0.0,0.0,0.0,0.0,0.0,0.0,0.0,0.0,0.0,0.0,0.0,0.0,0.0,0.0,0.0,0.0,0.0,0.0,0.0,0.0,0.0,0.0,0.0,0.0,0.0,0.0,0.0,0.0,0.0,0.0,0.0,0.0,0.0,0.0,0.0,0.0,0.0,0.0,0.0,0.0,0.0,0.0,0.0,0.0,0.0,0.0,0.0,0.0,0.0,0.0,0.0,0.0,0.0,0.0,0.0,0.0,0.0,0.0,0.0,0.0,0.0,0.0,0.0,0.0,0.0,0.0,0.0,0.0,0.0,0.0,0.0,0.0,0.0,0.0,0.0,0.0,0.0,0.0,0.0,0.0,0.0,0.0,0.0,0.0,0.0,0.0,0.0,0.0,0.0,0.0,0.0,0.0,0.0,0.0,0.0,-0.5657,-0.5613,-0.5588,-0.5671,-0.5524,-0.53,-0.5022,0.0,0.0,0.0,0.0,0.0,0.0,0.0,0.0,0.0,0.0,0.0,0.0,0.0,0.0,0.0,0.0,0.0,0.0,0.0,0.0,0.0,0.0,0.0,0.0,0.0,0.0,0.0,0.0,0.0,0.0,0.0,0.0,0.0,0.0,0.0,0.0,0.0,0.0,0.0,0.0,0.0,0.0,0.0,0.0,0.0,0.0,0.0,0.0,0.0,0.0,0.0,0.0,0.0,0.0,0.0,0.0,0.0,0.0,0.0,0.0,0.0,0.0,0.0,0.0,0.0,0.0,0.0,0.0,0.0,0.0,0.0,0.0,0.0,0.0,0.0,0.0,0.0,0.0,0.0,0.0,0.0,0.0,0.0,0.0,0.0,0.0,0.0,0.0,0.0,0.0,0.0,0.0,0.0,0.0,0.0,0.0,0.0,0.0,0.0,0.0,0.0,0.0,0.0,0.0,0.0,0.0,0.0,0.0,-0.6188,-0.5987,-0.5856,-0.582,-0.5468,-0.5239,0.0,0.0,0.0,0.0,0.0,0.0,0.0,0.0,0.0,0.0,0.0,0.0,0.0,0.0,0.0,0.0,0.0,0.0,0.0,0.0,0.0,0.0,0.0,0.0,0.0,0.0,0.0,0.0,0.0,0.0,0.0,0.0,0.0,0.0,0.0,0.0,0.0,0.0,0.0,0.0,0.0,0.0,0.0,0.0,0.0,0.0,0.0,0.0,0.0,0.0,0.0,0.0,0.0,0.0,0.0,0.0,0.0,0.0,0.0,0.0,0.0,0.0,0.0,0.0,0.0,0.0,0.0,0.0,0.0,0.0,0.0,0.0,0.0,0.0,0.0,0.0,0.0,0.0,0.0,0.0,0.0,0.0,0.0,0.0,0.0,0.0,0.0,0.0,0.0,0.0,0.0,0.0,0.0,0.0,0.0,0.0,0.0,0.0,0.0,0.0,0.0,0.0,0.0,0.0,0.0,0.0,0.0,0.0,0.0,-0.6245,-0.6554,-0.6538,-0.6269,-0.6092,-0.5727,0.0,0.0,0.0,0.0,0.0,0.0,0.0,0.0,0.0,0.0,0.0,0.0,0.0,0.0,0.0,0.0,0.0,0.0,0.0,0.0,0.0,0.0,0.0,0.0,0.0,0.0,0.0,0.0,0.0,0.0,0.0,0.0,0.0,0.0,0.0,0.0,0.0,0.0,0.0,0.0,0.0,0.0,0.0,0.0,0.0,0.0,0.0,0.0,0.0,0.0,0.0,0.0,0.0,0.0,0.0,0.0,0.0,0.0,0.0,0.0,0.0,0.0,0.0,0.0,0.0,0.0,0.0,0.0,0.0,0.0,0.0,0.0,0.0,0.0,0.0,0.0,0.0,0.0,0.0,0.0,0.0,0.0,0.0,0.0,0.0,0.0,0.0,0.0,0.0,0.0,0.0,0.0,0.0,0.0,0.0,0.0,0.0,0.0,0.0,0.0,0.0,0.0,0.0,0.0,0.0,0.0,0.0,0.0,-0.6066,-0.6498,-0.6915,-0.7065,-0.6918,-0.6542,-0.6033,0.0,0.0,0.0,0.0,0.0,0.0,0.0,0.0,0.0,0.0,0.0,0.0,0.0,0.0,0.0,0.0,0.0,0.0,0.0,0.0,0.0,0.0,0.0,0.0,0.0,0.0,0.0,0.0,0.0,0.0,0.0,0.0,0.0,0.0,0.0,0.0,0.0,0.0,0.0,0.0,0.0,0.0,0.0,0.0,0.0,0.0,0.0,0.0,0.0,0.0,0.0,0.0,0.0,0.0,0.0,0.0,0.0,0.0,0.0,0.0,0.0,0.0,0.0,0.0,0.0,0.0,0.0,0.0,0.0,0.0,0.0,0.0,0.0,0.0,0.0,0.0,0.0,0.0,0.0,0.0,0.0,0.0,0.0,0.0,0.0,0.0,0.0,0.0,0.0,0.0,0.0,0.0,0.0,0.0,0.0,0.0,0.0,0.0,0.0,0.0,0.0,0.0,0.0,0.0,0.0,0.0,0.0,0.0,-0.6241,-0.6844,-0.7158,-0.7424,-0.7564,-0.6893,-0.6206,0.0,0.0,0.0,0.0,0.0,0.0,0.0,0.0,0.0,0.0,0.0,0.0,0.0,0.0,0.0,0.0,0.0,0.0,0.0,0.0,0.0,0.0,0.0,0.0,0.0,0.0,0.0,0.0,0.0,0.0,0.0,0.0,0.0,0.0,0.0,0.0,0.0,0.0,0.0,0.0,0.0,0.0,0.0,0.0,0.0,0.0,0.0,0.0,0.0,0.0,0.0,0.0,0.0,0.0,0.0,0.0,0.0,0.0,0.0,0.0,0.0,0.0,0.0,0.0,0.0,0.0,0.0,0.0,0.0,0.0,0.0,0.0,0.0,0.0,0.0,0.0,0.0,0.0,0.0,0.0,0.0,0.0,0.0,0.0,0.0,0.0,0.0,0.0,0.0,0.0,0.0,0.0,0.0,0.0,0.0,0.0,0.0,0.0,0.0,0.0,0.0,0.0,0.0,0.0,0.0,0.0,0.0,0.0,-0.6604,-0.7266,-0.7403,-0.7471,-0.7509,-0.6993,-0.6554,0.0,0.0,0.0,0.0,0.0,0.0,0.0,0.0,0.0,0.0,0.0,0.0,0.0,0.0,0.0,0.0,0.0,0.0,0.0,0.0,0.0,0.0,0.0,0.0,0.0,0.0,0.0,0.0,0.0,0.0,0.0,0.0,0.0,0.0,0.0,0.0,0.0,0.0,0.0,0.0,0.0,0.0,0.0,0.0,0.0,0.0,0.0,0.0,-0.3153,0.0,0.0,0.0,0.0,0.0,0.0,0.0,0.0,0.0,0.0,0.0,0.0,0.0,0.0,0.0,0.0,0.0,0.0,0.0,0.0,0.0,0.0,0.0,0.0,0.0,0.0,0.0,0.0,0.0,0.0,0.0,0.0,0.0,0.0,0.0,0.0,0.0,0.0,0.0,0.0,0.0,0.0,0.0,0.0,0.0,0.0,0.0,0.0,0.0,0.0,0.0,0.0,0.0,0.0,0.0,0.0,0.0,0.0,0.0,-0.6825,-0.7401,-0.7574,-0.7696,-0.7706,-0.7157,-0.6641,0.0,0.0,0.0,0.0,0.0,0.0,0.0,0.0,0.0,0.0,0.0,0.0,0.0,0.0,0.0,0.0,0.0,0.0,0.0,0.0,0.0,0.0,0.0,0.0,0.0,0.0,0.0,0.0,0.0,0.0,0.0,0.0,0.0,0.0,0.0,0.0,0.0,0.0,0.0,0.0,0.0,0.0,0.0,0.0,0.0,0.0,0.0,0.0,0.0,0.0,0.0,0.0,0.0,0.0,0.0,0.0,0.0,0.0,0.0,0.0,0.0,0.0,0.0,0.0,0.0,0.0,0.0,0.0,0.0,0.0,0.0,0.0,0.0,0.0,0.0,0.0,0.0,0.0,0.0,0.0,0.0,0.0,0.0,0.0,0.0,0.0,0.0,0.0,0.0,0.0,0.0,0.0,0.0,0.0,0.0,0.0,0.0,0.0,0.0,0.0,0.0,0.0,0.0,0.0,0.0,0.0,0.0,-0.6341,-0.6921,-0.7444,-0.7728,-0.7912,-0.7931,-0.7258,-0.6615,-0.6133,0.0,0.0,0.0,0.0,0.0,0.0,0.0,0.0,0.0,0.0,0.0,0.0,0.0,0.0,0.0,0.0,0.0,0.0,0.0,0.0,0.0,0.0,0.0,0.0,0.0,0.0,0.0,0.0,0.0,0.0,0.0,0.0,0.0,0.0,0.0,0.0,0.0,0.0,-0.3513,-0.398,0.0,0.0,0.0,0.0,0.0,0.0,0.0,0.0,-0.4011,0.0,0.0,0.0,0.0,0.0,0.0,0.0,0.0,0.0,0.0,0.0,0.0,0.0,0.0,0.0,0.0,0.0,0.0,0.0,0.0,0.0,0.0,0.0,0.0,0.0,0.0,0.0,0.0,0.0,0.0,0.0,0.0,0.0,0.0,0.0,0.0,0.0,0.0,0.0,0.0,0.0,0.0,0.0,0.0,0.0,0.0,0.0,0.0,0.0,0.0,0.0,0.0,0.0,0.0,0.0,0.0,-0.6015,-0.6407,-0.6948,-0.7616,-0.7682,-0.7753,-0.7731,-0.7075,-0.6695,-0.6541,0.0,0.0,0.0,0.0,0.0,0.0,0.0,0.0,0.0,0.0,0.0,0.0,0.0,0.0,0.0,0.0,0.0,0.0,0.0,0.0,0.0,0.0,0.0,0.0,0.0,0.0,0.0,0.0,0.0,0.0,0.0,0.0,0.0,0.0,0.0,0.0,0.0,0.0,0.0,-0.4074,-0.4235,0.0,0.0,0.0,0.0,0.0,0.0,0.0,0.0,-0.3949,0.0,0.0,0.0,0.0,0.0,0.0,0.0,0.0,0.0,0.0,0.0,0.0,0.0,0.0,0.0,0.0,0.0,0.0,0.0,0.0,0.0,0.0,0.0,0.0,0.0,0.0,0.0,0.0,0.0,0.0,0.0,0.0,0.0,0.0,0.0,0.0,0.0,0.0,0.0,0.0,0.0,0.0,0.0,0.0,0.0,0.0,0.0,0.0,0.0,0.0,0.0,0.0,0.0,0.0,0.0,-0.6251,-0.655,-0.6977,-0.7648,-0.767,-0.767,-0.7663,-0.7044,-0.6702,0.0,0.0,0.0,0.0,0.0,0.0,0.0,0.0,0.0,0.0,0.0,0.0,0.0,0.0,0.0,0.0,0.0,0.0,0.0,0.0,0.0,0.0,0.0,0.0,0.0,0.0,0.0,0.0,0.0,0.0,0.0,0.0,0.0,0.0,0.0,0.0,0.0,0.0,0.0,0.0,-0.4348,-0.4631,-0.486,0.0,0.0,0.0,0.0,0.0,0.0,-0.4365,-0.412,0.0,0.0,0.0,0.0,0.0,0.0,0.0,0.0,0.0,0.0,0.0,0.0,0.0,0.0,0.0,0.0,0.0,0.0,0.0,0.0,0.0,0.0,0.0,0.0,0.0,0.0,0.0,0.0,0.0,0.0,0.0,0.0,0.0,0.0,0.0,0.0,0.0,0.0,0.0,0.0,0.0,0.0,0.0,0.0,0.0,0.0,0.0,0.0,0.0,0.0,0.0,0.0,0.0,0.0,0.0,-0.6441,-0.6629,-0.7015,-0.7641,-0.767,-0.767,-0.7663,-0.7037,-0.6702,0.0,0.0,0.0,0.0,0.0,0.0,0.0,0.0,0.0,0.0,0.0,0.0,0.0,0.0,0.0,0.0,0.0,0.0,0.0,0.0,0.0,0.0,0.0,0.0,0.0,0.0,0.0,0.0,0.0,0.0,0.0,0.0,0.0,0.0,0.0,0.0,0.0,0.0,0.0,0.0,0.0,-0.5007,-0.519,-0.5415,0.0,0.0,0.0,0.0,-0.4967,-0.4682,0.0,0.0,0.0,0.0,0.0,0.0,0.0,0.0,0.0,0.0,0.0,0.0,0.0,0.0,0.0,0.0,0.0,0.0,0.0,0.0,0.0,0.0,0.0,0.0,0.0,0.0,0.0,0.0,0.0,0.0,0.0,0.0,0.0,0.0,0.0,0.0,0.0,0.0,0.0,0.0,0.0,0.0,0.0,0.0,0.0,0.0,0.0,0.0,0.0,0.0,0.0,0.0,0.0,0.0,0.0,0.0,-0.6434,-0.6549,-0.697,-0.7634,-0.767,-0.767,-0.7663,-0.7044,-0.6702,0.0,0.0,0.0,0.0,0.0,0.0,0.0,0.0,0.0,0.0,0.0,0.0,0.0,0.0,0.0,0.0,0.0,0.0,0.0,0.0,0.0,0.0,0.0,0.0,0.0,0.0,0.0,0.0,0.0,0.0,0.0,0.0,0.0,0.0,0.0,0.0,0.0,0.0,0.0,0.0,0.0,-0.5074,-0.5348,-0.5585,-0.5744,0.0,0.0,-0.5467,-0.5333,-0.5045,0.0,0.0,0.0,0.0,0.0,0.0,0.0,0.0,0.0,0.0,0.0,0.0,0.0,0.0,0.0,0.0,0.0,0.0,0.0,0.0,0.0,0.0,0.0,0.0,0.0,0.0,0.0,0.0,0.0,0.0,0.0,0.0,0.0,0.0,0.0,0.0,0.0,0.0,0.0,0.0,0.0,0.0,0.0,0.0,0.0,0.0,0.0,0.0,0.0,0.0,0.0,0.0,0.0,0.0,0.0,-0.5244,-0.6441,-0.6593,-0.7015,-0.7641,-0.767,-0.767,-0.767,-0.7226,-0.6891,0.0,0.0,0.0,0.0,0.0,0.0,0.0,0.0,0.0,0.0,0.0,0.0,0.0,0.0,0.0,0.0,0.0,0.0,0.0,0.0,0.0,0.0,0.0,0.0,0.0,0.0,0.0,0.0,0.0,0.0,0.0,0.0,0.0,0.0,0.0,0.0,0.0,0.0,0.0,0.0,0.0,0.0,-0.5745,-0.5901,0.0,0.0,0.0,-0.5632,-0.5593,0.0,0.0,0.0,0.0,0.0,0.0,0.0,0.0,0.0,0.0,0.0,0.0,0.0,0.0,0.0,0.0,0.0,0.0,0.0,0.0,0.0,0.0,0.0,0.0,0.0,0.0,0.0,0.0,0.0,0.0,0.0,0.0,0.0,0.0,0.0,0.0,0.0,0.0,0.0,0.0,0.0,0.0,0.0,0.0,0.0,0.0,0.0,0.0,0.0,0.0,0.0,0.0,0.0,0.0,0.0,0.0,0.0,-0.6491,-0.6708,-0.7139,-0.7807,-0.7756,-0.7756,-0.7829,-0.7401,0.0,0.0,0.0,0.0,0.0,0.0,0.0,0.0,0.0,0.0,0.0,0.0,0.0,0.0,0.0,0.0,0.0,0.0,0.0,0.0,0.0,0.0,0.0,0.0,0.0,0.0,0.0,-0.22,0.0,0.0,0.0,0.0,0.0,0.0,0.0,0.0,0.0,0.0,0.0,0.0,0.0,0.0,-0.5676,-0.5991,-0.6182,-0.6324,0.0,0.0,-0.6006,-0.5916,-0.5538,-0.5225,0.0,0.0,0.0,0.0,0.0,0.0,0.0,0.0,0.0,0.0,0.0,0.0,0.0,0.0,0.0,0.0,0.0,0.0,0.0,0.0,0.0,0.0,0.0,0.0,0.0,0.0,0.0,0.0,0.0,0.0,0.0,0.0,0.0,0.0,0.0,0.0,0.0,0.0,0.0,0.0,0.0,0.0,0.0,0.0,0.0,0.0,0.0,0.0,0.0,0.0,0.0,0.0,0.0,0.0,0.0,-0.66,-0.7,-0.7473,-0.8129,-0.7873,-0.7858,-0.8143,-0.7517,-0.7044,0.0,0.0,0.0,0.0,0.0,0.0,0.0,0.0,0.0,0.0,0.0,0.0,0.0,0.0,0.0,0.0,0.0,0.0,0.0,0.0,0.0,0.0,0.0,0.0,0.0,0.0,0.0,0.0,0.0,0.0,0.0,0.0,0.0,0.0,0.0,0.0,0.0,0.0,0.0,0.0,0.0,-0.5918,-0.583,-0.6331,-0.6696,0.0,0.0,-0.6693,-0.6544,-0.6062,-0.5679,-0.5674,0.0,0.0,0.0,0.0,0.0,0.0,0.0,0.0,0.0,0.0,0.0,0.0,0.0,0.0,0.0,0.0,0.0,0.0,0.0,0.0,0.0,0.0,0.0,0.0,0.0,0.0,0.0,0.0,0.0,0.0,0.0,0.0,0.0,0.0,0.0,0.0,0.0,0.0,0.0,0.0,0.0,0.0,0.0,0.0,0.0,0.0,0.0,0.0,0.0,0.0,0.0,0.0,0.0,-0.5989,-0.6608,-0.7219,-0.7706,-0.8187,-0.8275,-0.8275,-0.8202,-0.7953,-0.7452,0.0,0.0,0.0,0.0,0.0,0.0,0.0,0.0,0.0,0.0,0.0,0.0,0.0,0.0,0.0,0.0,0.0,0.0,0.0,0.0,0.0,0.0,0.0,0.0,0.0,0.0,0.0,0.0,-0.2931,-0.3021,-0.3282,0.0,0.0,0.0,0.0,0.0,0.0,0.0,0.0,0.0,0.0,-0.6319,-0.6452,-0.6829,0.0,0.0,-0.6832,-0.6767,-0.6622,-0.6334,-0.6126,-0.6121,-0.5802,0.0,0.0,0.0,0.0,0.0,0.0,0.0,0.0,0.0,0.0,0.0,0.0,0.0,0.0,0.0,0.0,0.0,0.0,0.0,0.0,0.0,0.0,0.0,0.0,0.0,0.0,0.0,0.0,0.0,0.0,0.0,0.0,0.0,0.0,0.0,0.0,0.0,0.0,0.0,0.0,0.0,0.0,0.0,0.0,0.0,0.0,0.0,0.0,0.0,0.0,0.0,0.0,-0.6226,-0.6796,-0.7488,-0.8019,-0.8341,-0.8575,-0.8626,-0.8494,-0.8304,-0.7829,0.0,0.0,0.0,0.0,0.0,0.0,0.0,0.0,0.0,0.0,0.0,0.0,0.0,0.0,0.0,0.0,0.0,0.0,0.0,0.0,0.0,0.0,0.0,0.0,0.0,0.0,0.0,0.0,-0.3413,-0.3603,-0.3781,0.0,0.0,0.0,0.0,0.0,0.0,0.0,0.0,0.0,0.0,-0.6693,-0.6981,-0.7212,-0.7395,-0.7402,-0.7338,-0.7138,-0.6866,-0.6694,-0.6579,-0.6509,0.0,0.0,0.0,0.0,0.0,0.0,0.0,0.0,0.0,0.0,0.0,0.0,0.0,0.0,0.0,0.0,0.0,0.0,0.0,0.0,0.0,0.0,0.0,0.0,0.0,0.0,0.0,-0.574,0.0,0.0,-0.544,0.0,0.0,0.0,0.0,0.0,0.0,0.0,0.0,0.0,0.0,0.0,0.0,0.0,0.0,0.0,0.0,0.0,0.0,0.0,0.0,0.0,0.0,-0.6796,-0.7182,-0.7858,-0.8348,-0.8663,-0.8692,-0.8846,-0.9158,-0.8538,-0.8041,-0.7682,0.0,0.0,0.0,0.0,0.0,0.0,0.0,0.0,0.0,0.0,0.0,0.0,0.0,0.0,0.0,0.0,0.0,0.0,0.0,0.0,0.0,0.0,0.0,0.0,0.0,0.0,-0.3674,-0.4161,-0.4472,0.0,0.0,0.0,0.0,0.0,0.0,0.0,0.0,0.0,0.0,-0.6899,-0.7188,-0.7212,-0.7605,-0.7954,-0.8166,-0.8234,-0.8038,-0.7451,-0.7225,-0.6988,0.0,0.0,0.0,0.0,0.0,0.0,0.0,0.0,0.0,0.0,0.0,0.0,0.0,0.0,0.0,0.0,0.0,0.0,0.0,0.0,0.0,0.0,0.0,0.0,0.0,0.0,0.0,-0.6624,-0.653,0.0,0.0,0.0,0.0,0.0,0.0,0.0,0.0,0.0,0.0,0.0,-0.7175,-0.7106,0.0,0.0,0.0,0.0,0.0,0.0,0.0,0.0,0.0,0.0,0.0,0.0,-0.7182,-0.7565,-0.8194,-0.8732,-0.9152,-0.9368,-0.942,-0.9464,-0.9018,-0.837,-0.7636,0.0,0.0,0.0,0.0,0.0,0.0,0.0,0.0,0.0,0.0,0.0,0.0,0.0,0.0,0.0,0.0,0.0,0.0,0.0,0.0,0.0,0.0,0.0,0.0,0.0,-0.4059,0.0,0.0,0.0,0.0,0.0,0.0,0.0,0.0,0.0,0.0,0.0,-0.6912,-0.7323,-0.7666,-0.7924,-0.8057,-0.8287,-0.8467,0.0,0.0,0.0,0.0,0.0,0.0,0.0,0.0,0.0,0.0,0.0,0.0,0.0,0.0,-0.6097,-0.548,-0.5363,-0.5382,-0.5482,0.0,0.0,0.0,0.0,0.0,0.0,0.0,0.0,0.0,0.0,0.0,0.0,0.0,0.0,-0.7879,0.0,-0.7745,0.0,0.0,0.0,0.0,0.0,0.0,0.0,0.0,-0.8189,-0.8331,-0.8641,-0.8551,-0.8453,0.0,-0.8091,-0.7521,0.0,0.0,0.0,0.0,0.0,0.0,0.0,0.0,-0.7616,-0.8092,-0.8675,-0.91,-0.9471,-0.9738,-0.9849,-0.973,-0.9232,-0.8616,-0.7818,-0.7039,-0.6461,0.0,0.0,0.0,0.0,0.0,0.0,0.0,0.0,0.0,0.0,0.0,0.0,0.0,0.0,0.0,0.0,0.0,0.0,0.0,0.0,0.0,0.0,0.0,-0.4766,0.0,0.0,0.0,0.0,0.0,0.0,0.0,0.0,0.0,-0.7882,-0.7676,-0.7626,-0.8031,-0.8378,-0.8614,-0.8677,0.0,0.0,0.0,0.0,0.0,0.0,0.0,-0.8078,-0.799,-0.7973,-0.7924,-0.7764,-0.7604,-0.7494,-0.7494,0.0,0.0,-0.6199,-0.6121,-0.6216,-0.6313,-0.6188,-0.6108,-0.6103,-0.6161,-0.6284,0.0,0.0,0.0,0.0,0.0,0.0,0.0,0.0,-0.9729,-0.9591,0.0,-0.9408,0.0,0.0,0.0,0.0,0.0,-0.8727,0.0,0.0,-0.9514,-0.9803,-1.0095,-1.0095,-0.9898,-0.9475,-0.9437,-0.916,-0.8702,-0.7456,0.0,0.0,0.0,0.0,0.0,0.0,-0.8142,-0.8904,-0.9242,-0.9464,-0.9634,-0.9883,-0.9991,-1.0005,-0.9346,-0.8746,-0.8165,-0.7787,-0.7162,-0.6206,-0.6184,0.0,0.0,0.0,0.0,0.0,0.0,0.0,0.0,0.0,0.0,0.0,0.0,0.0,0.0,0.0,0.0,0.0,0.0,0.0,0.0,-0.5251,0.0,0.0,0.0,0.0,0.0,0.0,0.0,0.0,0.0,0.0,-0.8125,-0.8375,-0.8646,-0.8652,0.0,0.0,0.0,0.0,-0.9389,-0.9285,-0.9303,-0.9221,-0.8799,-0.8765,-0.8678,-0.8371,0.0,0.0,-0.8374,-0.8374,-0.8379,-0.8368,-0.8331,-0.7988,-0.6905,-0.6929,-0.7155,-0.7193,-0.7068,-0.6954,-0.6949,-0.6879,-0.6892,-1.4194,0.0,0.0,0.0,0.0,-1.1797,-1.1741,-1.1732,-1.1658,-1.1575,-1.1444,-1.1351,0.0,0.0,0.0,0.0,0.0,0.0,-1.0258,-1.0482,-1.0496,-1.0608,-1.0973,-1.0863,-1.0762,-1.0615,-1.0379,-1.0211,-1.0037,-0.943,-0.8798,-0.8143,0.0,0.0,0.0,0.0,-0.8844,-0.9387,-0.9509,-0.9726,-1.0066,-1.0167,-1.014,-0.994,-0.9729,-0.9314,-0.8684,-0.8364,-0.7929,-0.7339,-0.6656,0.0,0.0,0.0,0.0,0.0,0.0,0.0,0.0,0.0,0.0,0.0,0.0,0.0,0.0,0.0,0.0,0.0,0.0,0.0,-0.5918,-0.6204,-0.6594,0.0,0.0,0.0,0.0,0.0,0.0,0.0,0.0,0.0,-1.0228,-0.9673,-0.9302,0.0,0.0,-0.9955,-0.9819,-1.0055,-1.0214,-1.0233,-1.0042,0.0,-0.9744,-0.9597,-0.9439,-0.9359,-0.9348,-0.9348,-0.9348,-0.9348,-0.9348,-0.9336,-0.9348,-0.9154,-0.846,-0.81,-0.8077,-0.8342,-0.819,-0.7942,-0.7879,-0.7873,-0.7838,-1.6872,-1.587,-1.4289,-1.3667,-1.3667,-1.3595,-1.3595,-1.3585,-1.3499,-1.3455,-1.3306,-1.3208,-1.2985,-1.2708,-1.2384,0.0,0.0,0.0,-1.176,-1.1936,-1.1879,-1.1945,-1.2192,-1.2148,-1.2017,-1.1817,-1.1418,-1.1187,-1.1,-1.0655,-1.0234,-0.9642,0.0,0.0,-0.9169,-0.9338,-0.9623,-1.0054,-1.0185,-1.0459,-1.0761,-1.0643,-1.0451,-1.0153,-1.0002,-0.9731,-0.9318,-0.8842,-0.8421,-0.8047,-0.7309,-0.6705,0.0,0.0,0.0,0.0,0.0,0.0,0.0,0.0,0.0,0.0,0.0,-0.4449,0.0,0.0,0.0,0.0,-0.5473,-0.6276,-0.684,-0.7086,0.0,0.0,0.0,0.0,0.0,0.0,0.0,-1.0238,-1.0512,-1.1033,-1.1919,-1.1176,-1.0565,-1.0438,-1.0672,-1.0778,-1.0653,0.0,-1.0742,-1.061,-1.0402,-1.0239,-1.0105,-1.0014,-0.9985,-0.9991,-0.9985,-0.9991,-0.9991,-0.9991,-0.9991,-0.9985,-0.9985,-0.9909,-0.9664,-0.9303,-0.9191,-0.9437,-0.9215,-0.8874,-0.8931,-0.8862,-0.8926,-1.9393,-1.9142,-1.673,-1.5743,-1.5674,-1.5497,-1.5497,-1.5487,-1.531,-1.5231,-1.5143,-1.4924,-1.4736,-1.4648,-1.3978,0.0,-1.3674,-1.3361,-1.3281,-1.3492,-1.3492,-1.3534,-1.3643,-1.3643,-1.3425,-1.293,-1.2602,-1.2158,-1.1788,-1.1422,-1.1295,-1.1218,-1.0316,-0.9788,-0.9749,-1.0041,-1.0408,-1.0872,-1.1169,-1.1374,-1.1479,-1.1169,-1.0844,-1.0518,-1.016,-0.9905,-0.9858,-0.9287,-0.8786,-0.8429,-0.8039,-0.7404,-0.6546,0.0,0.0,0.0,0.0,0.0,0.0,0.0,0.0,0.0,0.0,0.0,0.0,0.0,0.0,0.0,-0.6649,0.0,-0.7889,-0.7945,0.0,0.0,0.0,-0.9938,-0.9974,-1.0938,-1.1599,-1.144,0.0,0.0,-1.3081,-1.277,-1.2301,-1.1843,-1.1803,-1.1676,-1.1538,-1.1427,-1.1158,-1.0842,-1.0703,-1.0578,-1.036,-1.0393,-1.0461,-1.0485,-1.0453,-1.0443,-1.0449,-1.0514,-1.0407,-1.0449,-1.0466,-1.0508,-1.0659,-1.0479,-1.0453,-1.0377,-1.0084,-0.9823,-0.9777,-0.9771,-0.9754,-1.992,-1.9727,-1.9053,-1.8442,-1.7841,-1.783,-1.7765,-1.7765,-1.7579,-1.7252,-1.6821,-1.6574,-1.6138,-1.5404,-1.5033,-1.4705,-1.444,-1.4384,-1.4168,-1.3999,-1.4007,-1.4049,-1.4073,-1.3933,-1.3751,-1.3671,-1.3386,-1.3233,-1.3146,-1.3067,-1.2759,-1.2261,-1.2,-1.1547,-1.0934,-1.0989,-1.1122,-1.1312,-1.1391,-1.1431,-1.1479,-1.1169,-1.0955,-1.0875,-1.0526,-1.0208,-0.993,-0.9509,-0.9128,-0.8786,-0.8174,-0.7841,-0.7873,-0.7488,0.0,0.0,0.0,0.0,0.0,0.0,0.0,0.0,0.0,-0.5772,-0.6043,0.0,-0.6625,0.0,-0.8079,-0.8929,-0.9017,-0.9263,0.0,0.0,-1.0641,-1.0929,-1.1407,-1.1881,-1.2248,-1.2437,-1.2672,-1.2945,-1.3408,-1.3431,-1.3482,-1.3637,-1.287,-1.2256,-1.2059,-1.2036,-1.1952,-1.1674,-1.1613,-1.1453,-1.123,-1.1291,-1.1389,-1.1522,-1.1528,-1.154,-1.154,-1.1546,-1.1546,-1.154,-1.154,-1.151,-1.1413,-1.1479,-1.1473,-1.1335,-1.0743,-1.0194,-1.0194,-1.02,-1.02,-2.1435,-2.1339,-2.1339,-2.1053,-2.0553,-1.9606,-1.9182,-1.9192,-1.9053,-1.8844,-1.8468,-1.8203,-1.7665,-1.7036,-1.6624,-1.6408,-1.62,-1.6079,-1.58,-1.5441,-1.5371,-1.5217,-1.4935,-1.4788,-1.4637,-1.4465,-1.4242,-1.4034,-1.395,-1.3798,-1.3525,-1.302,-1.3012,-1.2742,-1.209,-1.1776,-1.166,-1.1725,-1.1884,-1.1884,-1.1725,-1.1543,-1.1304,-1.101,-1.0804,-1.0585,-1.0276,-0.9915,-0.9642,-0.9533,-0.8853,-0.8448,-0.8398,-0.8018,-0.7759,0.0,0.0,0.0,0.0,0.0,0.0,0.0,0.0,0.0,0.0,0.0,-0.7883,-0.8503,-0.9643,-1.0264,-1.0121,-1.0415,-1.0844,-1.1392,-1.1741,-1.2083,-1.2464,-1.2743,-1.3081,-1.351,-1.3676,-1.3847,-1.4333,-1.4408,-1.4441,-1.4554,-1.3954,-1.3424,-1.3142,-1.2975,-1.2768,-1.2546,-1.2383,-1.2214,-1.1883,-1.2007,-1.2077,-1.195,-1.1926,-1.1926,-1.1926,-1.1926,-1.1926,-1.1926,-1.1926,-1.1902,-1.1805,-1.1854,-1.1884,-1.1751,-1.1389,-1.0985,-1.0725,-1.0677,-1.0677,-2.3194,-2.3194,-2.3194,-2.3194,-2.306,-2.1155,-2.0305,-2.0254,-2.0182,-2.0121,-1.9938,-1.9525,-1.9131,-1.8756,-1.8378,-1.8165,-1.8165,-1.7821,-1.7446,-1.7035,-1.696,-1.6647,-1.6062,-1.5988,-1.5707,-1.5333,-1.5035,-1.4731,-1.4527,-1.4217,-1.3972,-1.3723,-1.3715,-1.3555,-1.3212,-1.2597,-1.2238,-1.2099,-1.2401,-1.2401,-1.2091,-1.2043,-1.1733,-1.1216,-1.1096,-1.0958,-1.0799,-1.0384,-1.0156,-1.0285,-0.9711,-0.9086,-0.8479,-0.8446,-0.8629,0.0,-0.8303,0.0,0.0,0.0,0.0,0.0,0.0,0.0,0.0,-0.8658,-0.9234,-1.0213,-1.1253,-1.1663,-1.1288,-1.1551,-1.1887,-1.2186,-1.2782,-1.3179,-1.3282,-1.3545,-1.3989,-1.4689,-1.4631,-1.4809,-1.5333,-1.5265,-1.5133,-1.4985,-1.493,-1.4695,-1.4402,-1.3923,-1.3454,-1.3259,-1.3041,-1.279,-1.2525,-1.264,-1.2608,-1.2213,-1.2146,-1.2023,-1.214,-1.2053,-1.2035,-1.2041,-1.2065,-1.2041,-1.2023,-1.2029,-1.2023,-1.1992,-1.1932,-1.1757,-1.1347,-1.122,-1.1214,-2.3194,-2.3194,-2.3194,-2.3194,-2.3153,-2.2732,-2.2371,-2.203,-2.1798,-2.1324,-2.041,-1.9663,-1.9287,-1.9141,-1.8756,-1.8544,-1.8425,-1.81,-1.7877,-1.7746,-1.7521,-1.742,-1.7199,-1.6865,-1.6519,-1.6178,-1.5738,-1.5402,-1.5035,-1.4969,-1.4788,-1.4517,-1.4517,-1.4328,-1.3991,0.0,0.0,0.0,-1.252,-1.2589,-1.2517,-1.2357,-1.2206,-1.206,-1.1564,0.0,-1.1247,-1.0615,-1.0253,-1.0285,-0.9905,0.0,0.0,0.0,0.0,0.0,0.0,0.0,0.0,0.0,0.0,0.0,-0.9953,-0.9824,-0.919,-0.9377,-1.0029,-1.1162,-1.2728,-1.3328,-1.2578,-1.2813,-1.3099,-1.3316,-1.3418,-1.3711,-1.4268,-1.4411,-1.4704,-1.5388,-1.5475,-1.5531,-1.5613,-1.5701,-1.5723,-1.5666,-1.5632,-1.5532,-1.5368,-1.4627,-1.3923,-1.3502,-1.3319,-1.3159,-1.3169,-1.3237,-1.3275,-1.3077,-1.2987,-1.289,-1.2788,-1.262,-1.2548,-1.2536,-1.256,-1.2542,-1.2542,-1.2554,-1.2463,-1.2282,-1.224,-1.2143,-1.1836,-1.1769,-1.1769,-2.3857,-2.3867,-2.3857,-2.3857,0.0,-2.3857,-2.3598,-2.3163,-2.2866,-2.2224,-2.1349,-2.0954,-2.0581,-2.0232,-1.9837,-1.962,-1.9554,-1.9146,-1.8926,-1.8724,-1.8552,-1.8308,-1.7957,-1.7635,-1.729,-1.7016,-1.6793,-1.643,-1.599,-1.5838,-1.5581,-1.5088,-1.501,-1.4767,-1.4488,-1.4297,-1.3802,-1.3127,-1.3119,-1.2975,-1.2805,-1.2687,-1.256,-1.238,-1.2093,0.0,0.0,0.0,0.0,0.0,0.0,0.0,0.0,0.0,0.0,-1.066,-1.0172,-0.9958,-1.0146,-1.0334,-1.0583,-1.091,-1.1516,-1.1464,-1.0618,-1.0847,-1.1444,-1.2321,-1.3655,-1.4187,-1.358,-1.3843,-1.4138,-1.4405,-1.4469,-1.4728,-1.5201,-1.5231,-1.5356,-1.5817,-1.5936,-1.5999,-1.6182,-1.6269,-1.6226,-1.616,-1.6121,-1.5982,-1.5711,-1.5063,-1.4448,-1.4028,-1.3791,-1.3658,-1.3581,-1.3652,-1.3652,-1.3476,-1.3307,-1.3228,-1.3228,-1.3058,-1.2966,-1.3052,-1.2966,-1.2966,-1.3052,-1.3052,-1.3002,-1.2884,-1.2847,-1.281,-1.2655,-1.227,-1.1926,-2.4625,-2.4625,-2.4625,-2.4615,-2.4625,-2.4615,-2.4418,-2.4117,0.0,0.0,0.0,-2.2308,-2.1974,-2.1336,-2.0995,-2.08,-2.0654,-2.0255,-1.9951,-1.9794,-1.9548,-1.9196,-1.8652,-1.8497,-1.8154,-1.7805,-1.7787,-1.7424,-1.6887,-1.6598,-1.6263,-1.5757,-1.5522,-1.5267,-1.4991,-1.4689,-1.4404,-1.3969,-1.3772,-1.3438,-1.3087,-1.3083,-1.2901,-1.2663,-1.2589,-1.233,-1.1856,-1.1763,-1.1684,-1.1482,-1.119,-1.118,-1.1412,-1.0862,-1.0836,-1.1541,-1.0914,-1.0673,-1.1043,-1.1411,-1.1774,-1.2161,-1.2837,-1.2866,-1.2121,-1.2295,-1.2717,-1.349,-1.4371,-1.4747,-1.4472,-1.4736,-1.5093,-1.5441,-1.5593,-1.5764,-1.6106,-1.6008,-1.6052,-1.6301,-1.6373,-1.6404,-1.6659,-1.6624,-1.6656,-1.6476,-1.6386,-1.6229,-1.5824,-1.5387,-1.4942,-1.4594,-1.4246,-1.3977,-1.399,-1.3997,-1.3913,-1.3646,-1.3568,-1.3483,-1.3398,-1.3313,-1.3313,-1.3313,-1.3313,-1.3404,-1.3398,-1.3398,-1.3398,-1.3398,-1.3398,-1.3398,-1.336,-1.2787,-1.2264,-2.4946,-2.5115,-2.5115,-2.5115,-2.5115,-2.5115,-2.5084,-2.4946,-2.3721,-2.3153,-2.3101,-2.2848,-2.2522,-2.2094,-2.1868,-2.1489,-2.1128,-2.0867,-2.0644,-2.0498,-2.0255,-1.9991,-1.97,-1.9474,-1.9114,-1.8669,-1.8393,-1.8042,-1.745,-1.7104,-1.6828,-1.6659,-1.6298,-1.6097,-1.6053,-1.6,-1.585,-1.5455,-1.4216,-1.3553,-1.3496,-1.3339,-1.3224,-1.3158,-1.3033,-1.2879,-1.2817,-1.2436,-1.2286,-1.2235,-1.2284,-1.2305,-1.2131,-1.2061,-1.2316,-1.2983,-1.2378,-1.214,-1.2528,-1.2662,-1.3008,-1.3699,-1.3886,-1.3767,-1.328,-1.2732,-1.298,-1.4358,-1.5206,-1.5573,-1.5371,-1.569,-1.5961,-1.6138,-1.617,-1.6352,-1.6723,-1.6686,-1.6738,-1.6904,-1.6976,-1.6903,-1.6746,-1.677,-1.6802,-1.6672,-1.6593,-1.635,-1.6058,-1.5506,-1.509,-1.4915,-1.4503,-1.4243,-1.4405,-1.4243,-1.4159,-1.423,-1.3899,-1.3737,-1.3737,-1.3561,-1.3476,-1.3398,-1.3737,-1.3828,-1.3568,-1.3398,-1.3483,-1.3483,-1.3483,-1.3483,-1.3483,-1.329,-1.3155,-2.5115,-2.52,-2.52,-2.52,-2.52,-2.52,-2.52,-2.5158,-2.4597,-2.4177,-2.3874,-2.3721,-2.3389,-2.2884,-2.2563,-2.2149,-2.1724,-2.1557,-2.1271,-2.0896,-2.0722,-2.0489,-2.0255,-2.0098,-1.9778,-1.9366,-1.9269,-1.8979,-1.8534,-1.8256,-1.7862,-1.7423,-1.6881,-1.6551,-1.6482,-1.6473,-1.6323,-1.6067,-1.5242,-1.4655,-1.4328,-1.4042,-1.3853,-1.3845,-1.3597,-1.3345,-1.3194,-1.3011,-1.2884,-1.2692,-1.2738,-1.2793,-1.2875,-1.2555,-1.2625,-1.3354,-1.3072,-1.2955,-1.3132,-1.3558,-1.4096,-1.4613,-1.4907,-1.4959,-1.4757,-1.4072,-1.4165,-1.5307,-1.6039,-1.634,-1.6249,-1.6419,-1.6657,-1.6936,-1.6824,-1.6974,-1.7213,-1.7216,-1.721,-1.7294,-1.7483,-1.7507,-1.7183,-1.7359,-1.7472,-1.7302,-1.7125,-1.6962,-1.6877,-1.6443,-1.5959,-1.5405,-1.4999,-1.4748,-1.4734,-1.4657,-1.4573,-1.4566,-1.4398,-1.4237,-1.423,-1.3984,-1.3906,-1.4068,-1.4321,-1.4321,-1.3977,-1.3899,-1.3899,-1.3828,-1.3743,-1.3743,-1.3737,-1.3822,-1.3815,-2.5295,-2.538,-2.5369,-2.5369,-2.5369,-2.5369,-2.5369,-2.538,-2.5369,-2.5166,-2.4772,-2.4502,-2.4177,-2.3675,-2.341,-2.301,-2.2518,-2.2237,-2.1835,-2.1444,-2.1158,-2.0944,-2.0722,-2.0576,-2.0342,-2.0177,-2.0098,-1.9927,-1.964,-1.9383,-1.8826,-1.7962,-1.7394,-1.7051,-1.6821,-1.6821,-1.676,-1.6603,-1.6323,-1.5838,-1.5107,-1.4749,-1.4556,-1.4512,-1.4162,-1.3863,-1.3691,-1.3584,-1.3398,-1.3188,-1.317,-1.3316,-1.3552,-1.309,-1.3081,-1.3708,-1.3861,-1.3943,-1.3942,-1.4478,-1.5015,-1.5417,-1.5721,-1.5963,-1.6106,-1.5542,-1.546,-1.6219,-1.6885,-1.7294,-1.7132,-1.7123,-1.7269,-1.7543,-1.7446,-1.7477,-1.773,-1.7635,-1.7604,-1.7597,-1.7846,-1.7936,-1.7907,-1.8051,-1.8094,-1.7913,-1.77,-1.7612,-1.7525,-1.7342,-1.6741,-1.6115,-1.5602,-1.5257,-1.4992,-1.4908,-1.4908,-1.4824,-1.4734,-1.465,-1.4566,-1.4405,-1.4321,-1.4566,-1.4741,-1.4741,-1.4566,-1.4475,-1.4398,-1.4243,-1.4243,-1.425,-1.4243,-1.4321,-1.4314,-2.5644,-2.5812,-2.5812,-2.5801,-2.5812,-2.5812,-2.5812,-2.5812,-2.5812,-2.579,-2.5714,-2.5305,-2.487,-2.4466,-2.4352,-2.3935,-2.3343,-2.2914,-2.247,-2.2063,-2.1619,-2.1349,-2.1118,-2.1128,-2.1041,-2.0789,-2.0789,-2.0692,-2.0449,-2.0117,-1.9438,-1.8437,-1.81,-1.783,-1.7458,-1.7411,-1.7401,-1.7392,-1.7364,-1.6797,-1.5771,-1.5331,-1.5136,-1.5127,-1.4737,-1.4506,-1.4497,-1.4134,-1.3939,-1.3912,-1.41,-1.4168,-1.4255,-1.4259,-1.4474,-1.4866,-1.5285,-1.5505,-1.5451,-1.5524,-1.5752,-1.6145,-1.6245,-1.6574,-1.7177,-1.6948,-1.6684,-1.7026,-1.792,-1.8197,-1.7796,-1.7752,-1.7813,-1.7966,-1.7946,-1.7925,-1.7951,-1.7951,-1.7997,-1.8196,-1.828,-1.8313,-1.846,-1.8514,-1.8444,-1.8248,-1.8089,-1.7898,-1.7802,-1.7722,-1.7508,-1.7093,-1.636,-1.5671,-1.5529,-1.5242,-1.518,-1.5104,-1.4908,-1.4817,-1.4817,-1.4734,-1.465,-1.4824,-1.5082,-1.5082,-1.4824,-1.465,-1.465,-1.4566,-1.4573,-1.4657,-1.4657,-1.4657,-1.4566,-2.5812,-2.5895,-2.5895,-2.5895,-2.5895,-2.5895,-2.5895,-2.5895,-2.5895,-2.5895,-2.5906,-2.5728,-2.5441,-2.5174,-2.4997,-2.4575,-2.4119,-2.3583,-2.3134,-2.2705,-2.2091,-2.1731,-2.1589,-2.1436,-2.1282,-2.1108,-2.1031,-2.1041,-2.0884,-2.0536,-2.0138,-1.9707,-1.9377,-1.8941,-1.8418,-1.8249,-1.7995,-1.7588,-1.7529,-1.7248,-1.677,-1.6191,-1.5782,-1.568,-1.533,-1.5187,-1.5233,-1.5088,-1.5006,-1.5006,-1.5078,-1.514,-1.514,-1.4702,-1.479,-1.5377,-1.5597,-1.5799,-1.6046,-1.6056,-1.623,-1.6642,-1.6881,-1.7165,-1.7458,-1.7559,-1.7715,-1.7995,-1.8656,-1.8841,-1.8391,-1.8294,-1.8364,-1.8425,-1.8451,-1.8371,-1.8282,-1.84,-1.8525,-1.8522,-1.8829,-1.9048,-1.9058,-1.9082,-1.9019,-1.8856,-1.866,-1.853,-1.8383,-1.8308,-1.8221,-1.7943,-1.7309,-1.6741,-1.6329,-1.6132,-1.5881,-1.5732,-1.5499,-1.5318,-1.5235,-1.5159,-1.5082,-1.509,-1.5257,-1.5347,-1.5006,-1.4915,-1.4908,-1.4824,-1.4734,-1.4734,-1.4908,-1.4915,-1.4999,-2.5895,-2.5895,-2.5895,-2.5895,-2.5895,-2.5895,-2.5895,-2.5895,-2.5895,-2.5895,-2.5895,-2.5895,-2.5812,-2.5644,-2.5464,-2.5176,-2.474,-2.4292,-2.3844,-2.3296,-2.2664,-2.2237,-2.197,-2.1807,-2.1655,-2.1578,-2.1502,-2.1502,-2.1395,-2.1141,-2.0832,-2.067,-2.0282,-1.9827,-1.9273,-1.9013,-1.8566,-1.8125,-1.7871,-1.7735,-1.755,-1.709,-1.6652,-1.6422,-1.6083,-1.5928,-1.5919,-1.5818,-1.5762,-1.5689,-1.5689,-1.5689,-1.567,-1.5139,-1.5194,-1.5918,-1.6019,-1.6147,-1.6459,-1.6477,-1.6652,-1.7037,-1.7339,-1.7596,-1.7816,-1.8018,-1.8348,-1.8815,-1.9136,-1.9152,-1.8851,-1.8772,-1.878,-1.87,-1.8709,-1.862,-1.854,-1.8784,-1.8972,-1.8953,-1.9342,-1.9752,-1.9703,-1.9653,-1.9513,-1.933,-1.9255,-1.9096,-1.8827,-1.8796,-1.8708,-1.8486,-1.8265,-1.7803,-1.7062,-1.6728,-1.6568,-1.6354,-1.6073,-1.5875,-1.5861,-1.559,-1.5514,-1.5506,-1.5514,-1.5597,-1.5506,-1.5423,-1.5333,-1.5166,-1.5075,-1.5166,-1.5423,-1.5423,-1.5423,-2.5895,-2.5895,-2.5895,-2.5895,-2.5895,-2.5895,-2.5895,-2.5895,-2.5895,-2.5895,-2.5895,-2.5895,-2.5906,-2.5906,-2.5812,-2.5717,-2.5462,-2.4988,-2.4454,-2.3764,-2.3275,-2.2828,-2.2424,-2.2338,-2.2327,-2.2252,-2.2252,-2.2176,-2.2025,-2.1842,-2.1484,-2.0879,-2.0764,-2.0363,-1.9909,-1.9485,-1.9164,-1.9093,-1.8664,-1.8309,-1.8018,-1.792,-1.7745,-1.7434,-1.7044,-1.6694,-1.6571,-1.6188,-1.5928,-1.5707,-1.5744,-1.5725,-1.5707,-1.567,-1.6001,-1.6697,-1.6826,-1.6826,-1.6853,-1.6872,-1.7037,-1.7394,-1.7532,-1.7834,-1.8449,-1.8357,-1.854,-1.9191,-1.9265,-1.9222,-1.8993,-1.8993,-1.8922,-1.8772,-1.87,-1.87,-1.8718,-1.9091,-1.9344,-1.9501,-1.9774,-2.0052,-2.0189,-2.0002,-1.9845,-1.9579,-1.9387,-1.9096,-1.8912,-1.8827,-1.8796,-1.878,-1.8632,-1.8474,-1.7681,-1.7327,-1.6998,-1.6745,-1.6592,-1.6453,-1.608,-1.5846,-1.5846,-1.5929,-1.6012,-1.6012,-1.6095,-1.6012,-1.5922,-1.5839,-1.5839,-1.5929,-1.5846,-1.6012,-1.6012,-2.5895,-2.5895,-2.5895,-2.5895,-2.5895,-2.5895,-2.5895,-2.5895,-2.5895,-2.5895,-2.5895,-2.5895,-2.5895,-2.5895,-2.5895,-2.5822,-2.5768,-2.5311,-2.4914,-2.4584,-2.3713,-2.3174,-2.3003,-2.2638,-2.2392,-2.2392,-2.2402,-2.2402,-2.2327,-2.2176,-2.2113,-2.1901,-2.1795,-2.148,-2.0907,-2.0586,-2.0298,-1.9849,-1.9273,-1.8913,-1.8725,-1.8496,-1.8279,-1.8134,-1.76,-1.7252,-1.7175,-1.7034,-1.6891,-1.6872,-1.6728,-1.6661,-1.6661,-1.6536,-1.6578,-1.6862,-1.6908,-1.6908,-1.6936,-1.7147,-1.733,-1.7504,-1.799,-1.8348,-1.866,-1.8806,-1.9008,-1.9228,-1.9292,-1.9222,-1.9222,-1.9231,-1.9152,-1.9073,-1.9073,-1.911,-1.93,-1.965,-1.996,-2.0086,-2.0334,-2.0373,-2.0305,-2.0201,-2.0019,-1.9845,-1.9579,-1.9296,-1.9104,-1.892,-1.8827,-1.8827,-1.8819,-1.8656,-1.8458,-1.8061,-1.7728,-1.7407,-1.7103,-1.6854,-1.6492,-1.6156,-1.6102,-1.6095,-1.6252,-1.6335,-1.6252,-1.617,-1.617,-1.6177,-1.6177,-1.617,-1.6095,-1.617,-1.6177,-2.5895,-2.5895,-2.5895,-2.5895,-2.5895,-2.5895,-2.5895,-2.5895,-2.5895,-2.5895,-2.5895,-2.5895,-2.5895,-2.5895,-2.5895,-2.5895,-2.5874,-2.5546,-2.5317,-2.5109,-2.4176,-2.3654,-2.3437,-2.2853,-2.2563,-2.2628,-2.2553,-2.2563,-2.2478,-2.2478,-2.2478,-2.2392,-2.2392,-2.2168,-2.1734,-2.1492,-2.1105,-2.0555,-2.0012,-1.9575,-1.9273,-1.899,-1.869,-1.8434,-1.8076,-1.7745,-1.7676,-1.7598,-1.752,-1.747,-1.7382,-1.7245,-1.7097,-1.7038,-1.6978,-1.6908,-1.6908,-1.6972,-1.7101,-1.7339,-1.7605,-1.788,-1.8366,-1.8751,-1.8889,-1.9155,-1.9274,-1.9292,-1.9292,-1.9292,-1.9292,-1.9292,-1.9292,-1.932,-1.9421,-1.9524,-1.9661,-2.0141,-2.0612,-2.0826,-2.073,-2.0628,-2.0382,-2.0292,-2.0201,-1.992,-1.9762,-1.9487,-1.9196,-1.9012,-1.8827,-1.8827,-1.8827,-1.8827,-1.8632,-1.8451,-1.8237,-1.7929,-1.7597,-1.7313,-1.6961,-1.6536,-1.6268,-1.6343,-1.6417,-1.6417,-1.6417,-1.6335,-1.6252,-1.6252,-1.6335,-1.6409,-1.6335,-1.6335,-1.6335,-2.5895,-2.5895,-2.5895,-2.5895,-2.5895,-2.5895,-2.5895,-2.5895,-2.5895,-2.5895,-2.5895,-2.5895,-2.5895,-2.5895,-2.5895,-2.5895,-2.5895,-2.5841,-2.5622,-2.5218,-2.4716,-2.4235,-2.371,-2.3242,-2.297,-2.2927,-2.3001,-2.2852,-2.2703,-2.2703,-2.2628,-2.2467,-2.2478,-2.2456,-2.2371,-2.1966,-2.1659,-2.1314,-2.0874,-2.0315,-1.9643,-1.9592,-1.9249,-1.8748,-1.8562,-1.8407,-1.8047,-1.7872,-1.7647,-1.7608,-1.7529,-1.7332,-1.7038,-1.7107,-1.7107,-1.6987,-1.6917,-1.7119,-1.7413,-1.7541,-1.7963,-1.844,-1.8705,-1.8907,-1.9173,-1.9265,-1.9292,-1.9292,-1.9292,-1.9292,-1.9292,-1.9292,-1.9292,-1.9338,-1.9613,-1.987,-2.009,-2.0649,-2.1264,-2.1425,-2.1096,-2.0654,-2.0382,-2.0292,-2.0201,-2.0019,-1.9762,-1.9487,-1.9288,-1.9012,-1.8827,-1.8827,-1.8827,-1.8827,-1.8827,-1.8796,-1.8597,-1.8359,-1.8017,-1.7644,-1.7281,-1.6904,-1.6554,-1.6574,-1.6574,-1.6574,-1.6574,-1.6492,-1.6574,-1.6574,-1.6574,-1.6574,-1.6574,-1.6492,-1.6574,-2.5895,-2.5895,-2.5895,-2.5895,-2.5895,-2.5895,-2.5895,-2.5895,-2.5895,-2.5895,-2.5895,-2.5895,-2.5895,-2.5895,-2.5895,-2.5895,-2.5895,-2.5895,-2.5808,-2.56,-2.5164,-2.4705,-2.4235,-2.3733,-2.3329,-2.3056,-2.3001,-2.3001,-2.2927,-2.2927,-2.2852,-2.2852,-2.2852,-2.2703,-2.2617,-2.2488,-2.2254,-2.2052,-2.1638,-2.1248,-2.0946,-2.0582,-2.0211,-1.9986,-1.952,-1.914,-1.8992,-1.8438,-1.8144,-1.8076,-1.7794,-1.752,-1.7392,-1.7401,-1.7392,-1.7351,-1.7474,-1.7571,-1.7694,-1.8092,-1.8403,-1.8715,-1.8953,-1.9155,-1.9274,-1.9292,-1.9292,-1.9292,-1.9292,-1.9292,-1.9292,-1.9292,-1.9301,-1.9301,-1.9668,-2.0072,-2.0402,-2.1044,-2.152,-2.1596,-2.1186,-2.0736,-2.0382,-2.0292,-2.0292,-2.011,-1.9853,-1.9579,-1.9487,-1.9112,-1.8827,-1.8827,-1.8827,-1.8827,-1.8827,-1.8827,-1.8724,-1.8533,-1.8263,-1.7906,-1.7548,-1.7104,-1.6849,-1.673,-1.673,-1.673,-1.673,-1.673,-1.673,-1.673,-1.6648,-1.6648,-1.6648,-1.673,-1.673,-2.5895,-2.5895,-2.5895,-2.5895,-2.5895,-2.5895,-2.5895,-2.5895,-2.5895,-2.5895,-2.5895,-2.5895,-2.5895,-2.5895,-2.5895,-2.5895,-2.5895,-2.5895,-2.5895,-2.583,-2.5393,-2.5011,-2.4661,-2.4028,-2.3482,-2.3088,-2.3001,-2.3001,-2.3001,-2.3001,-2.3001,-2.3001,-2.3001,-2.2927,-2.2852,-2.2777,-2.2703,-2.2499,-2.2253,-2.1944,-2.1668,-2.1248,-2.1016,-2.0765,-2.0222,-1.9957,-1.9916,-1.9312,-1.8813,-1.8407,-1.8056,-1.7862,-1.7686,-1.7751,-1.7903,-1.8165,-1.8161,-1.8162,-1.8349,-1.8648,-1.8865,-1.9022,-1.9164,-1.9292,-1.9292,-1.9292,-1.9292,-1.9292,-1.9292,-1.9292,-1.9292,-1.9292,-1.9366,-1.954,-1.9916,-2.0383,-2.0897,-2.141,-2.1686,-2.1642,-2.1275,-2.0826,-2.0464,-2.0292,-2.0292,-2.0201,-1.9936,-1.9671,-1.9579,-1.9196,-1.892,-1.8827,-1.8827,-1.8827,-1.8827,-1.8827,-1.8827,-1.8669,-1.847,-1.8105,-1.7731,-1.7135,-1.673,-1.673,-1.673,-1.673,-1.673,-1.673,-1.673,-1.673,-1.673,-1.673,-1.673,-1.673,-1.673,-2.5895,-2.5895,-2.5895,-2.5895,-2.5895,-2.5895,-2.5895,-2.5895,-2.5895,-2.5895,-2.5895,-2.5895,-2.5895,-2.5895,-2.5895,-2.5895,-2.5895,-2.5895,-2.5895,-2.5797,-2.548,-2.5185,-2.4891,-2.4115,-2.3482,-2.3056,-2.3001,-2.3001,-2.3001,-2.3001,-2.3001,-2.3001,-2.3001,-2.3001,-2.3001,-2.3001,-2.2927,-2.2767,-2.267,-2.237,-2.1869,-2.1816,-2.1551,-2.1158,-2.0931,-2.0736,-2.0655,-2.0277,-1.9636,-1.8761,-1.8526,-1.835,-1.8115,-1.8308,-1.8724,-1.9214,-1.8969,-1.8984,-1.9127,-1.9116,-1.9235,-1.9534,-1.9432,-1.9301,-1.9301,-1.9301,-1.9292,-1.9292,-1.9292,-1.9292,-1.9292,-1.9292,-1.9494,-1.9925,-2.0319,-2.0869,-2.1566,-2.1722,-2.1731,-2.1642,-2.1275,-2.0817,-2.0374,-2.0292,-2.0292,-2.0201,-1.9936,-1.9754,-1.9646,-1.9279,-1.892,-1.8827,-1.8827,-1.8827,-1.8827,-1.8827,-1.8827,-1.8772,-1.8581,-1.8255,-1.7803,-1.7183,-1.6738,-1.673,-1.673,-1.673,-1.673,-1.673,-1.673,-1.673,-1.673,-1.673,-1.673,-1.673,-1.673,-2.5895,-2.5895,-2.5895,-2.5895,-2.5895,-2.5895,-2.5895,-2.5895,-2.5895,-2.5895,-2.5895,-2.5895,-2.5895,-2.5895,-2.5895,-2.5895,-2.5895,-2.5895,-2.5895,-2.5884,-2.5797,-2.5273,-2.4683,-2.405,-2.3482,-2.3078,-2.3023,-2.3001,-2.3001,-2.3001,-2.3001,-2.3001,-2.3001,-2.3001,-2.3001,-2.3001,-2.3001,-2.2927,-2.2927,-2.2872,-2.2678,-2.2487,-2.2391,-2.2252,-2.1752,-2.1447,-2.1394,-2.0883,-2.0298,-1.9626,-1.9505,-1.8964,-1.8262,-1.8801,-1.957,-1.998,-1.9686,-1.941,-1.9507,-1.9601,-1.974,-1.9756,-1.9636,-1.9557,-1.9478,-1.939,-1.9301,-1.9292,-1.9292,-1.9292,-1.9292,-1.9329,-1.965,-2.0264,-2.0714,-2.1163,-2.1594,-2.1731,-2.1731,-2.1642,-2.1275,-2.0826,-2.0464,-2.0292,-2.0292,-2.0201,-2.0027,-1.9845,-1.9737,-1.9371,-1.9012,-1.8827,-1.8827,-1.8827,-1.8827,-1.8827,-1.8827,-1.8827,-1.8653,-1.839,-1.7842,-1.7191,-1.6881,-1.673,-1.673,-1.673,-1.673,-1.673,-1.673,-1.673,-1.673,-1.673,-1.673,-1.673,-1.673,-2.5895,-2.5895,-2.5895,-2.5895,-2.5895,-2.5895,-2.5895,-2.5895,-2.5895,-2.5895,-2.5895,-2.5895,-2.5895,-2.5895,-2.5895,-2.5895,-2.5895,-2.5895,-2.5895,-2.5895,-2.5884,-2.548,-2.4825,-2.4279,-2.3787,-2.3318,-2.3099,-2.3012,-2.3001,-2.3001,-2.3001,-2.3001,-2.3001,-2.3001,-2.3001,-2.3001,-2.3001,-2.3001,-2.3001,-2.3001,-2.3001,-2.2927,-2.2841,-2.2734,-2.2338,-2.2061,-2.1945,-2.1586,-2.1073,-2.0391,-2.0114,-1.9687,-1.9164,-1.9603,-2.0247,-2.0827,-2.0409,-2.0138,-2.0091,-2.0139,-2.0089,-2.002,-1.9872,-1.9715,-1.9715,-1.9548,-1.9381,-1.9301,-1.9292,-1.9292,-1.9366,-1.9595,-2.0008,-2.0466,-2.1025,-2.1456,-2.1624,-2.1731,-2.1731,-2.1642,-2.1374,-2.0925,-2.0382,-2.0374,-2.0374,-2.0292,-2.0027,-2.0019,-1.992,-1.9463,-1.9096,-1.9012,-1.8827,-1.8827,-1.8827,-1.8827,-1.8827,-1.8827,-1.8454,-1.8247,-1.7866,-1.7223,-1.6921,-1.673,-1.673,-1.673,-1.673,-1.673,-1.673,-1.673,-1.673,-1.673,-1.673,-1.673,-1.673,-2.5895,-2.5895,-2.5895,-2.5895,-2.5895,-2.5895,-2.5895,-2.5895,-2.5895,-2.5895,-2.5895,-2.5895,-2.5895,-2.5895,-2.5895,-2.5895,-2.5895,-2.5895,-2.5895,-2.5895,-2.5874,-2.5633,-2.5251,-2.465,-2.4137,-2.3656,-2.322,-2.3034,-2.3001,-2.3001,-2.3001,-2.3001,-2.3001,-2.3001,-2.3001,-2.3001,-2.3001,-2.3001,-2.3001,-2.3001,-2.3001,-2.3001,-2.3001,-2.2916,-2.282,-2.2627,-2.2489,-2.236,-2.1924,-2.0965,-2.0586,-2.0494,-2.0555,-2.0653,-2.0848,-2.1094,-2.1011,-2.0847,-2.0886,-2.0547,-2.043,-2.0342,-2.0098,-1.9942,-1.9942,-1.9794,-1.9548,-1.9292,-1.9301,-1.9301,-1.9402,-1.9989,-2.0393,-2.064,-2.1227,-2.1667,-2.1731,-2.1731,-2.1731,-2.1642,-2.1482,-2.1122,-2.0663,-2.0564,-2.0564,-2.0292,-2.011,-2.011,-2.0019,-1.9745,-1.9379,-1.9104,-1.9012,-1.892,-1.892,-1.892,-1.8827,-1.8788,-1.8224,-1.7914,-1.7779,-1.7302,-1.6937,-1.673,-1.673,-1.673,-1.673,-1.673,-1.673,-1.673,-1.673,-1.673,-1.673,-1.673,-1.673,-2.5895,-2.5895,-2.5895,-2.5895,-2.5895,-2.5895,-2.5895,-2.5895,-2.5895,-2.5895,-2.5895,-2.5895,-2.5895,-2.5895,-2.5895,-2.5895,-2.5895,-2.5895,-2.5895,-2.5895,-2.5895,-2.5863,-2.5546,-2.4912,-2.4246,-2.3766,-2.3252,-2.3023,-2.3012,-2.3001,-2.3001,-2.3001,-2.3001,-2.3001,-2.3001,-2.3001,-2.3001,-2.3001,-2.3001,-2.3001,-2.3001,-2.3001,-2.3001,-2.3001,-2.2927,-2.2927,-2.2852,-2.2703,-2.2531,-2.2232,-2.1924,-2.1553,-2.1435,-2.1322,-2.138,-2.1461,-2.1359,-2.1138,-2.1138,-2.1051,-2.0906,-2.0741,-2.0576,-2.042,-2.0177,-1.9942,-1.9706,-1.946,-1.939,-1.9469,-1.9454,-2.0035,-2.0438,-2.0677,-2.1227,-2.1731,-2.1731,-2.1731,-2.1731,-2.1651,-2.1562,-2.1293,-2.0916,-2.0744,-2.0654,-2.0382,-2.0292,-2.0201,-2.011,-1.9928,-1.9654,-1.9379,-1.9296,-1.9204,-1.9112,-1.9112,-1.9112,-1.8899,-1.8362,-1.7866,-1.7722,-1.7278,-1.6873,-1.673,-1.673,-1.673,-1.673,-1.673,-1.673,-1.673,-1.673,-1.673,-1.673,-1.673,-1.673,-2.5895,-2.5895,-2.5895,-2.5895,-2.5895,-2.5895,-2.5895,-2.5895,-2.5895,-2.5895,-2.5895,-2.5895,-2.5895,-2.5895,-2.5895,-2.5895,-2.5895,-2.5895,-2.5895,-2.5895,-2.5895,-2.5895,-2.5775,-2.5185,-2.4552,-2.4061,-2.3591,-2.3274,-2.3067,-2.3001,-2.3001,-2.3001,-2.3001,-2.3001,-2.3001,-2.3001,-2.3001,-2.3001,-2.3001,-2.3001,-2.3001,-2.3001,-2.3001,-2.3001,-2.3001,-2.3001,-2.3001,-2.2927,-2.2852,-2.2777,-2.2553,-2.2187,-2.1883,-2.1883,-2.1883,-2.1731,-2.1655,-2.1436,-2.1349,-2.1282,-2.1138,-2.1061,-2.0896,-2.0741,-2.0498,-2.0264,-2.0098,-1.9932,-1.9863,-1.9715,-1.9673,-2.0363,-2.0773,-2.0912,-2.142,-2.1882,-2.183,-2.183,-2.1731,-2.1651,-2.166,-2.1472,-2.1293,-2.1015,-2.0744,-2.0555,-2.0382,-2.0292,-2.0201,-2.0019,-2.0019,-1.9837,-1.9671,-1.9496,-1.9396,-1.9396,-1.9396,-1.9084,-1.858,-1.8185,-1.7999,-1.7355,-1.6754,-1.673,-1.673,-1.673,-1.673,-1.673,-1.673,-1.673,-1.673,-1.673,-1.673,-1.673,-1.673,-2.5895,-2.5895,-2.5895,-2.5895,-2.5895,-2.5895,-2.5895,-2.5895,-2.5895,-2.5895,-2.5895,-2.5895,-2.5895,-2.5895,-2.5895,-2.5895,-2.5895,-2.5895,-2.5895,-2.5895,-2.5895,-2.5895,-2.5786,-2.5469,-2.5033,-2.4574,-2.3951,-2.3471,-2.311,-2.3001,-2.3001,-2.3001,-2.3001,-2.3001,-2.3001,-2.3001,-2.3001,-2.3001,-2.3075,-2.3065,-2.3075,-2.3075,-2.315,-2.315,-2.3075,-2.3075,-2.3075,-2.3001,-2.3001,-2.3001,-2.2852,-2.2478,-2.2252,-2.2176,-2.2338,-2.1959,-2.1959,-2.1807,-2.1655,-2.1502,-2.1359,-2.1292,-2.1138,-2.0984,-2.0896,-2.0664,-2.0489,-2.0411,-2.0255,-2.002,-1.9998,-2.0485,-2.1021,-2.1202,-2.172,-2.2054,-2.2087,-2.1919,-2.182,-2.1731,-2.1651,-2.1562,-2.1472,-2.1195,-2.1015,-2.0736,-2.0555,-2.0382,-2.0292,-2.0201,-2.0201,-2.011,-1.9936,-1.9762,-1.9671,-1.9471,-1.9471,-1.9167,-1.8717,-1.8447,-1.8132,-1.7535,-1.6926,-1.6738,-1.673,-1.673,-1.673,-1.673,-1.673,-1.673,-1.673,-1.6738,-1.673,-1.673,-1.6812,-2.5895,-2.5895,-2.5895,-2.5895,-2.5895,-2.5895,-2.5895,-2.5895,-2.5895,-2.5895,-2.5895,-2.5895,-2.5895,-2.5895,-2.5895,-2.5895,-2.5895,-2.5895,-2.5895,-2.5895,-2.5895,-2.5895,-2.5863,-2.5764,-2.5459,-2.4923,-2.4224,-2.3547,-2.3154,-2.3001,-2.3065,-2.3001,-2.3001,-2.3075,-2.3075,-2.3001,-2.3075,-2.3075,-2.315,-2.3224,-2.3298,-2.3372,-2.3446,-2.3446,-2.3298,-2.3298,-2.3224,-2.3075,-2.3001,-2.3001,-2.2916,-2.2852,-2.2703,-2.2553,-2.2553,-2.2628,-2.2402,-2.2176,-2.1959,-2.1949,-2.1731,-2.1502,-2.1359,-2.1282,-2.1128,-2.0974,-2.0731,-2.0644,-2.0566,-2.0333,-1.996,-2.0524,-2.0813,-2.1172,-2.1618,-2.1995,-2.223,-2.2246,-2.2078,-2.182,-2.1741,-2.1651,-2.1562,-2.1383,-2.1195,-2.1006,-2.0826,-2.0555,-2.0464,-2.0464,-2.0464,-2.0374,-2.0292,-2.0027,-1.9936,-1.9729,-1.9596,-1.9239,-1.8787,-1.8432,-1.805,-1.7631,-1.7286,-1.7,-1.6812,-1.6812,-1.673,-1.673,-1.6812,-1.6902,-1.682,-1.682,-1.6902,-1.6984,-1.7057,-2.5895,-2.5895,-2.5895,-2.5895,-2.5895,-2.5895,-2.5895,-2.5895,-2.5895,-2.5895,-2.5895,-2.5895,-2.5895,-2.5895,-2.5895,-2.5895,-2.5895,-2.5895,-2.5895,-2.5895,-2.5895,-2.5895,-2.5895,-2.5895,-2.5683,-2.526,-2.4579,-2.3919,-2.3394,-2.326,-2.3161,-2.3139,-2.3224,-2.3298,-2.3298,-2.3372,-2.3298,-2.3298,-2.3372,-2.3457,-2.3457,-2.3593,-2.3593,-2.3604,-2.353,-2.3457,-2.3446,-2.3372,-2.3224,-2.3161,-2.315,-2.3075,-2.3001,-2.2852,-2.2767,-2.2927,-2.2703,-2.2478,-2.2338,-2.2252,-2.2101,-2.1873,-2.1731,-2.1578,-2.1359,-2.1205,-2.1051,-2.0886,-2.0644,-2.0566,-2.043,-2.0729,-2.0966,-2.1245,-2.1662,-2.2017,-2.2284,-2.2387,-2.2208,-2.2069,-2.1998,-2.183,-2.1562,-2.1472,-2.1383,-2.1195,-2.1096,-2.0916,-2.0645,-2.0736,-2.0736,-2.0645,-2.0555,-2.0382,-2.0167,-1.9918,-1.9709,-1.9365,-1.8916,-1.8556,-1.8146,-1.7771,-1.7449,-1.7237,-1.7066,-1.7066,-1.6984,-1.7066,-1.7066,-1.7066,-1.7147,-1.7147,-1.7229,-1.731,-1.731,-2.5895,-2.5895,-2.5895,-2.5895,-2.5895,-2.5895,-2.5895,-2.5895,-2.5895,-2.5895,-2.5895,-2.5895,-2.5895,-2.5895,-2.5895,-2.5895,-2.5895,-2.5895,-2.5895,-2.5906,-2.599,-2.599,-2.5979,-2.6019,-2.5948,-2.5791,-2.5236,-2.4514,-2.3896,-2.353,-2.3405,-2.3372,-2.3519,-2.3593,-2.3593,-2.3519,-2.3593,-2.3593,-2.3677,-2.3677,-2.374,-2.3751,-2.3751,-2.3677,-2.3666,-2.3677,-2.3666,-2.3593,-2.353,-2.3383,-2.3298,-2.3235,-2.3075,-2.3001,-2.3001,-2.3001,-2.2852,-2.2703,-2.2553,-2.2478,-2.2327,-2.2176,-2.2025,-2.1807,-2.1655,-2.1502,-2.1282,-2.1205,-2.1118,-2.0876,-2.0936,-2.1125,-2.1273,-2.1438,-2.1826,-2.2155,-2.2388,-2.2428,-2.2553,-2.2356,-2.2325,-2.2185,-2.1919,-2.175,-2.1651,-2.1562,-2.1463,-2.1365,-2.1096,-2.1006,-2.1006,-2.0916,-2.0826,-2.0736,-2.0584,-2.0248,-1.9961,-1.9626,-1.917,-1.8625,-1.8262,-1.7885,-1.7711,-1.7554,-1.7554,-1.7473,-1.7473,-1.7318,-1.731,-1.731,-1.7392,-1.7473,-1.7465,-1.7465,-1.7546,-2.5895,-2.5895,-2.5895,-2.5895,-2.5895,-2.5895,-2.5895,-2.5895,-2.5895,-2.5895,-2.5895,-2.5895,-2.5895,-2.5895,-2.5895,-2.5895,-2.5906,-2.5906,-2.599,-2.599,-2.6157,-2.6157,-2.624,-2.6385,-2.6434,-2.627,-2.5809,-2.5127,-2.4424,-2.3918,-2.3615,-2.3604,-2.3593,-2.3593,-2.3666,-2.3666,-2.3593,-2.3666,-2.3824,-2.397,-2.4043,-2.4127,-2.4127,-2.4043,-2.397,-2.3897,-2.3824,-2.3751,-2.3593,-2.3604,-2.3383,-2.3224,-2.3075,-2.3001,-2.3001,-2.299,-2.2916,-2.2852,-2.2703,-2.2703,-2.2542,-2.2402,-2.2327,-2.2252,-2.2025,-2.1807,-2.1578,-2.1205,-2.1425,-2.1425,-2.1205,-2.1198,-2.1419,-2.156,-2.178,-2.2132,-2.2488,-2.2673,-2.2716,-2.2814,-2.2698,-2.258,-2.2441,-2.2185,-2.2017,-2.1928,-2.183,-2.1731,-2.1642,-2.1553,-2.1374,-2.1275,-2.1069,-2.097,-2.0704,-2.0474,-2.0062,-1.9738,-1.9329,-1.8797,-1.8447,-1.8143,-1.81,-1.7951,-1.7959,-1.7878,-1.7797,-1.7725,-1.7563,-1.7554,-1.7554,-1.7627,-1.7619,-1.77,-1.7708,-2.5979,-2.5895,-2.5895,-2.5895,-2.5895,-2.5895,-2.5895,-2.5895,-2.5895,-2.5895,-2.5895,-2.5895,-2.5895,-2.5895,-2.5895,-2.5979,-2.6074,-2.6074,-2.6157,-2.6229,-2.6407,-2.6396,-2.6479,-2.655,-2.6644,-2.6603,-2.6208,-2.5701,-2.5077,-2.4491,-2.4141,-2.3762,-2.3897,-2.3959,-2.3897,-2.3897,-2.397,-2.397,-2.4055,-2.4116,-2.4189,-2.4189,-2.42,-2.4189,-2.4127,-2.4043,-2.4043,-2.397,-2.3897,-2.3824,-2.3677,-2.3446,-2.315,-2.3075,-2.315,-2.3001,-2.3001,-2.2927,-2.2927,-2.2852,-2.2777,-2.2628,-2.2553,-2.2478,-2.2252,-2.1959,-2.1807,-2.1731,-2.1731,-2.1655,-2.1425,-2.1292,-2.1306,-2.1467,-2.1767,-2.19,-2.2319,-2.2828,-2.3053,-2.3061,-2.3065,-2.296,-2.2843,-2.2618,-2.2362,-2.2176,-2.2176,-2.2087,-2.2087,-2.2185,-2.1998,-2.1731,-2.1507,-2.1284,-2.0846,-2.0526,-2.0022,-1.9702,-1.9433,-1.8997,-1.8716,-1.846,-1.8362,-1.8362,-1.8371,-1.829,-1.8129,-1.804,-1.7878,-1.7797,-1.7797,-1.787,-1.7942,-1.7861,-1.7951,-2.6229,-2.6063,-2.6063,-2.6063,-2.6063,-2.6063,-2.6063,-2.6063,-2.6074,-2.6063,-2.6063,-2.6063,-2.6063,-2.6074,-2.6157,-2.6229,-2.6313,-2.6324,-2.6407,-2.6561,-2.6644,-2.6644,-2.6727,-2.6727,-2.6891,-2.6974,-2.6666,-2.6246,-2.5911,-2.5371,-2.4671,-2.4016,-2.4055,-2.4189,-2.4273,-2.4273,-2.4273,-2.4345,-2.4345,-2.4345,-2.4357,-2.4345,-2.4345,-2.4345,-2.4345,-2.4273,-2.4261,-2.4189,-2.4116,-2.397,-2.3897,-2.3677,-2.3446,-2.3298,-2.3224,-2.3075,-2.3001,-2.3001,-2.3001,-2.3001,-2.2927,-2.2777,-2.2703,-2.2628,-2.2478,-2.2176,-2.1959,-2.2101,-2.2025,-2.1873,-2.1731,-2.1589,-2.1543,-2.1645,-2.172,-2.1825,-2.1979,-2.2504,-2.2965,-2.3138,-2.3242,-2.3421,-2.3231,-2.3028,-2.2794,-2.252,-2.2432,-2.2344,-2.2441,-2.2539,-2.2334,-2.2059,-2.1793,-2.1487,-2.12,-2.0698,-2.0102,-1.9594,-1.9406,-1.9137,-1.887,-1.87,-1.8531,-1.8612,-1.8772,-1.8612,-1.8451,-1.829,-1.8201,-1.8201,-1.821,-1.8201,-1.8201,-1.8201,-1.8201,-2.6561,-2.6561,-2.655,-2.6561,-2.6561,-2.6561,-2.6561,-2.6479,-2.6561,-2.6479,-2.6479,-2.6561,-2.6479,-2.6561,-2.6479,-2.6479,-2.6561,-2.6573,-2.6644,-2.6727,-2.6809,-2.6891,-2.6891,-2.7056,-2.7138,-2.7219,-2.707,-2.6967,-2.6607,-2.5993,-2.5211,-2.4338,-2.4319,-2.4357,-2.4418,-2.4502,-2.4574,-2.4646,-2.4646,-2.4718,-2.4729,-2.4718,-2.4718,-2.4718,-2.4574,-2.4502,-2.449,-2.4345,-2.42,-2.4189,-2.4055,-2.397,-2.3824,-2.3604,-2.3298,-2.3065,-2.3001,-2.3001,-2.3001,-2.3001,-2.3001,-2.2927,-2.2852,-2.2703,-2.2628,-2.2478,-2.2402,-2.2392,-2.2317,-2.2327,-2.2252,-2.2176,-2.1959,-2.1925,-2.1963,-2.1999,-2.2039,-2.2176,-2.2656,-2.3059,-2.3267,-2.3388,-2.3503,-2.3285,-2.3183,-2.2931,-2.2872,-2.2784,-2.2696,-2.2784,-2.257,-2.2287,-2.1971,-2.1766,-2.1541,-2.0978,-2.017,-1.9751,-1.9488,-1.9272,-1.9038,-1.8931,-1.8772,-1.8772,-1.8931,-1.8772,-1.878,-1.8683,-1.8603,-1.8612,-1.862,-1.8451,-1.8451,-1.8451,-1.8531,-2.6809,-2.6809,-2.7044,-2.6951,-2.6644,-2.6644,-2.6644,-2.6644,-2.6644,-2.6644,-2.6644,-2.6644,-2.6644,-2.6644,-2.6644,-2.6644,-2.6809,-2.6798,-2.6891,-2.6974,-2.7056,-2.7056,-2.7149,-2.7301,-2.7371,-2.7452,-2.7534,-2.737,-2.698,-2.6422,-2.5838,-2.5156,-2.4748,-2.4597,-2.4646,-2.4718,-2.4718,-2.479,-2.4801,-2.4801,-2.4801,-2.4801,-2.4801,-2.4801,-2.4718,-2.4646,-2.4646,-2.449,-2.4418,-2.4345,-2.42,-2.4127,-2.4127,-2.3751,-2.3383,-2.3075,-2.3001,-2.3001,-2.3001,-2.3001,-2.3001,-2.3001,-2.2927,-2.2852,-2.2852,-2.2777,-2.2703,-2.2692,-2.2692,-2.2628,-2.2402,-2.2327,-2.2252,-2.2262,-2.2229,-2.2248,-2.222,-2.234,-2.2532,-2.297,-2.3104,-2.3112,-2.3271,-2.3408,-2.3438,-2.3424,-2.328,-2.3212,-2.3125,-2.296,-2.2795,-2.2534,-2.2282,-2.1721,-2.1473,-2.0752,-2.0106,-1.9878,-1.9669,-1.9454,-1.9311,-1.9222,-1.9063,-1.9073,-1.9082,-1.9082,-1.9082,-1.9073,-1.9002,-1.8851,-1.878,-1.87,-1.8709,-1.878,-1.886,-2.7219,-2.7219,-2.7452,-2.7371,-2.688,-2.6974,-2.6974,-2.6974,-2.6962,-2.6798,-2.6809,-2.6809,-2.6809,-2.6809,-2.6809,-2.6891,-2.6974,-2.6974,-2.7149,-2.7219,-2.7301,-2.7301,-2.7383,-2.7545,-2.7615,-2.7696,-2.7765,-2.7634,-2.7498,-2.6712,-2.6316,-2.5843,-2.536,-2.4992,-2.4849,-2.4921,-2.4921,-2.4921,-2.4921,-2.4921,-2.4992,-2.4992,-2.4992,-2.4992,-2.4921,-2.4861,-2.4778,-2.4634,-2.4502,-2.4418,-2.4345,-2.42,-2.4116,-2.3897,-2.3604,-2.3309,-2.3075,-2.3001,-2.3001,-2.3001,-2.3001,-2.3001,-2.3001,-2.3001,-2.3001,-2.3001,-2.2852,-2.2841,-2.2927,-2.2852,-2.2553,-2.2553,-2.2478,-2.2478,-2.2327,-2.2326,-2.2368,-2.245,-2.2671,-2.294,-2.2953,-2.3143,-2.3454,-2.3649,-2.3649,-2.368,-2.356,-2.356,-2.3531,-2.3325,-2.3117,-2.2847,-2.2502,-2.1874,-2.1273,-2.0738,-2.0371,-2.0205,-1.9998,-1.9743,-1.9627,-1.946,-1.9381,-1.9311,-1.932,-1.939,-1.9311,-1.932,-1.9161,-1.9011,-1.8931,-1.8931,-1.8931,-1.9011,-1.9091,-2.7881,-2.7881,-2.7893,-2.7788,-2.7522,-2.78,-2.78,-2.7719,-2.7534,-2.7371,-2.7231,-2.7231,-2.7231,-2.7219,-2.7231,-2.7231,-2.7219,-2.7231,-2.7301,-2.7452,-2.7534,-2.7626,-2.78,-2.7881,-2.7869,-2.7881,-2.795,-2.8075,-2.806,-2.7073,-2.6709,-2.6402,-2.5732,-2.5182,-2.5111,-2.5241,-2.5312,-2.5229,-2.5229,-2.5241,-2.5253,-2.5241,-2.5182,-2.5182,-2.5123,-2.5052,-2.4981,-2.4706,-2.4574,-2.4562,-2.4345,-2.4189,-2.4189,-2.3982,-2.3677,-2.3361,-2.315,-2.3001,-2.3001,-2.3001,-2.3001,-2.3001,-2.3001,-2.3001,-2.3001,-2.3001,-2.3001,-2.2927,-2.3001,-2.3001,-2.2927,-2.2852,-2.2703,-2.2703,-2.2553,-2.2563,-2.2542,-2.2488,-2.2722,-2.2772,-2.2953,-2.3228,-2.3625,-2.3895,-2.3887,-2.391,-2.3856,-2.38,-2.3796,-2.3624,-2.3372,-2.2842,-2.2526,-2.2056,-2.1421,-2.0918,-2.0576,-2.0489,-2.0255,-2.0098,-1.9863,-1.9627,-1.9548,-1.9557,-1.9557,-1.9548,-1.9557,-1.9566,-1.9478,-1.932,-1.9311,-1.9311,-1.9311,-1.9311,-1.9399,-2.8283,-2.8351,-2.8419,-2.8407,-2.8327,-2.803,-2.7881,-2.7881,-2.7788,-2.7708,-2.7719,-2.7638,-2.7638,-2.765,-2.765,-2.7638,-2.7638,-2.7638,-2.7719,-2.7788,-2.7788,-2.78,-2.7881,-2.8042,-2.8111,-2.8111,-2.8191,-2.8271,-2.8383,-2.7287,-2.6868,-2.6596,-2.5865,-2.5372,-2.5229,-2.5312,-2.5312,-2.5312,-2.5312,-2.5312,-2.5312,-2.5312,-2.5312,-2.5312,-2.5253,-2.5253,-2.5182,-2.4849,-2.4718,-2.4646,-2.4418,-2.4189,-2.4189,-2.4055,-2.3824,-2.3508,-2.315,-2.3001,-2.3001,-2.3001,-2.3001,-2.3001,-2.3001,-2.3001,-2.3001,-2.3001,-2.3001,-2.3001,-2.3001,-2.3001,-2.3001,-2.2927,-2.2927,-2.2927,-2.2852,-2.2852,-2.2874,-2.2724,-2.2746,-2.2692,-2.2821,-2.3033,-2.336,-2.3764,-2.3853,-2.3961,-2.399,-2.3873,-2.3895,-2.3772,-2.3473,-2.2829,-2.2332,-2.1979,-2.1577,-2.1161,-2.0964,-2.0819,-2.0576,-2.042,-2.0098,-1.9942,-1.9784,-1.9784,-1.9784,-1.9706,-1.9794,-1.9794,-1.9784,-1.9706,-1.9784,-1.9706,-1.9627,-1.9627,-1.9706,-2.8749,-2.8736,-2.8882,-2.8882,-2.8803,-2.851,-2.8283,-2.8122,-2.8111,-2.8042,-2.7881,-2.7881,-2.7881,-2.7881,-2.7881,-2.7881,-2.7881,-2.7881,-2.7962,-2.7962,-2.803,-2.803,-2.8111,-2.8271,-2.8259,-2.8339,-2.8431,-2.851,-2.845,-2.7452,-2.6743,-2.619,-2.5685,-2.5384,-2.5312,-2.5312,-2.5312,-2.5312,-2.5312,-2.5312,-2.5312,-2.5312,-2.5312,-2.5312,-2.5312,-2.5312,-2.5182,-2.5064,-2.4801,-2.4718,-2.4502,-2.42,-2.4189,-2.4116,-2.397,-2.3519,-2.3224,-2.3075,-2.3001,-2.3001,-2.3001,-2.3001,-2.3001,-2.3001,-2.3001,-2.3001,-2.3001,-2.3001,-2.3001,-2.3001,-2.3001,-2.3001,-2.3001,-2.3001,-2.3001,-2.3001,-2.2927,-2.2852,-2.2777,-2.2713,-2.2746,-2.2939,-2.3131,-2.3374,-2.369,-2.3858,-2.4072,-2.4,-2.3897,-2.3679,-2.3512,-2.2932,-2.2329,-2.2035,-2.1716,-2.1497,-2.1262,-2.1138,-2.0896,-2.0731,-2.0576,-2.0333,-2.0177,-2.0098,-2.0098,-2.0098,-2.0098,-2.0098,-2.0098,-2.0177,-2.0264,-2.0108,-1.9951,-1.9951,-2.0029,-2.9131,-2.9131,-2.9131,-2.9209,-2.9131,-2.9131,-2.8895,-2.851,-2.851,-2.8271,-2.7962,-2.8042,-2.803,-2.7962,-2.7962,-2.7962,-2.7962,-2.7962,-2.8111,-2.8191,-2.8179,-2.8339,-2.8351,-2.8431,-2.8419,-2.851,-2.851,-2.8498,-2.8402,-2.7452,-2.6454,-2.5661,-2.542,-2.5312,-2.5312,-2.5312,-2.5312,-2.5312,-2.5312,-2.5312,-2.5312,-2.5312,-2.5312,-2.5312,-2.5312,-2.5312,-2.5182,-2.4992,-2.4861,-2.4646,-2.4418,-2.4273,-2.4189,-2.4189,-2.397,-2.3593,-2.315,-2.3075,-2.3001,-2.3001,-2.3001,-2.3001,-2.3001,-2.3001,-2.3001,-2.3001,-2.3001,-2.3001,-2.3001,-2.3001,-2.3001,-2.3001,-2.3001,-2.3001,-2.3001,-2.3001,-2.3001,-2.3001,-2.3001,-2.2927,-2.2927,-2.3037,-2.3286,-2.3502,-2.3533,-2.3584,-2.3662,-2.3673,-2.3583,-2.3393,-2.3224,-2.2924,-2.2457,-2.2064,-2.1873,-2.1711,-2.1568,-2.1436,-2.1282,-2.1041,-2.0886,-2.0731,-2.0489,-2.0411,-2.0566,-2.0566,-2.0498,-2.0566,-2.0566,-2.0644,-2.0664,-2.0498,-2.0342,-2.0264,-2.0342,-3.0062,-3.005,-3.0062,-3.0062,-3.005,-2.9985,-2.9586,-2.8973,-2.8907,-2.8828,-2.8736,-2.8566,-2.8498,-2.8578,-2.8431,-2.8363,-2.8283,-2.8351,-2.8351,-2.8419,-2.8339,-2.8431,-2.851,-2.851,-2.851,-2.851,-2.851,-2.8498,-2.8282,-2.7452,-2.6382,-2.5492,-2.5324,-2.5312,-2.5312,-2.5312,-2.5312,-2.5312,-2.5312,-2.5312,-2.5312,-2.5312,-2.5312,-2.5312,-2.5312,-2.5312,-2.5253,-2.4992,-2.4861,-2.4729,-2.4429,-2.42,-2.4189,-2.42,-2.397,-2.3224,-2.3075,-2.3001,-2.3001,-2.3001,-2.3001,-2.3001,-2.3001,-2.3001,-2.3001,-2.3001,-2.3001,-2.3001,-2.3001,-2.3001,-2.3001,-2.3001,-2.3001,-2.3001,-2.3001,-2.3001,-2.3001,-2.3001,-2.3001,-2.3001,-2.3001,-2.3045,-2.3231,-2.3242,-2.3243,-2.3275,-2.3319,-2.3297,-2.3274,-2.3131,-2.3011,-2.283,-2.2637,-2.2283,-2.2176,-2.209,-2.1873,-2.1731,-2.1578,-2.1349,-2.1118,-2.0964,-2.0809,-2.0809,-2.0886,-2.0964,-2.0974,-2.0964,-2.0886,-2.0964,-2.1061,-2.0896,-2.0741,-2.0654,-2.0654,-3.0368,-3.0368,-3.0368,-3.0368,-3.0368,-3.0368,-3.0062,-2.9599,-2.9456,-2.93,-2.9131,-2.8961,-2.8882,-2.8895,-2.8736,-2.8578,-2.8566,-2.851,-2.851,-2.851,-2.851,-2.851,-2.851,-2.851,-2.851,-2.851,-2.851,-2.851,-2.8198,-2.7428,-2.6382,-2.5408,-2.5312,-2.5312,-2.5312,-2.5312,-2.5312,-2.5312,-2.5312,-2.5312,-2.5312,-2.5312,-2.5312,-2.5312,-2.5312,-2.5312,-2.5241,-2.4992,-2.4873,-2.4718,-2.4429,-2.42,-2.4116,-2.4043,-2.3751,-2.315,-2.3001,-2.3001,-2.3001,-2.3001,-2.3001,-2.3001,-2.3001,-2.3001,-2.3001,-2.3001,-2.3001,-2.3001,-2.3001,-2.3001,-2.3001,-2.3001,-2.3001,-2.3001,-2.3001,-2.3001,-2.3001,-2.3001,-2.3001,-2.3001,-2.3001,-2.3001,-2.3023,-2.3001,-2.3012,-2.3121,-2.3101,-2.3123,-2.3091,-2.3059,-2.3026,-2.2843,-2.2714,-2.2488,-2.2402,-2.2327,-2.2176,-2.1959,-2.1883,-2.1655,-2.1349,-2.1272,-2.1272,-2.1272,-2.1282,-2.1282,-2.1205,-2.1215,-2.1128,-2.1292,-2.1359,-2.1282,-2.1128,-2.1051,-2.1051,-3.052,-3.052,-3.052,-3.052,-3.052,-3.0508,-3.0444,-3.0444,-3.0011,-2.9624,-2.9287,-2.9209,-2.9131,-2.9131,-2.8882,-2.8803,-2.8803,-2.8736,-2.8669,-2.859,-2.859,-2.8578,-2.859,-2.851,-2.851,-2.851,-2.8462,-2.8366,-2.8029,-2.7236,-2.6226,-2.536,-2.5312,-2.5312,-2.5312,-2.5312,-2.5312,-2.5312,-2.5312,-2.5312,-2.5312,-2.5312,-2.5312,-2.5312,-2.5312,-2.5312,-2.5241,-2.5052,-2.4801,-2.4646,-2.449,-2.4273,-2.4116,-2.3897,-2.3519,-2.3224,-2.3075,-2.3075,-2.3001,-2.3001,-2.3001,-2.3001,-2.3001,-2.3001,-2.3001,-2.3001,-2.3001,-2.3001,-2.3001,-2.3001,-2.3001,-2.3001,-2.3001,-2.3001,-2.3001,-2.3001,-2.3001,-2.3001,-2.3001,-2.3001,-2.3001,-2.3001,-2.3001,-2.3001,-2.3001,-2.3001,-2.3001,-2.3001,-2.3012,-2.2992,-2.297,-2.2938,-2.2863,-2.2703,-2.2703,-2.2553,-2.2402,-2.2252,-2.2101,-2.2025,-2.1797,-2.1731,-2.1807,-2.1655,-2.1512,-2.1436,-2.1359,-2.1436,-2.1512,-2.1589,-2.1655,-2.1578,-2.1502,-2.1436,-2.1425,-3.1299,-3.1286,-3.1286,-3.1299,-3.1299,-3.1123,-3.0973,-3.0836,-3.0609,-3.0241,-2.9844,-2.9689,-2.9534,-2.9353,-2.9131,-2.9052,-2.8961,-2.8973,-2.8973,-2.8895,-2.8803,-2.8736,-2.8736,-2.859,-2.859,-2.851,-2.8414,-2.8077,-2.744,-2.6695,-2.6045,-2.5396,-2.5312,-2.5312,-2.5312,-2.5312,-2.5312,-2.5312,-2.5312,-2.5312,-2.5312,-2.5312,-2.5312,-2.5312,-2.5312,-2.5312,-2.5241,-2.5111,-2.4921,-2.4778,-2.4574,-2.4345,-2.4189,-2.397,-2.3519,-2.315,-2.315,-2.315,-2.3075,-2.3075,-2.3001,-2.3001,-2.3001,-2.3001,-2.3001,-2.3001,-2.3001,-2.3001,-2.3001,-2.3001,-2.3001,-2.3001,-2.3001,-2.3001,-2.3001,-2.3001,-2.3001,-2.3001,-2.3001,-2.3001,-2.3001,-2.3001,-2.3001,-2.3001,-2.3001,-2.3001,-2.3001,-2.3001,-2.3001,-2.3023,-2.3034,-2.3001,-2.3001,-2.2927,-2.2852,-2.2777,-2.2628,-2.2478,-2.2402,-2.2252,-2.2176,-2.2101,-2.2035,-2.1883,-2.1807,-2.1731,-2.1807,-2.2035,-2.2111,-2.1959,-2.1959,-2.1949,-2.2025,-2.2025,-2.1949,-3.1609,-3.1609,-3.1609,-3.1609,-3.1609,-3.1522,-3.136,-3.1211,-3.1061,-3.0761,-3.0457,-3.0228,-2.9908,-2.9664,-2.9534,-2.9287,-2.9287,-2.9143,-2.9064,-2.9052,-2.904,-2.8961,-2.8882,-2.8816,-2.8828,-2.8724,-2.8421,-2.7924,-2.7097,-2.6541,-2.6033,-2.5408,-2.5312,-2.5312,-2.5312,-2.5312,-2.5312,-2.5312,-2.5312,-2.5312,-2.5312,-2.5312,-2.5312,-2.5312,-2.5312,-2.5312,-2.5241,-2.5182,-2.4981,-2.4778,-2.4502,-2.4357,-2.42,-2.397,-2.3824,-2.3604,-2.353,-2.3372,-2.3224,-2.315,-2.3075,-2.3075,-2.3001,-2.3001,-2.3001,-2.3001,-2.3001,-2.3001,-2.3001,-2.3001,-2.3001,-2.3001,-2.3001,-2.3001,-2.3001,-2.3001,-2.3001,-2.3001,-2.3001,-2.3001,-2.3001,-2.3001,-2.3001,-2.3001,-2.3001,-2.3001,-2.3001,-2.3001,-2.3001,-2.3001,-2.3001,-2.3001,-2.3001,-2.3001,-2.2927,-2.2927,-2.2788,-2.2713,-2.2639,-2.2478,-2.2327,-2.2252,-2.2187,-2.2187,-2.2176,-2.2176,-2.2252,-2.2402,-2.2402,-2.2252,-2.2252,-2.2327,-2.2402,-2.2478,-2.2402,-3.1469,-3.1563,-3.1643,-3.1669,-3.1669,-3.1683,-3.1609,-3.1609,-3.1434,-3.1198,-3.0986,-3.0672,-3.0368,-3.0152,-2.9921,-2.9754,-2.9509,-2.9443,-2.9365,-2.9221,-2.9209,-2.9118,-2.9118,-2.9052,-2.9064,-2.8807,-2.8439,-2.7922,-2.7198,-2.6566,-2.5911,-2.5455,-2.5312,-2.5312,-2.53,-2.53,-2.5312,-2.5312,-2.5312,-2.5312,-2.5312,-2.5312,-2.5312,-2.5312,-2.5312,-2.5312,-2.5241,-2.5182,-2.5052,-2.4778,-2.449,-2.4345,-2.42,-2.4055,-2.4116,-2.397,-2.3751,-2.3593,-2.3372,-2.3383,-2.3224,-2.3139,-2.3075,-2.3001,-2.3075,-2.3001,-2.3001,-2.3001,-2.3001,-2.3001,-2.3001,-2.3001,-2.3001,-2.3001,-2.3001,-2.3001,-2.3001,-2.3001,-2.3001,-2.3001,-2.3001,-2.3001,-2.3001,-2.3001,-2.3001,-2.3001,-2.3001,-2.3001,-2.3001,-2.3001,-2.3001,-2.3001,-2.3001,-2.3001,-2.3001,-2.3001,-2.2927,-2.2852,-2.2777,-2.2628,-2.2553,-2.2478,-2.2478,-2.2478,-2.2478,-2.2478,-2.2478,-2.2553,-2.2478,-2.2467,-2.2542,-2.2617,-2.2628,-2.2628,-2.2628,-3.0902,-3.1433,-3.1893,-3.2096,-3.2009,-3.1863,-3.1817,-3.1817,-3.1569,-3.1447,-3.1246,-3.111,-3.0898,-3.0368,-3.0292,-3.0139,-2.9908,-2.9831,-2.9767,-2.9702,-2.9509,-2.9419,-2.9353,-2.9365,-2.9143,-2.8774,-2.8309,-2.7606,-2.7164,-2.6441,-2.5963,-2.577,-2.5606,-2.5535,-2.5535,-2.5465,-2.5312,-2.5312,-2.5312,-2.5312,-2.5312,-2.5312,-2.5312,-2.5312,-2.5312,-2.5312,-2.5312,-2.53,-2.5182,-2.4981,-2.4622,-2.4418,-2.4273,-2.42,-2.42,-2.4116,-2.397,-2.374,-2.3593,-2.353,-2.3446,-2.3298,-2.3224,-2.315,-2.315,-2.3001,-2.3001,-2.3001,-2.3001,-2.3001,-2.3001,-2.3001,-2.3001,-2.3001,-2.3001,-2.3001,-2.3001,-2.3001,-2.3001,-2.3001,-2.3001,-2.3001,-2.3001,-2.3001,-2.3001,-2.3001,-2.3001,-2.3001,-2.3001,-2.3001,-2.3001,-2.3001,-2.3001,-2.3001,-2.3001,-2.3001,-2.2927,-2.2927,-2.2927,-2.2852,-2.2777,-2.2703,-2.2703,-2.2703,-2.2703,-2.2628,-2.2703,-2.2703,-2.2777,-2.2777,-2.2841,-2.2916,-2.2852,-2.2852,-2.2852]},{"header":{"parameterUnit":"m.s-1","parameterCategory":1,"la1":31.0,"la2":29.5877,"lo1":-88.7671,"lo2":-86.6584,"dy":0.0162,"dx":0.0185,"nx":115,"ny":88,"refTime":"2024-08-10T06:00:00:Z","depth":0,"parameterNumber":3,"parameterNumberName":"V-component_of_WINDS"},"data":[0.0,0.0,0.0,0.0,0.0,0.0,0.0,0.0,0.0,0.0,0.0,0.0,0.0,0.0,0.0,0.0,0.0,0.0,0.0,0.0,0.0,0.0,0.0,0.0,0.0,0.0,0.0,0.0,0.0,0.0,0.0,0.0,0.0,0.0,0.0,0.0,0.0,0.0,0.0,0.0,0.0,0.0,0.0,0.0,0.0,0.0,0.0,0.0,0.0,0.0,0.0,0.0,0.0,0.0,0.0,0.0,0.0,0.0,0.0,0.0,0.0,0.0,0.0,0.0,0.0,0.0,0.0,0.0,0.0,0.0,0.0,0.0,0.0,0.0,0.0,0.0,0.0,0.0,0.0,0.0,0.0,0.0,0.0,0.0,0.0,0.0,0.0,0.0,0.0,0.0,0.0,0.0,0.0,0.0,0.0,0.0,0.0,0.0,0.0,0.0,0.0,0.0,0.0,0.0,0.0,0.0,0.0,0.0,0.0,0.0,0.0,0.0,0.0,0.0,0.0,0.0,0.0,0.0,0.0,0.0,0.0,0.0,0.0,0.0,0.0,0.0,0.0,0.0,0.0,0.0,0.0,0.0,0.0,0.0,0.0,0.0,0.0,0.0,0.0,0.0,0.0,0.0,0.0,0.0,0.0,0.0,0.0,0.0,0.0,0.0,0.0,0.0,0.0,0.0,0.0,0.0,0.0,0.0,0.0,0.0,0.0,0.0,0.0,0.0,0.0,0.0,0.0,0.0,0.0,0.0,0.0,0.0,0.0,0.0,0.0,0.0,0.0,0.0,0.0,0.0,0.0,0.0,0.0,0.0,0.0,0.0,0.0,0.0,0.0,0.0,0.0,0.0,0.0,0.0,0.0,0.0,0.0,0.0,0.0,0.0,0.0,0.0,0.0,0.0,0.0,0.0,0.0,0.0,0.0,0.0,0.0,0.0,0.0,0.0,0.0,0.0,0.0,0.0,0.0,0.0,0.0,0.0,0.0,0.0,0.0,0.0,0.0,0.0,0.0,0.0,0.0,0.0,0.0,0.0,0.0,0.0,0.0,0.0,0.0,0.0,0.0,0.0,0.0,0.0,0.0,0.0,0.0,0.0,0.0,0.0,0.0,0.0,0.0,0.0,0.0,0.0,0.0,0.0,0.0,0.0,0.0,0.0,0.0,0.0,0.0,0.0,0.0,0.0,0.0,0.0,0.0,0.0,0.0,0.0,0.0,0.0,0.0,0.0,0.0,0.0,0.0,0.0,0.0,0.0,0.0,0.0,0.0,0.0,0.0,0.0,0.0,0.0,0.0,0.0,0.0,0.0,0.0,0.0,0.0,0.0,0.0,0.0,0.0,0.0,0.0,0.0,0.0,0.0,0.0,0.0,0.0,0.0,0.0,0.0,0.0,0.0,0.0,0.0,0.0,0.0,0.0,0.0,0.0,0.0,0.0,0.0,0.0,0.0,0.0,0.0,0.0,0.0,0.0,0.0,0.0,0.0,0.0,0.0,0.0,0.0,0.0,0.0,0.0,0.0,0.0,0.0,0.0,0.0,0.0,0.0,0.0,0.0,0.0,0.0,0.0,0.0,0.0,0.0,0.0,0.0,0.0,0.0,0.0,0.0,0.0,0.0,0.0,0.0,0.0,0.0,0.0,0.0,0.0,0.0,0.0,0.0,0.0,0.0,0.0,0.0,0.0,0.0,0.0,0.0,0.0,0.0,0.0,0.0,0.0,0.0,0.0,0.0,0.0,0.0,0.0,0.0,0.0,0.0,0.0,0.0,0.0,0.0,0.0,0.0,0.0,0.0,0.0,0.0,0.0,0.0,0.0,0.0,0.0,0.0,0.0,0.0,0.0,0.0,0.0,0.0,0.0,0.0,0.0,0.0,0.0,0.0,0.0,0.0,0.0,0.0,0.0,0.0,0.0,0.0,0.0,0.0,0.0,0.0,0.0,0.0,0.0,0.0,0.0,0.0,0.0,0.0,0.0,0.0,0.0,0.0,0.0,0.0,0.0,0.0,0.0,0.0,0.0,0.0,0.0,0.0,0.0,0.0,0.0,0.0,0.0,0.0,0.0,0.0,0.0,0.0,0.0,0.0,0.0,0.0,0.0,0.0,0.0,0.0,0.0,0.0,0.0,0.0,0.0,0.0,0.0,0.0,0.0,0.0,0.0,0.0,0.0,0.0,0.0,0.0,0.0,0.0,0.0,0.0,0.0,0.0,0.0,0.0,0.0,0.0,0.0,0.0,0.0,0.0,0.0,0.0,0.0,0.0,0.0,0.0,0.0,0.0,0.0,0.0,0.0,0.0,0.0,0.0,0.0,0.0,0.0,0.0,0.0,0.0,0.0,0.0,0.0,0.0,0.0,0.0,0.0,0.0,0.0,0.0,0.0,0.0,0.0,0.0,0.0,0.0,0.0,0.0,0.0,0.0,0.0,0.0,0.0,0.0,0.0,0.0,0.0,0.0,0.0,0.0,0.0,0.0,0.0,0.0,0.0,0.0,0.0,0.0,0.0,0.0,0.0,0.0,0.0,0.0,0.0,0.0,0.0,0.0,0.0,0.0,0.0,0.0,0.0,0.0,0.0,0.0,0.0,0.0,0.0,0.0,0.0,0.0,0.0,0.0,0.0,0.0,0.0,0.0,0.0,0.0,0.0,0.0,0.0,0.0,0.0,0.0,0.0,0.0,0.0,0.0,0.0,0.0,0.0,0.0,0.0,0.0,0.0,0.0,0.0,0.0,0.0,0.0,0.0,0.0,0.0,0.0,0.0,0.0,0.0,0.0,0.0,0.0,0.0,0.0,0.0,0.0,0.0,0.0,0.0,0.0,0.0,0.0,0.0,0.0,0.0,0.0,0.0,0.0,0.0,0.0,0.0,0.0,0.0,0.0,0.0,0.0,0.0,0.0,0.0,0.0,0.0,0.0,0.0,0.0,0.0,0.0,0.0,0.0,0.0,0.0,0.0,0.0,0.0,0.0,0.0,0.0,0.0,0.0,0.0,0.0,0.0,0.0,0.0,0.0,0.0,0.0,0.0,0.0,0.0,0.0,0.0,0.0,0.0,0.0,0.0,0.0,0.0,0.0,0.0,0.0,0.0,0.0,0.0,0.0,0.0,0.0,0.0,0.0,0.0,0.0,0.0,0.0,0.0,0.0,0.0,0.0,0.0,0.0,0.0,0.0,0.0,0.0,0.0,0.0,0.0,0.0,0.0,0.0,0.0,0.0,0.0,0.0,0.0,0.0,0.0,0.0,0.0,0.0,0.0,0.0,0.0,0.0,0.0,0.0,0.0,0.0,0.0,0.0,0.0,0.0,0.0,0.0,0.0,0.0,0.0,0.0,0.0,0.0,0.0,0.0,0.0,0.0,0.0,0.0,0.0,0.0,0.0,0.0,0.0,0.0,0.0,0.0,0.0,0.0,0.0,0.0,0.0,0.0,0.0,0.0,0.0,0.0,0.0,0.0,0.0,0.0,0.0,0.0,0.0,0.0,0.0,0.0,0.0,0.0,0.0,0.0,0.0,0.0,0.0,0.0,0.0,0.0,0.0,0.0,0.0,0.0,0.0,0.0,0.0,0.0,0.0,0.0,0.0,0.0,0.0,0.0,0.0,0.0,0.0,0.0,0.0,0.0,0.0,0.0,0.0,0.0,0.0,0.0,0.0,0.0,0.0,0.0,0.0,0.0,0.0,0.0,0.0,0.0,0.0,0.0,0.0,0.0,0.0,0.0,0.0,0.0,0.0,0.0,0.0,0.0,0.0,0.0,0.0,0.0,0.0,0.0,0.0,0.0,0.0,0.0,0.0,0.0,0.0,0.0,0.0,0.0,0.0,0.0,0.0,0.0,0.0,0.0,0.0,0.0,0.0,0.0,0.0,0.0,0.0,0.0,0.0,0.0,0.0,0.0,0.0,0.0,0.0,0.0,0.0,0.0,0.0,0.0,0.0,0.0,0.0,0.0,0.0,0.0,0.0,0.0,0.0,0.0,0.0,0.0,0.0,0.0,0.0,0.0,0.0,0.0,0.0,0.0,0.0,0.0,0.0,0.0,0.0,0.0,0.0,0.0,0.0,0.0,0.0,0.0,0.0,0.0,0.0,0.0,0.0,0.0,0.0,0.0,0.0,0.0,0.0,0.0,0.0,0.0,0.0,0.0,0.0,0.0,0.0,0.0,0.0,0.0,0.0,0.0,0.0,0.0,0.0,0.0,0.0,0.0,0.0,0.0,0.0,0.0,0.0,0.0,0.0,0.0,0.0,0.0,0.0,0.0,0.0,0.0,-0.4302,0.0,0.0,0.0,0.0,0.0,0.0,0.0,0.0,0.0,0.0,0.0,0.0,0.0,0.0,0.0,0.0,0.0,0.0,0.0,0.0,0.0,0.0,0.0,0.0,0.0,0.0,0.0,0.0,0.0,0.0,0.0,0.0,0.0,0.0,0.0,0.0,0.0,0.0,0.0,0.0,0.0,0.0,0.0,0.0,0.0,0.0,0.0,0.0,0.0,0.0,0.0,0.0,0.0,0.0,0.0,0.0,0.0,0.0,0.0,0.0,0.0,0.0,0.0,0.0,0.0,0.0,0.0,0.0,0.0,0.0,0.0,0.0,0.0,0.0,0.0,0.0,0.0,0.0,0.0,0.0,0.0,0.0,0.0,0.0,0.0,0.0,0.0,0.0,0.0,0.0,0.0,0.0,0.0,0.0,0.0,0.0,0.0,0.0,0.0,0.0,0.0,0.0,0.0,0.0,0.0,0.0,0.0,0.0,0.0,0.0,-0.4401,-0.4367,-0.432,-0.4302,-0.4302,0.0,0.0,0.0,0.0,0.0,0.0,0.0,0.0,0.0,0.0,0.0,0.0,0.0,0.0,0.0,0.0,0.0,0.0,0.0,0.0,0.0,0.0,0.0,0.0,0.0,0.0,0.0,0.0,0.0,0.0,0.0,0.0,0.0,0.0,0.0,0.0,0.0,0.0,0.0,0.0,0.0,0.0,0.0,0.0,0.0,0.0,0.0,0.0,0.0,0.0,0.0,0.0,0.0,0.0,0.0,0.0,0.0,0.0,0.0,0.0,0.0,0.0,0.0,0.0,0.0,0.0,0.0,0.0,0.0,0.0,0.0,0.0,0.0,0.0,0.0,0.0,0.0,0.0,0.0,0.0,0.0,0.0,0.0,0.0,0.0,0.0,0.0,0.0,0.0,0.0,0.0,0.0,0.0,0.0,0.0,0.0,0.0,0.0,0.0,0.0,0.0,0.0,0.0,0.0,0.0,0.0,0.0,0.0,0.0,0.0,0.0,0.0,-0.4592,-0.4481,-0.432,0.0,0.0,0.0,0.0,0.0,0.0,0.0,0.0,0.0,0.0,0.0,0.0,0.0,0.0,0.0,0.0,0.0,0.0,0.0,0.0,0.0,0.0,0.0,0.0,0.0,0.0,0.0,0.0,0.0,0.0,0.0,0.0,0.0,0.0,0.0,0.0,0.0,0.0,0.0,0.0,0.0,0.0,0.0,0.0,0.0,0.0,0.0,0.0,0.0,0.0,0.0,0.0,0.0,0.0,0.0,0.0,0.0,0.0,0.0,0.0,0.0,0.0,0.0,0.0,0.0,0.0,0.0,0.0,0.0,0.0,0.0,0.0,0.0,0.0,0.0,0.0,0.0,0.0,0.0,0.0,0.0,0.0,0.0,0.0,0.0,0.0,0.0,0.0,0.0,0.0,0.0,0.0,0.0,0.0,0.0,0.0,0.0,0.0,0.0,0.0,0.0,0.0,0.0,0.0,0.0,0.0,0.0,0.0,0.0,0.0,-0.5459,-0.5405,-0.5386,0.0,-0.4457,0.0,0.0,0.0,0.0,0.0,0.0,0.0,0.0,0.0,0.0,0.0,0.0,0.0,0.0,0.0,0.0,0.0,0.0,0.0,0.0,0.0,0.0,0.0,0.0,0.0,0.0,0.0,0.0,0.0,0.0,0.0,0.0,0.0,0.0,0.0,0.0,0.0,0.0,0.0,0.0,0.0,0.0,0.0,0.0,0.0,0.0,0.0,0.0,0.0,0.0,0.0,0.0,0.0,0.0,0.0,0.0,0.0,0.0,0.0,0.0,0.0,0.0,0.0,0.0,0.0,0.0,0.0,0.0,0.0,0.0,0.0,0.0,0.0,0.0,0.0,0.0,0.0,0.0,0.0,0.0,0.0,0.0,0.0,0.0,0.0,0.0,0.0,0.0,0.0,0.0,0.0,0.0,0.0,0.0,0.0,0.0,0.0,0.0,0.0,0.0,0.0,0.0,0.0,0.0,0.0,0.0,0.0,0.0,0.0,0.0,0.0,-0.6219,-0.6178,-0.5818,0.0,0.0,0.0,0.0,0.0,0.0,0.0,0.0,0.0,0.0,0.0,0.0,0.0,0.0,0.0,0.0,0.0,0.0,0.0,0.0,0.0,0.0,0.0,0.0,0.0,0.0,0.0,0.0,0.0,0.0,0.0,0.0,0.0,0.0,0.0,0.0,0.0,0.0,0.0,0.0,0.0,0.0,0.0,0.0,0.0,0.0,0.0,0.0,0.0,0.0,0.0,0.0,0.0,0.0,0.0,0.0,0.0,0.0,0.0,0.0,0.0,0.0,0.0,0.0,0.0,0.0,0.0,0.0,0.0,0.0,0.0,0.0,0.0,0.0,0.0,0.0,0.0,0.0,0.0,0.0,0.0,0.0,0.0,0.0,0.0,0.0,0.0,0.0,0.0,0.0,0.0,0.0,0.0,0.0,0.0,0.0,0.0,0.0,0.0,0.0,0.0,0.0,0.0,0.0,0.0,0.0,0.0,0.0,0.0,0.0,-0.6015,0.0,-0.6977,-0.6949,-0.6462,-0.5521,0.0,0.0,0.0,0.0,0.0,0.0,0.0,0.0,0.0,0.0,0.0,0.0,0.0,0.0,0.0,0.0,0.0,0.0,0.0,0.0,0.0,0.0,0.0,0.0,0.0,0.0,0.0,0.0,0.0,0.0,0.0,0.0,0.0,0.0,0.0,0.0,0.0,0.0,0.0,0.0,0.0,0.0,0.0,0.0,0.0,0.0,0.0,0.0,0.0,0.0,0.0,0.0,0.0,0.0,0.0,0.0,0.0,0.0,0.0,0.0,0.0,0.0,0.0,0.0,0.0,0.0,0.0,0.0,0.0,0.0,0.0,0.0,0.0,0.0,0.0,0.0,0.0,0.0,0.0,0.0,0.0,0.0,0.0,0.0,0.0,0.0,0.0,0.0,0.0,0.0,0.0,0.0,0.0,0.0,0.0,0.0,0.0,0.0,0.0,0.0,0.0,0.0,0.0,0.0,0.0,0.0,0.0,0.0,0.0,-0.7072,-0.7769,-0.7764,-0.7698,-0.6974,0.0,0.0,0.0,0.0,0.0,0.0,0.0,0.0,0.0,0.0,0.0,0.0,0.0,0.0,0.0,0.0,0.0,0.0,0.0,0.0,0.0,0.0,0.0,0.0,0.0,0.0,0.0,0.0,0.0,0.0,0.0,0.0,0.0,0.0,0.0,0.0,0.0,0.0,0.0,0.0,0.0,0.0,0.0,0.0,0.0,0.0,0.0,0.0,0.0,0.0,0.0,0.0,0.0,0.0,0.0,0.0,0.0,0.0,0.0,0.0,0.0,0.0,0.0,0.0,0.0,0.0,0.0,0.0,0.0,0.0,0.0,0.0,0.0,0.0,0.0,0.0,0.0,0.0,0.0,0.0,0.0,0.0,0.0,0.0,0.0,0.0,0.0,0.0,0.0,0.0,0.0,0.0,0.0,0.0,0.0,0.0,0.0,0.0,0.0,0.0,0.0,0.0,0.0,0.0,0.0,0.0,0.0,0.0,0.0,-0.7096,-0.8107,-0.8574,-0.8514,-0.8476,-0.7983,0.0,0.0,0.0,0.0,0.0,0.0,0.0,0.0,0.0,0.0,0.0,0.0,0.0,0.0,0.0,0.0,0.0,0.0,0.0,0.0,0.0,0.0,0.0,0.0,0.0,0.0,0.0,0.0,0.0,0.0,0.0,0.0,0.0,0.0,0.0,0.0,0.0,0.0,0.0,0.0,0.0,0.0,0.0,0.0,0.0,0.0,0.0,0.0,0.0,0.0,0.0,0.0,0.0,0.0,0.0,0.0,0.0,0.0,0.0,0.0,0.0,0.0,0.0,0.0,0.0,0.0,0.0,0.0,0.0,0.0,0.0,0.0,0.0,0.0,0.0,0.0,0.0,0.0,0.0,0.0,0.0,0.0,0.0,0.0,0.0,0.0,0.0,0.0,0.0,0.0,0.0,0.0,0.0,0.0,0.0,0.0,0.0,0.0,0.0,0.0,0.0,0.0,0.0,0.0,0.0,0.0,0.0,0.0,0.0,-0.8235,0.0,-0.8976,0.0,-0.8942,-0.857,0.0,0.0,0.0,0.0,0.0,0.0,0.0,0.0,0.0,0.0,0.0,0.0,0.0,0.0,0.0,0.0,0.0,0.0,0.0,0.0,0.0,0.0,0.0,0.0,0.0,0.0,0.0,0.0,0.0,0.0,0.0,0.0,0.0,0.0,0.0,0.0,0.0,0.0,0.0,0.0,0.0,0.0,0.0,0.0,0.0,0.0,0.0,0.0,0.0,0.0,0.0,0.0,0.0,0.0,0.0,0.0,0.0,0.0,0.0,0.0,0.0,0.0,0.0,0.0,0.0,0.0,0.0,0.0,0.0,0.0,0.0,0.0,0.0,0.0,0.0,0.0,0.0,0.0,0.0,0.0,0.0,0.0,0.0,0.0,0.0,0.0,0.0,0.0,0.0,0.0,0.0,0.0,0.0,0.0,0.0,0.0,0.0,0.0,0.0,0.0,0.0,0.0,0.0,0.0,0.0,0.0,0.0,0.0,-0.7648,-0.904,-0.9039,-0.9058,-0.9009,-0.9043,-0.8678,0.0,0.0,0.0,0.0,0.0,0.0,0.0,0.0,0.0,0.0,0.0,0.0,0.0,0.0,0.0,0.0,0.0,0.0,0.0,0.0,0.0,0.0,0.0,0.0,0.0,0.0,0.0,0.0,0.0,0.0,0.0,0.0,0.0,0.0,0.0,0.0,0.0,0.0,0.0,0.0,0.0,0.0,0.0,0.0,0.0,0.0,0.0,0.0,0.0,0.0,0.0,0.0,0.0,0.0,0.0,0.0,0.0,0.0,0.0,0.0,0.0,0.0,0.0,0.0,0.0,0.0,0.0,0.0,0.0,0.0,0.0,0.0,0.0,0.0,0.0,0.0,0.0,0.0,0.0,0.0,0.0,0.0,0.0,0.0,0.0,0.0,0.0,0.0,0.0,0.0,0.0,0.0,0.0,0.0,0.0,0.0,0.0,0.0,0.0,0.0,0.0,0.0,0.0,0.0,0.0,0.0,0.0,0.0,0.0,-0.9841,-0.9847,-0.9812,-0.9771,-0.9771,-0.9407,0.0,0.0,0.0,0.0,0.0,0.0,0.0,0.0,0.0,0.0,0.0,0.0,0.0,0.0,0.0,0.0,0.0,0.0,0.0,0.0,0.0,0.0,0.0,0.0,0.0,0.0,0.0,0.0,0.0,0.0,0.0,0.0,0.0,0.0,0.0,0.0,0.0,0.0,0.0,0.0,0.0,0.0,0.0,0.0,0.0,0.0,0.0,0.0,0.0,0.0,0.0,0.0,0.0,0.0,0.0,0.0,0.0,0.0,0.0,0.0,0.0,0.0,0.0,0.0,0.0,0.0,0.0,0.0,0.0,0.0,0.0,0.0,0.0,0.0,0.0,0.0,0.0,0.0,0.0,0.0,0.0,0.0,0.0,0.0,0.0,0.0,0.0,0.0,0.0,0.0,0.0,0.0,0.0,0.0,0.0,0.0,0.0,0.0,0.0,0.0,0.0,0.0,0.0,0.0,0.0,0.0,0.0,0.0,0.0,-1.1103,-1.084,-1.0677,-1.0611,-1.0335,-0.9968,-0.9496,0.0,0.0,0.0,0.0,0.0,0.0,0.0,0.0,0.0,0.0,0.0,0.0,0.0,0.0,0.0,0.0,0.0,0.0,0.0,0.0,0.0,0.0,0.0,0.0,0.0,0.0,0.0,0.0,0.0,0.0,0.0,0.0,0.0,0.0,0.0,0.0,0.0,0.0,0.0,0.0,0.0,0.0,0.0,0.0,0.0,0.0,0.0,0.0,0.0,0.0,0.0,0.0,0.0,0.0,0.0,0.0,0.0,0.0,0.0,0.0,0.0,0.0,0.0,0.0,0.0,0.0,0.0,0.0,0.0,0.0,0.0,0.0,0.0,0.0,0.0,0.0,0.0,0.0,0.0,0.0,0.0,0.0,0.0,0.0,0.0,0.0,0.0,0.0,0.0,0.0,0.0,0.0,0.0,0.0,0.0,0.0,0.0,0.0,0.0,0.0,0.0,0.0,0.0,0.0,0.0,0.0,0.0,0.0,-1.2758,-1.2074,-1.1681,-1.1546,-1.0848,-1.0395,0.0,0.0,0.0,0.0,0.0,0.0,0.0,0.0,0.0,0.0,0.0,0.0,0.0,0.0,0.0,0.0,0.0,0.0,0.0,0.0,0.0,0.0,0.0,0.0,0.0,0.0,0.0,0.0,0.0,0.0,0.0,0.0,0.0,0.0,0.0,0.0,0.0,0.0,0.0,0.0,0.0,0.0,0.0,0.0,0.0,0.0,0.0,0.0,0.0,0.0,0.0,0.0,0.0,0.0,0.0,0.0,0.0,0.0,0.0,0.0,0.0,0.0,0.0,0.0,0.0,0.0,0.0,0.0,0.0,0.0,0.0,0.0,0.0,0.0,0.0,0.0,0.0,0.0,0.0,0.0,0.0,0.0,0.0,0.0,0.0,0.0,0.0,0.0,0.0,0.0,0.0,0.0,0.0,0.0,0.0,0.0,0.0,0.0,0.0,0.0,0.0,0.0,0.0,0.0,0.0,0.0,0.0,0.0,0.0,-1.3703,-1.4055,-1.363,-1.2369,-1.2152,-1.1549,0.0,0.0,0.0,0.0,0.0,0.0,0.0,0.0,0.0,0.0,0.0,0.0,0.0,0.0,0.0,0.0,0.0,0.0,0.0,0.0,0.0,0.0,0.0,0.0,0.0,0.0,0.0,0.0,0.0,0.0,0.0,0.0,0.0,0.0,0.0,0.0,0.0,0.0,0.0,0.0,0.0,0.0,0.0,0.0,0.0,0.0,0.0,0.0,0.0,0.0,0.0,0.0,0.0,0.0,0.0,0.0,0.0,0.0,0.0,0.0,0.0,0.0,0.0,0.0,0.0,0.0,0.0,0.0,0.0,0.0,0.0,0.0,0.0,0.0,0.0,0.0,0.0,0.0,0.0,0.0,0.0,0.0,0.0,0.0,0.0,0.0,0.0,0.0,0.0,0.0,0.0,0.0,0.0,0.0,0.0,0.0,0.0,0.0,0.0,0.0,0.0,0.0,0.0,0.0,0.0,0.0,0.0,0.0,-1.3868,-1.4595,-1.535,-1.5239,-1.4184,-1.3563,-1.2508,0.0,0.0,0.0,0.0,0.0,0.0,0.0,0.0,0.0,0.0,0.0,0.0,0.0,0.0,0.0,0.0,0.0,0.0,0.0,0.0,0.0,0.0,0.0,0.0,0.0,0.0,0.0,0.0,0.0,0.0,0.0,0.0,0.0,0.0,0.0,0.0,0.0,0.0,0.0,0.0,0.0,0.0,0.0,0.0,0.0,0.0,0.0,0.0,0.0,0.0,0.0,0.0,0.0,0.0,0.0,0.0,0.0,0.0,0.0,0.0,0.0,0.0,0.0,0.0,0.0,0.0,0.0,0.0,0.0,0.0,0.0,0.0,0.0,0.0,0.0,0.0,0.0,0.0,0.0,0.0,0.0,0.0,0.0,0.0,0.0,0.0,0.0,0.0,0.0,0.0,0.0,0.0,0.0,0.0,0.0,0.0,0.0,0.0,0.0,0.0,0.0,0.0,0.0,0.0,0.0,0.0,0.0,0.0,-1.4792,-1.5553,-1.6268,-1.6578,-1.6407,-1.4952,-1.3462,0.0,0.0,0.0,0.0,0.0,0.0,0.0,0.0,0.0,0.0,0.0,0.0,0.0,0.0,0.0,0.0,0.0,0.0,0.0,0.0,0.0,0.0,0.0,0.0,0.0,0.0,0.0,0.0,0.0,0.0,0.0,0.0,0.0,0.0,0.0,0.0,0.0,0.0,0.0,0.0,0.0,0.0,0.0,0.0,0.0,0.0,0.0,0.0,0.0,0.0,0.0,0.0,0.0,0.0,0.0,0.0,0.0,0.0,0.0,0.0,0.0,0.0,0.0,0.0,0.0,0.0,0.0,0.0,0.0,0.0,0.0,0.0,0.0,0.0,0.0,0.0,0.0,0.0,0.0,0.0,0.0,0.0,0.0,0.0,0.0,0.0,0.0,0.0,0.0,0.0,0.0,0.0,0.0,0.0,0.0,0.0,0.0,0.0,0.0,0.0,0.0,0.0,0.0,0.0,0.0,0.0,0.0,0.0,-1.5847,-1.7221,-1.7439,-1.7495,-1.7479,-1.5893,-1.4549,0.0,0.0,0.0,0.0,0.0,0.0,0.0,0.0,0.0,0.0,0.0,0.0,0.0,0.0,0.0,0.0,0.0,0.0,0.0,0.0,0.0,0.0,0.0,0.0,0.0,0.0,0.0,0.0,0.0,0.0,0.0,0.0,0.0,0.0,0.0,0.0,0.0,0.0,0.0,0.0,0.0,0.0,0.0,0.0,0.0,0.0,0.0,0.0,-0.8267,0.0,0.0,0.0,0.0,0.0,0.0,0.0,0.0,0.0,0.0,0.0,0.0,0.0,0.0,0.0,0.0,0.0,0.0,0.0,0.0,0.0,0.0,0.0,0.0,0.0,0.0,0.0,0.0,0.0,0.0,0.0,0.0,0.0,0.0,0.0,0.0,0.0,0.0,0.0,0.0,0.0,0.0,0.0,0.0,0.0,0.0,0.0,0.0,0.0,0.0,0.0,0.0,0.0,0.0,0.0,0.0,0.0,0.0,0.0,-1.658,-1.7758,-1.8172,-1.8354,-1.8265,-1.6758,-1.5364,0.0,0.0,0.0,0.0,0.0,0.0,0.0,0.0,0.0,0.0,0.0,0.0,0.0,0.0,0.0,0.0,0.0,0.0,0.0,0.0,0.0,0.0,0.0,0.0,0.0,0.0,0.0,0.0,0.0,0.0,0.0,0.0,0.0,0.0,0.0,0.0,0.0,0.0,0.0,0.0,0.0,0.0,0.0,0.0,0.0,0.0,0.0,0.0,0.0,0.0,0.0,0.0,0.0,0.0,0.0,0.0,0.0,0.0,0.0,0.0,0.0,0.0,0.0,0.0,0.0,0.0,0.0,0.0,0.0,0.0,0.0,0.0,0.0,0.0,0.0,0.0,0.0,0.0,0.0,0.0,0.0,0.0,0.0,0.0,0.0,0.0,0.0,0.0,0.0,0.0,0.0,0.0,0.0,0.0,0.0,0.0,0.0,0.0,0.0,0.0,0.0,0.0,0.0,0.0,0.0,0.0,0.0,-1.5996,-1.7131,-1.7972,-1.8658,-1.8984,-1.8912,-1.7415,-1.5969,-1.4625,0.0,0.0,0.0,0.0,0.0,0.0,0.0,0.0,0.0,0.0,0.0,0.0,0.0,0.0,0.0,0.0,0.0,0.0,0.0,0.0,0.0,0.0,0.0,0.0,0.0,0.0,0.0,0.0,0.0,0.0,0.0,0.0,0.0,0.0,0.0,0.0,0.0,0.0,-0.8481,-0.9851,0.0,0.0,0.0,0.0,0.0,0.0,0.0,0.0,-1.1094,0.0,0.0,0.0,0.0,0.0,0.0,0.0,0.0,0.0,0.0,0.0,0.0,0.0,0.0,0.0,0.0,0.0,0.0,0.0,0.0,0.0,0.0,0.0,0.0,0.0,0.0,0.0,0.0,0.0,0.0,0.0,0.0,0.0,0.0,0.0,0.0,0.0,0.0,0.0,0.0,0.0,0.0,0.0,0.0,0.0,0.0,0.0,0.0,0.0,0.0,0.0,0.0,0.0,0.0,0.0,0.0,-1.5369,-1.6264,-1.7415,-1.8851,-1.9014,-1.907,-1.9016,-1.7511,-1.657,-1.6189,0.0,0.0,0.0,0.0,0.0,0.0,0.0,0.0,0.0,0.0,0.0,0.0,0.0,0.0,0.0,0.0,0.0,0.0,0.0,0.0,0.0,0.0,0.0,0.0,0.0,0.0,0.0,0.0,0.0,0.0,0.0,0.0,0.0,0.0,0.0,0.0,0.0,0.0,0.0,-1.0612,-1.1032,0.0,0.0,0.0,0.0,0.0,0.0,0.0,0.0,-1.1633,0.0,0.0,0.0,0.0,0.0,0.0,0.0,0.0,0.0,0.0,0.0,0.0,0.0,0.0,0.0,0.0,0.0,0.0,0.0,0.0,0.0,0.0,0.0,0.0,0.0,0.0,0.0,0.0,0.0,0.0,0.0,0.0,0.0,0.0,0.0,0.0,0.0,0.0,0.0,0.0,0.0,0.0,0.0,0.0,0.0,0.0,0.0,0.0,0.0,0.0,0.0,0.0,0.0,0.0,0.0,-1.6073,-1.6522,-1.7488,-1.9049,-1.9104,-1.9104,-1.9086,-1.7545,-1.6693,0.0,0.0,0.0,0.0,0.0,0.0,0.0,0.0,0.0,0.0,0.0,0.0,0.0,0.0,0.0,0.0,0.0,0.0,0.0,0.0,0.0,0.0,0.0,0.0,0.0,0.0,0.0,0.0,0.0,0.0,0.0,0.0,0.0,0.0,0.0,0.0,0.0,0.0,0.0,0.0,-1.1553,-1.2385,-1.3175,0.0,0.0,0.0,0.0,0.0,0.0,-1.3142,-1.2585,0.0,0.0,0.0,0.0,0.0,0.0,0.0,0.0,0.0,0.0,0.0,0.0,0.0,0.0,0.0,0.0,0.0,0.0,0.0,0.0,0.0,0.0,0.0,0.0,0.0,0.0,0.0,0.0,0.0,0.0,0.0,0.0,0.0,0.0,0.0,0.0,0.0,0.0,0.0,0.0,0.0,0.0,0.0,0.0,0.0,0.0,0.0,0.0,0.0,0.0,0.0,0.0,0.0,0.0,0.0,-1.667,-1.6722,-1.7472,-1.9031,-1.9104,-1.9104,-1.9086,-1.7527,-1.6693,0.0,0.0,0.0,0.0,0.0,0.0,0.0,0.0,0.0,0.0,0.0,0.0,0.0,0.0,0.0,0.0,0.0,0.0,0.0,0.0,0.0,0.0,0.0,0.0,0.0,0.0,0.0,0.0,0.0,0.0,0.0,0.0,0.0,0.0,0.0,0.0,0.0,0.0,0.0,0.0,0.0,-1.3849,-1.4655,-1.5507,0.0,0.0,0.0,0.0,-1.5287,-1.4518,0.0,0.0,0.0,0.0,0.0,0.0,0.0,0.0,0.0,0.0,0.0,0.0,0.0,0.0,0.0,0.0,0.0,0.0,0.0,0.0,0.0,0.0,0.0,0.0,0.0,0.0,0.0,0.0,0.0,0.0,0.0,0.0,0.0,0.0,0.0,0.0,0.0,0.0,0.0,0.0,0.0,0.0,0.0,0.0,0.0,0.0,0.0,0.0,0.0,0.0,0.0,0.0,0.0,0.0,0.0,0.0,-1.6652,-1.6733,-1.747,-1.9013,-1.9104,-1.9104,-1.9086,-1.7545,-1.6693,0.0,0.0,0.0,0.0,0.0,0.0,0.0,0.0,0.0,0.0,0.0,0.0,0.0,0.0,0.0,0.0,0.0,0.0,0.0,0.0,0.0,0.0,0.0,0.0,0.0,0.0,0.0,0.0,0.0,0.0,0.0,0.0,0.0,0.0,0.0,0.0,0.0,0.0,0.0,0.0,0.0,-1.4737,-1.5531,-1.6337,-1.6923,0.0,0.0,-1.6953,-1.6914,-1.6246,0.0,0.0,0.0,0.0,0.0,0.0,0.0,0.0,0.0,0.0,0.0,0.0,0.0,0.0,0.0,0.0,0.0,0.0,0.0,0.0,0.0,0.0,0.0,0.0,0.0,0.0,0.0,0.0,0.0,0.0,0.0,0.0,0.0,0.0,0.0,0.0,0.0,0.0,0.0,0.0,0.0,0.0,0.0,0.0,0.0,0.0,0.0,0.0,0.0,0.0,0.0,0.0,0.0,0.0,0.0,-1.3573,-1.667,-1.6737,-1.7472,-1.9031,-1.9104,-1.9104,-1.9104,-1.7998,-1.7164,0.0,0.0,0.0,0.0,0.0,0.0,0.0,0.0,0.0,0.0,0.0,0.0,0.0,0.0,0.0,0.0,0.0,0.0,0.0,0.0,0.0,0.0,0.0,0.0,0.0,0.0,0.0,0.0,0.0,0.0,0.0,0.0,0.0,0.0,0.0,0.0,0.0,0.0,0.0,0.0,0.0,0.0,-1.7046,-1.7509,0.0,0.0,0.0,-1.7864,-1.7876,0.0,0.0,0.0,0.0,0.0,0.0,0.0,0.0,0.0,0.0,0.0,0.0,0.0,0.0,0.0,0.0,0.0,0.0,0.0,0.0,0.0,0.0,0.0,0.0,0.0,0.0,0.0,0.0,0.0,0.0,0.0,0.0,0.0,0.0,0.0,0.0,0.0,0.0,0.0,0.0,0.0,0.0,0.0,0.0,0.0,0.0,0.0,0.0,0.0,0.0,0.0,0.0,0.0,0.0,0.0,0.0,0.0,-1.6692,-1.6922,-1.7781,-1.9322,-1.9196,-1.9196,-1.9377,-1.8433,0.0,0.0,0.0,0.0,0.0,0.0,0.0,0.0,0.0,0.0,0.0,0.0,0.0,0.0,0.0,0.0,0.0,0.0,0.0,0.0,0.0,0.0,0.0,0.0,0.0,0.0,0.0,-0.4771,0.0,0.0,0.0,0.0,0.0,0.0,0.0,0.0,0.0,0.0,0.0,0.0,0.0,0.0,-1.6843,-1.8035,-1.861,-1.9179,0.0,0.0,-1.9343,-1.935,-1.8546,-1.7926,0.0,0.0,0.0,0.0,0.0,0.0,0.0,0.0,0.0,0.0,0.0,0.0,0.0,0.0,0.0,0.0,0.0,0.0,0.0,0.0,0.0,0.0,0.0,0.0,0.0,0.0,0.0,0.0,0.0,0.0,0.0,0.0,0.0,0.0,0.0,0.0,0.0,0.0,0.0,0.0,0.0,0.0,0.0,0.0,0.0,0.0,0.0,0.0,0.0,0.0,0.0,0.0,0.0,0.0,0.0,-1.665,-1.7436,-1.8614,-2.0119,-1.9485,-1.9449,-2.0155,-1.8723,-1.7545,0.0,0.0,0.0,0.0,0.0,0.0,0.0,0.0,0.0,0.0,0.0,0.0,0.0,0.0,0.0,0.0,0.0,0.0,0.0,0.0,0.0,0.0,0.0,0.0,0.0,0.0,0.0,0.0,0.0,0.0,0.0,0.0,0.0,0.0,0.0,0.0,0.0,0.0,0.0,0.0,0.0,-1.8079,-1.7944,-1.9485,-2.0763,0.0,0.0,-2.189,-2.1915,-2.0632,-1.9645,-1.9626,0.0,0.0,0.0,0.0,0.0,0.0,0.0,0.0,0.0,0.0,0.0,0.0,0.0,0.0,0.0,0.0,0.0,0.0,0.0,0.0,0.0,0.0,0.0,0.0,0.0,0.0,0.0,0.0,0.0,0.0,0.0,0.0,0.0,0.0,0.0,0.0,0.0,0.0,0.0,0.0,0.0,0.0,0.0,0.0,0.0,0.0,0.0,0.0,0.0,0.0,0.0,0.0,0.0,-1.5106,-1.6668,-1.798,-1.9194,-2.0264,-2.0481,-2.0481,-2.03,-1.9685,-1.856,0.0,0.0,0.0,0.0,0.0,0.0,0.0,0.0,0.0,0.0,0.0,0.0,0.0,0.0,0.0,0.0,0.0,0.0,0.0,0.0,0.0,0.0,0.0,0.0,0.0,0.0,0.0,0.0,-0.6584,-0.6907,-0.7731,0.0,0.0,0.0,0.0,0.0,0.0,0.0,0.0,0.0,0.0,-1.9305,-1.9857,-2.0864,0.0,0.0,-2.2174,-2.2133,-2.2177,-2.1732,-2.1365,-2.1347,-2.0402,0.0,0.0,0.0,0.0,0.0,0.0,0.0,0.0,0.0,0.0,0.0,0.0,0.0,0.0,0.0,0.0,0.0,0.0,0.0,0.0,0.0,0.0,0.0,0.0,0.0,0.0,0.0,0.0,0.0,0.0,0.0,0.0,0.0,0.0,0.0,0.0,0.0,0.0,0.0,0.0,0.0,0.0,0.0,0.0,0.0,0.0,0.0,0.0,0.0,0.0,0.0,0.0,-1.5705,-1.7034,-1.8651,-1.9847,-2.0644,-2.1224,-2.1351,-2.1025,-2.0554,-1.9377,0.0,0.0,0.0,0.0,0.0,0.0,0.0,0.0,0.0,0.0,0.0,0.0,0.0,0.0,0.0,0.0,0.0,0.0,0.0,0.0,0.0,0.0,0.0,0.0,0.0,0.0,0.0,0.0,-0.7802,-0.8337,-0.8962,0.0,0.0,0.0,0.0,0.0,0.0,0.0,0.0,0.0,0.0,-2.06,-2.1328,-2.2197,-2.3103,-2.4022,-2.3817,-2.3531,-2.3367,-2.3153,-2.2943,-2.2698,0.0,0.0,0.0,0.0,0.0,0.0,0.0,0.0,0.0,0.0,0.0,0.0,0.0,0.0,0.0,0.0,0.0,0.0,0.0,0.0,0.0,0.0,0.0,0.0,0.0,0.0,0.0,-1.1389,0.0,0.0,-1.147,0.0,0.0,0.0,0.0,0.0,0.0,0.0,0.0,0.0,0.0,0.0,0.0,0.0,0.0,0.0,0.0,0.0,0.0,0.0,0.0,0.0,0.0,-1.7034,-1.7889,-1.9449,-2.0662,-2.1441,-2.1514,-2.1894,-2.2526,-2.1133,-1.9902,-1.9014,0.0,0.0,0.0,0.0,0.0,0.0,0.0,0.0,0.0,0.0,0.0,0.0,0.0,0.0,0.0,0.0,0.0,0.0,0.0,0.0,0.0,0.0,0.0,0.0,0.0,0.0,-0.8156,-0.9627,-1.0599,0.0,0.0,0.0,0.0,0.0,0.0,0.0,0.0,0.0,0.0,-2.0923,-2.1959,-2.2033,-2.3405,-2.5036,-2.6709,-2.6933,-2.6707,-2.5984,-2.5196,-2.4369,0.0,0.0,0.0,0.0,0.0,0.0,0.0,0.0,0.0,0.0,0.0,0.0,0.0,0.0,0.0,0.0,0.0,0.0,0.0,0.0,0.0,0.0,0.0,0.0,0.0,0.0,0.0,-1.3,-1.3025,0.0,0.0,0.0,0.0,0.0,0.0,0.0,0.0,0.0,0.0,0.0,-1.7429,-1.7478,0.0,0.0,0.0,0.0,0.0,0.0,0.0,0.0,0.0,0.0,0.0,0.0,-1.7889,-1.8725,-2.0282,-2.1476,-2.2233,-2.2757,-2.2883,-2.2569,-2.1506,-2.0083,-1.821,0.0,0.0,0.0,0.0,0.0,0.0,0.0,0.0,0.0,0.0,0.0,0.0,0.0,0.0,0.0,0.0,0.0,0.0,0.0,0.0,0.0,0.0,0.0,0.0,0.0,-0.9118,0.0,0.0,0.0,0.0,0.0,0.0,0.0,0.0,0.0,0.0,0.0,-2.0074,-2.1729,-2.2912,-2.3855,-2.4613,-2.5504,-2.6451,0.0,0.0,0.0,0.0,0.0,0.0,0.0,0.0,0.0,0.0,0.0,0.0,0.0,0.0,-2.18,-2.045,-2.0017,-1.991,-2.0106,0.0,0.0,0.0,0.0,0.0,0.0,0.0,0.0,0.0,0.0,0.0,0.0,0.0,0.0,-1.5297,0.0,-1.5365,0.0,0.0,0.0,0.0,0.0,0.0,0.0,0.0,-1.9291,-1.9867,-2.0605,-2.0643,-2.0535,0.0,-1.9776,-1.8616,0.0,0.0,0.0,0.0,0.0,0.0,0.0,0.0,-1.8851,-1.9902,-2.1204,-2.2106,-2.2587,-2.3364,-2.3487,-2.2923,-2.1882,-2.0298,-1.8196,-1.6384,-1.5038,0.0,0.0,0.0,0.0,0.0,0.0,0.0,0.0,0.0,0.0,0.0,0.0,0.0,0.0,0.0,0.0,0.0,0.0,0.0,0.0,0.0,0.0,0.0,-1.0706,0.0,0.0,0.0,0.0,0.0,0.0,0.0,0.0,0.0,-2.1657,-2.1379,-2.1686,-2.3324,-2.4506,-2.556,-2.6507,0.0,0.0,0.0,0.0,0.0,0.0,0.0,-2.749,-2.719,-2.7134,-2.6965,-2.6422,-2.5879,-2.5504,-2.5504,0.0,0.0,-2.2542,-2.226,-2.2416,-2.2571,-2.2504,-2.2405,-2.2386,-2.2795,-2.3248,0.0,0.0,0.0,0.0,0.0,0.0,0.0,0.0,-1.8297,-1.8326,0.0,-1.8464,0.0,0.0,0.0,0.0,0.0,-1.9717,0.0,0.0,-2.2144,-2.2955,-2.3638,-2.3638,-2.3318,-2.2733,-2.2643,-2.2251,-2.1404,-1.8453,0.0,0.0,0.0,0.0,0.0,0.0,-1.9903,-2.1363,-2.2175,-2.2569,-2.256,-2.3282,-2.3682,-2.357,-2.2152,-2.0603,-1.9004,-1.8125,-1.6671,-1.4446,-1.4222,0.0,0.0,0.0,0.0,0.0,0.0,0.0,0.0,0.0,0.0,0.0,0.0,0.0,0.0,0.0,0.0,0.0,0.0,0.0,0.0,-1.1794,0.0,0.0,0.0,0.0,0.0,0.0,0.0,0.0,0.0,0.0,-2.2172,-2.3327,-2.4247,-2.4265,0.0,0.0,0.0,0.0,-2.8472,-2.945,-2.9506,-2.9245,-2.8558,-2.8446,-2.8166,-2.7382,0.0,0.0,-2.7177,-2.7177,-2.7195,-2.7158,-2.7251,-2.6334,-2.3885,-2.4163,-2.4748,-2.4879,-2.4854,-2.4866,-2.4847,-2.4806,-2.5066,-2.4709,0.0,0.0,0.0,0.0,-2.1174,-2.1182,-2.1165,-2.125,-2.1318,-2.1411,-2.146,0.0,0.0,0.0,0.0,0.0,0.0,-2.2905,-2.3682,-2.3996,-2.4544,-2.5237,-2.5285,-2.5201,-2.5008,-2.4451,-2.4055,-2.379,-2.235,-2.1111,-2.0155,0.0,0.0,0.0,0.0,-2.1219,-2.2114,-2.2401,-2.2776,-2.3289,-2.3522,-2.332,-2.2726,-2.2243,-2.1294,-1.9736,-1.8896,-1.7914,-1.6679,-1.5038,0.0,0.0,0.0,0.0,0.0,0.0,0.0,0.0,0.0,0.0,0.0,0.0,0.0,0.0,0.0,0.0,0.0,0.0,0.0,-1.3293,-1.3935,-1.4809,0.0,0.0,0.0,0.0,0.0,0.0,0.0,0.0,0.0,-2.6472,-2.5701,-2.5214,0.0,0.0,-2.8507,-2.8719,-2.9835,-3.075,-3.1032,-3.1136,0.0,-3.0903,-3.0908,-3.0874,-3.0613,-3.0576,-3.0576,-3.0576,-3.0576,-3.0576,-3.0538,-3.0576,-2.994,-2.811,-2.6913,-2.6838,-2.7717,-2.7212,-2.6389,-2.6388,-2.6369,-2.6461,-2.8642,-2.735,-2.5128,-2.4156,-2.4156,-2.4151,-2.4151,-2.4134,-2.4228,-2.4274,-2.4379,-2.4454,-2.4551,-2.4674,-2.4838,0.0,0.0,0.0,-2.5656,-2.6498,-2.6524,-2.6986,-2.771,-2.7772,-2.7637,-2.7341,-2.6577,-2.6038,-2.5757,-2.4949,-2.4109,-2.3277,0.0,0.0,-2.1866,-2.2134,-2.2671,-2.34,-2.3705,-2.4055,-2.4456,-2.4188,-2.3611,-2.2803,-2.2464,-2.1857,-2.0929,-1.9859,-1.8913,-1.8075,-1.6415,-1.5059,0.0,0.0,0.0,0.0,0.0,0.0,0.0,0.0,0.0,0.0,0.0,-0.9992,0.0,0.0,0.0,0.0,-1.2294,-1.4096,-1.5363,-1.5916,0.0,0.0,0.0,0.0,0.0,0.0,0.0,-2.487,-2.5855,-2.7308,-2.95,-2.8555,-2.7702,-2.7917,-2.9122,-3.0018,-3.0083,0.0,-3.1644,-3.1709,-3.1778,-3.1749,-3.1567,-3.1759,-3.1912,-3.193,-3.1912,-3.193,-3.193,-3.193,-3.193,-3.1912,-3.1912,-3.1669,-3.0886,-2.9731,-2.9152,-3.016,-2.9676,-2.9025,-2.8987,-2.8988,-2.8969,-3.1959,-3.17,-2.8544,-2.713,-2.7012,-2.7114,-2.7114,-2.7097,-2.7198,-2.7197,-2.7179,-2.7345,-2.7425,-2.7405,-2.7731,0.0,-2.7882,-2.8012,-2.8481,-2.9266,-2.9266,-2.9698,-3.0463,-3.0463,-3.0154,-2.9561,-2.881,-2.8129,-2.7438,-2.6745,-2.629,-2.611,-2.4011,-2.2919,-2.283,-2.3512,-2.4226,-2.4855,-2.5535,-2.585,-2.5783,-2.5087,-2.4355,-2.3624,-2.2821,-2.2378,-2.2271,-2.0858,-1.9734,-1.8931,-1.8057,-1.6629,-1.4617,0.0,0.0,0.0,0.0,0.0,0.0,0.0,0.0,0.0,0.0,0.0,0.0,0.0,0.0,0.0,-1.4934,0.0,-1.7824,-1.7949,0.0,0.0,0.0,-2.1807,-2.2668,-2.4141,-2.56,-2.695,0.0,0.0,-3.1387,-3.1409,-3.1029,-3.0454,-3.0951,-3.1437,-3.1488,-3.1611,-3.1728,-3.194,-3.1987,-3.1844,-3.1648,-3.1987,-3.2437,-3.2511,-3.2172,-3.2381,-3.24,-3.2358,-3.2269,-3.24,-3.221,-3.234,-3.2804,-3.2493,-3.2172,-3.2177,-3.1983,-3.188,-3.1731,-3.1712,-3.1656,-3.2667,-3.267,-3.1867,-3.0845,-2.9839,-2.9822,-2.9861,-2.9861,-2.9993,-2.9732,-2.9282,-2.9445,-2.9263,-2.8972,-2.9188,-2.9333,-2.9443,-2.9492,-2.9704,-3.0021,-3.0039,-3.0128,-3.0353,-3.0396,-3.035,-3.0172,-3.0065,-2.9898,-2.9701,-2.9522,-2.8826,-2.7701,-2.7111,-2.6244,-2.5147,-2.5273,-2.5428,-2.5558,-2.5736,-2.5825,-2.5783,-2.5087,-2.4605,-2.4427,-2.3642,-2.2928,-2.2303,-2.1358,-2.0501,-1.9734,-1.836,-1.7611,-1.7682,-1.6527,0.0,0.0,0.0,0.0,0.0,0.0,0.0,0.0,0.0,-1.2888,-1.3494,0.0,-1.4881,0.0,-1.8146,-2.0055,-2.0251,-2.0805,0.0,0.0,-2.3761,-2.4403,-2.5772,-2.6843,-2.7835,-2.8775,-2.9673,-3.0682,-3.1779,-3.2426,-3.2954,-3.3334,-3.2674,-3.2137,-3.2253,-3.2845,-3.329,-3.343,-3.3968,-3.4228,-3.3562,-3.4241,-3.5052,-3.546,-3.5479,-3.5516,-3.5516,-3.5535,-3.5535,-3.5516,-3.5516,-3.5423,-3.5126,-3.533,-3.5312,-3.4884,-3.331,-3.1846,-3.1846,-3.1864,-3.1864,-3.4808,-3.4822,-3.4822,-3.4355,-3.3539,-3.231,-3.1767,-3.1784,-3.1867,-3.1674,-3.1352,-3.1529,-3.1543,-3.1376,-3.1597,-3.1688,-3.1794,-3.19,-3.2039,-3.2191,-3.2225,-3.2082,-3.1848,-3.1895,-3.1749,-3.1377,-3.1071,-3.0973,-3.0968,-3.0629,-3.0024,-2.9244,-2.9226,-2.862,-2.7477,-2.6762,-2.6343,-2.6336,-2.6693,-2.6693,-2.6336,-2.5925,-2.539,-2.473,-2.4266,-2.3636,-2.2812,-2.201,-2.1405,-2.0918,-1.9425,-1.8644,-1.8752,-1.7595,-1.6639,0.0,0.0,0.0,0.0,0.0,0.0,0.0,0.0,0.0,0.0,0.0,-1.7399,-1.8876,-2.1533,-2.3053,-2.2732,-2.3392,-2.4355,-2.5586,-2.6371,-2.7139,-2.7995,-2.879,-2.973,-3.0885,-3.1452,-3.2229,-3.336,-3.3944,-3.4438,-3.492,-3.4322,-3.3862,-3.4014,-3.4475,-3.4844,-3.4945,-3.5459,-3.5724,-3.5258,-3.6411,-3.7169,-3.6779,-3.6705,-3.6705,-3.6705,-3.6705,-3.6705,-3.6705,-3.6705,-3.663,-3.6333,-3.6482,-3.6575,-3.6166,-3.5052,-3.3807,-3.3008,-3.286,-3.286,-3.7119,-3.7119,-3.7119,-3.7119,-3.6903,-3.4522,-3.3462,-3.3378,-3.3422,-3.3322,-3.3182,-3.3313,-3.3473,-3.3663,-3.3848,-3.3985,-3.3985,-3.4233,-3.4425,-3.4544,-3.4581,-3.432,-3.3864,-3.3899,-3.3492,-3.2696,-3.206,-3.1771,-3.1693,-3.1018,-3.0658,-3.0642,-3.0624,-3.0267,-2.9501,-2.8128,-2.7326,-2.7174,-2.7852,-2.7852,-2.7157,-2.7049,-2.6354,-2.5045,-2.4777,-2.4325,-2.3561,-2.2655,-2.2158,-2.2056,-2.0707,-1.9597,-1.8823,-1.8215,-1.8194,0.0,-1.7506,0.0,0.0,0.0,0.0,0.0,0.0,0.0,0.0,-1.8461,-1.9916,-2.2282,-2.4835,-2.6043,-2.5205,-2.5793,-2.6542,-2.7371,-2.8709,-2.9601,-2.9833,-3.0422,-3.1421,-3.2991,-3.3251,-3.3856,-3.5055,-3.5531,-3.5652,-3.5735,-3.5822,-3.5919,-3.61,-3.6036,-3.5985,-3.6182,-3.6323,-3.6371,-3.6897,-3.8053,-3.8516,-3.731,-3.7106,-3.7002,-3.7087,-3.7095,-3.7039,-3.7058,-3.7132,-3.7058,-3.7002,-3.7021,-3.7002,-3.6909,-3.6723,-3.6185,-3.4922,-3.4531,-3.4513,-3.7119,-3.7119,-3.7119,-3.7119,-3.7052,-3.6555,-3.5975,-3.5428,-3.5571,-3.4968,-3.3969,-3.3549,-3.3406,-3.349,-3.3663,-3.3802,-3.3934,-3.4042,-3.4159,-3.4272,-3.4387,-3.4373,-3.4309,-3.4388,-3.4057,-3.3354,-3.3369,-3.3031,-3.2426,-3.2284,-3.1895,-3.131,-3.131,-3.0902,-3.0176,0.0,0.0,0.0,-2.812,-2.811,-2.795,-2.7272,-2.6783,-2.6463,-2.523,0.0,-2.4258,-2.2893,-2.2114,-2.2056,-2.1242,0.0,0.0,0.0,0.0,0.0,0.0,0.0,0.0,0.0,0.0,0.0,-2.0635,-2.0481,-1.9485,-2.0109,-2.1507,-2.3802,-2.7295,-2.8912,-2.7601,-2.8116,-2.8909,-2.9733,-3.0136,-3.0796,-3.2045,-3.2367,-3.3027,-3.4561,-3.4757,-3.4882,-3.5273,-3.5896,-3.6376,-3.6464,-3.7052,-3.7496,-3.7564,-3.6662,-3.6036,-3.6113,-3.6347,-3.6904,-3.8245,-3.8718,-3.8828,-3.8524,-3.8534,-3.8526,-3.8498,-3.8553,-3.8618,-3.8581,-3.8655,-3.8599,-3.8599,-3.8637,-3.8358,-3.7801,-3.7671,-3.7373,-3.6426,-3.6222,-3.6222,-3.8179,-3.8195,-3.8179,-3.8179,0.0,-3.8179,-3.7765,-3.7069,-3.6771,-3.6089,-3.5182,-3.4873,-3.4594,-3.4347,-3.4532,-3.4678,-3.4738,-3.4898,-3.5039,-3.5214,-3.5261,-3.5169,-3.4866,-3.4987,-3.4679,-3.3942,-3.4053,-3.3687,-3.2967,-3.3019,-3.2666,-3.1991,-3.2007,-3.1668,-3.0893,-3.0486,-2.9768,-2.8639,-2.8621,-2.8472,-2.8099,-2.768,-2.7244,-2.6854,-2.6083,0.0,0.0,0.0,0.0,0.0,0.0,0.0,0.0,0.0,0.0,-2.1855,-2.0855,-2.0416,-2.0802,-2.1188,-2.1697,-2.2494,-2.3611,-2.3636,-2.2136,-2.2741,-2.3992,-2.5976,-2.8629,-2.9911,-2.929,-2.9857,-3.0667,-3.1426,-3.1934,-3.2695,-3.3746,-3.4011,-3.449,-3.5525,-3.5792,-3.5935,-3.6345,-3.6756,-3.7095,-3.7166,-3.7523,-3.788,-3.7929,-3.7519,-3.7153,-3.7272,-3.7381,-3.7783,-3.8619,-3.8822,-3.8822,-3.8862,-3.8921,-3.8968,-3.8968,-3.9026,-3.9036,-3.9007,-3.9036,-3.9036,-3.9007,-3.9007,-3.8859,-3.8507,-3.8396,-3.8285,-3.7822,-3.7209,-3.6705,-3.9218,-3.9218,-3.9218,-3.9202,-3.9218,-3.9202,-3.8887,-3.8223,0.0,0.0,0.0,-3.6404,-3.6035,-3.5509,-3.5643,-3.5667,-3.5594,-3.58,-3.5993,-3.6079,-3.6191,-3.5914,-3.5451,-3.5532,-3.5248,-3.4571,-3.4536,-3.4196,-3.3504,-3.3474,-3.316,-3.2668,-3.2542,-3.2188,-3.1606,-3.097,-3.0198,-2.9453,-2.92,-2.8818,-2.8227,-2.8057,-2.7667,-2.7002,-2.6843,-2.6144,-2.4856,-2.4662,-2.4224,-2.3541,-2.2944,-2.2797,-2.327,-2.2148,-2.2095,-2.3403,-2.2253,-2.1762,-2.2516,-2.314,-2.3876,-2.4796,-2.603,-2.6234,-2.4989,-2.5208,-2.6219,-2.8123,-2.9628,-3.0574,-3.0684,-3.1423,-3.2183,-3.2926,-3.3631,-3.4391,-3.5137,-3.5331,-3.5633,-3.6399,-3.656,-3.6845,-3.7416,-3.7559,-3.7631,-3.7667,-3.7685,-3.7774,-3.7967,-3.8083,-3.8176,-3.8269,-3.8358,-3.8664,-3.8701,-3.8719,-3.875,-3.8803,-3.8851,-3.8881,-3.891,-3.8939,-3.8939,-3.8939,-3.8939,-3.8929,-3.891,-3.891,-3.891,-3.891,-3.891,-3.891,-3.8799,-3.7942,-3.719,-3.8969,-3.886,-3.886,-3.886,-3.886,-3.886,-3.881,-3.8597,-3.7595,-3.7052,-3.697,-3.7103,-3.6753,-3.6054,-3.6214,-3.5941,-3.5337,-3.5424,-3.5577,-3.5684,-3.58,-3.5881,-3.5908,-3.6053,-3.5759,-3.5111,-3.5146,-3.4844,-3.4248,-3.3569,-3.3206,-3.3051,-3.2511,-3.2109,-3.2022,-3.1917,-3.1446,-3.0661,-2.9638,-2.9066,-2.8942,-2.8282,-2.7882,-2.7741,-2.7021,-2.6553,-2.6279,-2.5639,-2.5191,-2.5085,-2.4909,-2.4681,-2.4331,-2.406,-2.4435,-2.5344,-2.4557,-2.4217,-2.4721,-2.4851,-2.5529,-2.6887,-2.7252,-2.7313,-2.7227,-2.6104,-2.6613,-2.9439,-3.1177,-3.2106,-3.2225,-3.2895,-3.3653,-3.4412,-3.4677,-3.5066,-3.5863,-3.5988,-3.6308,-3.7092,-3.7251,-3.7306,-3.7612,-3.7666,-3.7737,-3.7667,-3.7936,-3.7829,-3.806,-3.814,-3.8307,-3.8354,-3.8533,-3.8609,-3.8528,-3.8609,-3.864,-3.8572,-3.8713,-3.8792,-3.8792,-3.8833,-3.8862,-3.891,-3.8792,-3.878,-3.8851,-3.891,-3.8881,-3.8881,-3.8881,-3.8881,-3.8881,-3.8596,-3.8477,-3.886,-3.8805,-3.8805,-3.8805,-3.8805,-3.8805,-3.8805,-3.8739,-3.8241,-3.7768,-3.7475,-3.7595,-3.725,-3.6622,-3.682,-3.6501,-3.5799,-3.5877,-3.5753,-3.5475,-3.5532,-3.5667,-3.58,-3.5888,-3.5865,-3.5668,-3.5675,-3.5322,-3.4674,-3.4335,-3.377,-3.2942,-3.2256,-3.1965,-3.2001,-3.1984,-3.1863,-3.1533,-3.0571,-2.9881,-2.954,-2.8789,-2.8403,-2.8386,-2.7572,-2.6912,-2.6463,-2.6096,-2.5701,-2.5317,-2.5272,-2.5244,-2.5268,-2.4774,-2.4913,-2.5791,-2.5518,-2.5425,-2.5773,-2.6608,-2.7517,-2.8679,-2.9099,-2.9358,-2.9438,-2.8535,-2.8881,-3.104,-3.2704,-3.3688,-3.3688,-3.404,-3.4533,-3.5308,-3.547,-3.5788,-3.6496,-3.671,-3.6907,-3.7299,-3.7707,-3.7975,-3.8144,-3.8536,-3.8785,-3.8861,-3.8919,-3.9011,-3.9048,-3.9211,-3.901,-3.837,-3.8322,-3.8419,-3.8382,-3.8433,-3.8465,-3.8446,-3.851,-3.859,-3.8572,-3.8683,-3.8732,-3.8652,-3.8559,-3.8559,-3.8664,-3.8713,-3.8713,-3.878,-3.881,-3.881,-3.8792,-3.8762,-3.8743,-3.8766,-3.8711,-3.8694,-3.8694,-3.8694,-3.8694,-3.8694,-3.8711,-3.8694,-3.8384,-3.7965,-3.8093,-3.7768,-3.7162,-3.7283,-3.7003,-3.6389,-3.6287,-3.5983,-3.5512,-3.5388,-3.5379,-3.5532,-3.5639,-3.5773,-3.5844,-3.5888,-3.5581,-3.507,-3.4968,-3.4138,-3.274,-3.2204,-3.1901,-3.1802,-3.1802,-3.1856,-3.1894,-3.1357,-3.0751,-3.0136,-2.942,-2.9036,-2.8949,-2.825,-2.7504,-2.6869,-2.6661,-2.6295,-2.5744,-2.571,-2.5854,-2.6172,-2.5553,-2.5536,-2.6333,-2.6628,-2.6784,-2.707,-2.8112,-2.9153,-2.9935,-3.0525,-3.0994,-3.1272,-3.0836,-3.1008,-3.2354,-3.4051,-3.5069,-3.4931,-3.4914,-3.5212,-3.5969,-3.6169,-3.6435,-3.6964,-3.7182,-3.7326,-3.7524,-3.8054,-3.8465,-3.8844,-3.938,-3.9704,-3.9765,-3.9988,-4.0027,-4.0065,-4.0123,-3.9679,-3.8904,-3.8375,-3.8241,-3.8303,-3.8336,-3.8336,-3.8368,-3.8382,-3.8415,-3.8446,-3.8528,-3.8559,-3.8446,-3.8401,-3.8401,-3.8446,-3.846,-3.851,-3.8609,-3.8609,-3.8627,-3.8609,-3.8559,-3.8541,-3.856,-3.8448,-3.8448,-3.8432,-3.8448,-3.8448,-3.8448,-3.8448,-3.8448,-3.8415,-3.8302,-3.8596,-3.8297,-3.7675,-3.7679,-3.739,-3.6818,-3.6141,-3.5959,-3.6004,-3.5452,-3.5182,-3.5321,-3.5337,-3.5367,-3.547,-3.547,-3.5481,-3.5419,-3.4844,-3.3838,-3.2587,-3.2485,-3.2166,-3.1658,-3.1572,-3.1555,-3.1538,-3.1487,-3.1261,-3.0785,-3.0089,-2.9706,-2.9689,-2.8923,-2.847,-2.83,-2.7739,-2.7357,-2.7304,-2.723,-2.7217,-2.7238,-2.7103,-2.7365,-2.8107,-2.8747,-2.9161,-2.9212,-2.935,-2.9782,-3.0525,-3.0714,-3.1336,-3.2475,-3.2044,-3.205,-3.3236,-3.517,-3.6103,-3.5692,-3.5605,-3.5924,-3.6632,-3.6794,-3.6956,-3.7009,-3.7009,-3.7312,-3.8148,-3.8325,-3.8611,-3.9363,-3.9704,-3.978,-4.0042,-4.0157,-4.0199,-4.0221,-4.0277,-4.0265,-3.9784,-3.9013,-3.8305,-3.8194,-3.8204,-3.8292,-3.8343,-3.8336,-3.835,-3.835,-3.8382,-3.8415,-3.8368,-3.8289,-3.8289,-3.8368,-3.8415,-3.8415,-3.8446,-3.8465,-3.8433,-3.8433,-3.8433,-3.8446,-3.8448,-3.8391,-3.8391,-3.8391,-3.8391,-3.8391,-3.8391,-3.8391,-3.8391,-3.8391,-3.8408,-3.8504,-3.8437,-3.8215,-3.8308,-3.8023,-3.7318,-3.6664,-3.614,-3.5811,-3.5182,-3.4947,-3.5058,-3.5152,-3.5245,-3.5304,-3.535,-3.5367,-3.5278,-3.469,-3.4017,-3.3455,-3.306,-3.2478,-3.1901,-3.193,-3.1805,-3.1406,-3.1462,-3.1439,-3.121,-3.0611,-3.0318,-3.0283,-2.9606,-2.9174,-2.9106,-2.883,-2.8674,-2.8674,-2.8658,-2.8625,-2.8625,-2.7797,-2.7816,-2.892,-2.9334,-2.9713,-3.0179,-3.0196,-3.0524,-3.13,-3.1748,-3.2283,-3.2835,-3.3024,-3.3494,-3.4384,-3.5648,-3.6388,-3.6289,-3.6295,-3.6434,-3.6753,-3.6806,-3.6846,-3.6869,-3.7311,-3.7772,-3.8186,-3.9036,-3.9711,-4.0182,-4.0689,-4.102,-4.1138,-4.1184,-4.1136,-4.1288,-4.1364,-4.1167,-4.0778,-4.0287,-3.9679,-3.8941,-3.8706,-3.8578,-3.8217,-3.8122,-3.8153,-3.8186,-3.8238,-3.8289,-3.8307,-3.8241,-3.8225,-3.834,-3.8354,-3.8336,-3.8368,-3.8382,-3.8382,-3.8336,-3.8354,-3.8322,-3.8391,-3.8391,-3.8391,-3.8391,-3.8391,-3.8391,-3.8391,-3.8391,-3.8391,-3.8391,-3.8391,-3.8391,-3.8448,-3.856,-3.8655,-3.84,-3.7916,-3.7229,-3.6542,-3.5873,-3.5235,-3.4905,-3.482,-3.4899,-3.4994,-3.5041,-3.5088,-3.5088,-3.5085,-3.4668,-3.433,-3.4063,-3.359,-3.2998,-3.2396,-3.2277,-3.1996,-3.1551,-3.1426,-3.1346,-3.1338,-3.0991,-3.0829,-3.0886,-3.0248,-2.9799,-2.9782,-2.9593,-2.9489,-2.9506,-2.9506,-2.9506,-2.9472,-2.8472,-2.8575,-2.9937,-3.0127,-3.0368,-3.0955,-3.0989,-3.1317,-3.2041,-3.261,-3.3093,-3.3507,-3.3886,-3.4507,-3.5387,-3.599,-3.6402,-3.6602,-3.6643,-3.6661,-3.6702,-3.6719,-3.6742,-3.6783,-3.7469,-3.8052,-3.8432,-3.9438,-4.0498,-4.0848,-4.1435,-4.1846,-4.1931,-4.2008,-4.2145,-4.2287,-4.2216,-4.2019,-4.152,-4.1511,-4.0945,-3.9713,-3.9409,-3.9031,-3.8528,-3.8329,-3.8326,-3.8057,-3.8106,-3.8158,-3.814,-3.8158,-3.8124,-3.814,-3.8174,-3.8189,-3.8256,-3.8271,-3.8256,-3.8174,-3.8174,-3.8174,-3.8391,-3.8391,-3.8391,-3.8391,-3.8391,-3.8391,-3.8391,-3.8391,-3.8391,-3.8391,-3.8391,-3.8391,-3.8408,-3.8408,-3.8448,-3.8488,-3.8469,-3.7753,-3.7122,-3.6593,-3.584,-3.5152,-3.453,-3.4562,-3.4546,-3.4594,-3.4594,-3.4643,-3.4739,-3.4785,-3.4549,-3.4072,-3.4051,-3.3723,-3.2971,-3.2428,-3.2052,-3.1934,-3.1372,-3.1083,-3.1207,-3.1196,-3.1206,-3.1291,-3.0748,-3.0429,-3.0362,-2.9814,-2.9489,-2.9541,-2.961,-2.9575,-2.9541,-2.9472,-3.0093,-3.1403,-3.1645,-3.1645,-3.1696,-3.1731,-3.2041,-3.2714,-3.2972,-3.3542,-3.4697,-3.4525,-3.4869,-3.6094,-3.6232,-3.6343,-3.6485,-3.6485,-3.6544,-3.6643,-3.6702,-3.6702,-3.6737,-3.7467,-3.8171,-3.8901,-3.966,-4.0438,-4.1394,-4.1701,-4.1841,-4.1987,-4.2055,-4.2145,-4.2228,-4.2287,-4.2216,-4.218,-4.2096,-4.1739,-4.0423,-4.0088,-3.9804,-3.9211,-3.8852,-3.8762,-3.8347,-3.8021,-3.8021,-3.7987,-3.7952,-3.7952,-3.7917,-3.7952,-3.7969,-3.8003,-3.8003,-3.7987,-3.8021,-3.7952,-3.7952,-3.8391,-3.8391,-3.8391,-3.8391,-3.8391,-3.8391,-3.8391,-3.8391,-3.8391,-3.8391,-3.8391,-3.8391,-3.8391,-3.8391,-3.8391,-3.8464,-3.8383,-3.7702,-3.7286,-3.6966,-3.5997,-3.5346,-3.5085,-3.4693,-3.448,-3.448,-3.4497,-3.4497,-3.4546,-3.4643,-3.4544,-3.4378,-3.4376,-3.4044,-3.3458,-3.3267,-3.2962,-3.255,-3.1918,-3.1633,-3.1631,-3.1244,-3.1032,-3.1095,-3.1108,-3.1124,-3.1145,-3.0888,-3.0788,-3.0754,-3.081,-3.0846,-3.0846,-3.0936,-3.1179,-3.1714,-3.18,-3.18,-3.1852,-3.2248,-3.2593,-3.2921,-3.3835,-3.4507,-3.5094,-3.537,-3.5749,-3.6163,-3.6284,-3.6343,-3.6343,-3.636,-3.6402,-3.6444,-3.6444,-3.671,-3.7272,-3.7949,-3.8756,-3.9634,-4.0341,-4.1086,-4.1402,-4.1648,-4.1736,-4.1841,-4.1987,-4.2097,-4.2163,-4.2246,-4.2287,-4.2287,-4.2269,-4.2149,-4.1703,-4.1046,-4.053,-3.9797,-3.9333,-3.8994,-3.8618,-3.8061,-3.7935,-3.7917,-3.7828,-3.7793,-3.7828,-3.7864,-3.7864,-3.7882,-3.7882,-3.7864,-3.7917,-3.7864,-3.7882,-3.8391,-3.8391,-3.8391,-3.8391,-3.8391,-3.8391,-3.8391,-3.8391,-3.8391,-3.8391,-3.8391,-3.8391,-3.8391,-3.8391,-3.8391,-3.8391,-3.8359,-3.7873,-3.7533,-3.7226,-3.6182,-3.5568,-3.5242,-3.4692,-3.4415,-3.4349,-3.4399,-3.4415,-3.4448,-3.4448,-3.4448,-3.448,-3.448,-3.43,-3.3952,-3.3736,-3.3449,-3.3056,-3.2497,-3.21,-3.1918,-3.1449,-3.1106,-3.0986,-3.1151,-3.1363,-3.1402,-3.1423,-3.1445,-3.1517,-3.1521,-3.1596,-3.1654,-3.1709,-3.1763,-3.18,-3.18,-3.1921,-3.2162,-3.261,-3.311,-3.3628,-3.4542,-3.5266,-3.5525,-3.6025,-3.6249,-3.6284,-3.6284,-3.6284,-3.6284,-3.6284,-3.6284,-3.6335,-3.6525,-3.6913,-3.7568,-3.8486,-3.9385,-4.0221,-4.0906,-4.1373,-4.156,-4.1604,-4.1648,-4.1762,-4.1902,-4.203,-4.2121,-4.2205,-4.2287,-4.2287,-4.2287,-4.2287,-4.2096,-4.1685,-4.1203,-4.0506,-3.9756,-3.9348,-3.8777,-3.8259,-3.7864,-3.7811,-3.7757,-3.7757,-3.7757,-3.7793,-3.7828,-3.7828,-3.7793,-3.7739,-3.7793,-3.7793,-3.7793,-3.8391,-3.8391,-3.8391,-3.8391,-3.8391,-3.8391,-3.8391,-3.8391,-3.8391,-3.8391,-3.8391,-3.8391,-3.8391,-3.8391,-3.8391,-3.8391,-3.8391,-3.8311,-3.7987,-3.7388,-3.6643,-3.593,-3.5318,-3.4621,-3.4216,-3.4151,-3.4101,-3.4201,-3.43,-3.43,-3.4349,-3.4431,-3.4448,-3.4415,-3.4448,-3.3825,-3.3512,-3.3456,-3.2925,-3.2354,-3.1898,-3.1815,-3.1566,-3.1048,-3.1046,-3.1093,-3.1258,-3.1269,-3.1351,-3.144,-3.1462,-3.1593,-3.1709,-3.1671,-3.1671,-3.178,-3.1817,-3.2196,-3.2748,-3.299,-3.3783,-3.468,-3.518,-3.5559,-3.6059,-3.6232,-3.6284,-3.6284,-3.6284,-3.6284,-3.6284,-3.6284,-3.6284,-3.637,-3.6887,-3.737,-3.7784,-3.8836,-3.9991,-4.0723,-4.118,-4.1426,-4.156,-4.1604,-4.1648,-4.1736,-4.1902,-4.203,-4.2079,-4.2205,-4.2287,-4.2287,-4.2287,-4.2287,-4.2287,-4.2216,-4.177,-4.1234,-4.0467,-3.9863,-3.9042,-3.8418,-3.7846,-3.7667,-3.7667,-3.7667,-3.7667,-3.7703,-3.7667,-3.7667,-3.7667,-3.7667,-3.7667,-3.7703,-3.7667,-3.8391,-3.8391,-3.8391,-3.8391,-3.8391,-3.8391,-3.8391,-3.8391,-3.8391,-3.8391,-3.8391,-3.8391,-3.8391,-3.8391,-3.8391,-3.8391,-3.8391,-3.8391,-3.8262,-3.7954,-3.7307,-3.6627,-3.593,-3.5185,-3.4586,-3.4182,-3.4101,-3.4101,-3.4151,-3.4151,-3.4201,-3.4201,-3.4201,-3.43,-3.4333,-3.4137,-3.4104,-3.4119,-3.3479,-3.3034,-3.2879,-3.2463,-3.2188,-3.1984,-3.1698,-3.1541,-3.1608,-3.1301,-3.1112,-3.1151,-3.1291,-3.1445,-3.1538,-3.1555,-3.1538,-3.1627,-3.2183,-3.2531,-3.293,-3.3847,-3.4611,-3.5197,-3.5645,-3.6025,-3.6249,-3.6284,-3.6284,-3.6284,-3.6284,-3.6284,-3.6284,-3.6284,-3.6301,-3.6301,-3.6991,-3.7749,-3.837,-3.9577,-4.0474,-4.0832,-4.1134,-4.1363,-4.156,-4.1604,-4.1604,-4.1692,-4.1858,-4.1987,-4.203,-4.2181,-4.2287,-4.2287,-4.2287,-4.2287,-4.2287,-4.2287,-4.2055,-4.1627,-4.102,-4.0217,-3.9414,-3.8415,-3.7844,-3.7577,-3.7577,-3.7577,-3.7577,-3.7577,-3.7577,-3.7577,-3.7613,-3.7613,-3.7613,-3.7577,-3.7577,-3.8391,-3.8391,-3.8391,-3.8391,-3.8391,-3.8391,-3.8391,-3.8391,-3.8391,-3.8391,-3.8391,-3.8391,-3.8391,-3.8391,-3.8391,-3.8391,-3.8391,-3.8391,-3.8391,-3.8294,-3.7647,-3.708,-3.6562,-3.5623,-3.4813,-3.423,-3.4101,-3.4101,-3.4101,-3.4101,-3.4101,-3.4101,-3.4101,-3.4151,-3.4201,-3.425,-3.43,-3.4317,-3.3941,-3.363,-3.3367,-3.3034,-3.2672,-3.2438,-3.2205,-3.2094,-3.2027,-3.1825,-3.1465,-3.1093,-3.1117,-3.1252,-3.1419,-3.1696,-3.1969,-3.227,-3.2764,-3.3276,-3.3619,-3.4524,-3.5294,-3.5587,-3.6042,-3.6284,-3.6284,-3.6284,-3.6284,-3.6284,-3.6284,-3.6284,-3.6284,-3.6284,-3.6422,-3.6749,-3.7456,-3.8336,-3.9301,-4.0267,-4.0784,-4.0918,-4.1088,-4.1318,-4.1498,-4.1604,-4.1604,-4.1648,-4.1797,-4.1945,-4.1987,-4.2121,-4.2246,-4.2287,-4.2287,-4.2287,-4.2287,-4.2287,-4.2287,-4.193,-4.1484,-4.0663,-3.9825,-3.8487,-3.7577,-3.7577,-3.7577,-3.7577,-3.7577,-3.7577,-3.7577,-3.7577,-3.7577,-3.7577,-3.7577,-3.7577,-3.7577,-3.8391,-3.8391,-3.8391,-3.8391,-3.8391,-3.8391,-3.8391,-3.8391,-3.8391,-3.8391,-3.8391,-3.8391,-3.8391,-3.8391,-3.8391,-3.8391,-3.8391,-3.8391,-3.8391,-3.8246,-3.7776,-3.7339,-3.6902,-3.5752,-3.4813,-3.4182,-3.4101,-3.4101,-3.4101,-3.4101,-3.4101,-3.4101,-3.4101,-3.4101,-3.4101,-3.4101,-3.4151,-3.4234,-3.4251,-3.3958,-3.3515,-3.3434,-3.3186,-3.258,-3.2541,-3.255,-3.2578,-3.2608,-3.22,-3.1223,-3.1295,-3.1308,-3.1376,-3.2032,-3.2761,-3.3448,-3.37,-3.4072,-3.4685,-3.5025,-3.5427,-3.5976,-3.6165,-3.6301,-3.6301,-3.6301,-3.6284,-3.6284,-3.6284,-3.6284,-3.6284,-3.6284,-3.6663,-3.7473,-3.8215,-3.925,-4.056,-4.0853,-4.0871,-4.0918,-4.1088,-4.13,-4.1542,-4.1604,-4.1604,-4.1648,-4.1797,-4.1884,-4.1892,-4.2061,-4.2246,-4.2287,-4.2287,-4.2287,-4.2287,-4.2287,-4.2287,-4.2162,-4.1734,-4.1002,-3.9985,-3.8594,-3.7594,-3.7577,-3.7577,-3.7577,-3.7577,-3.7577,-3.7577,-3.7577,-3.7577,-3.7577,-3.7577,-3.7577,-3.7577,-3.8391,-3.8391,-3.8391,-3.8391,-3.8391,-3.8391,-3.8391,-3.8391,-3.8391,-3.8391,-3.8391,-3.8391,-3.8391,-3.8391,-3.8391,-3.8391,-3.8391,-3.8391,-3.8391,-3.8375,-3.8246,-3.7469,-3.6594,-3.5655,-3.4813,-3.4214,-3.4133,-3.4101,-3.4101,-3.4101,-3.4101,-3.4101,-3.4101,-3.4101,-3.4101,-3.4101,-3.4101,-3.4151,-3.4151,-3.407,-3.3941,-3.3974,-3.3991,-3.3779,-3.3336,-3.3184,-3.3102,-3.278,-3.2641,-3.2503,-3.2462,-3.2034,-3.1472,-3.2401,-3.3558,-3.4607,-3.4618,-3.4483,-3.4832,-3.5361,-3.5797,-3.6011,-3.6165,-3.6208,-3.6251,-3.6276,-3.6301,-3.6284,-3.6284,-3.6284,-3.6284,-3.6353,-3.6956,-3.8112,-3.8957,-3.9802,-4.0612,-4.0871,-4.0871,-4.0918,-4.1088,-4.1318,-4.1498,-4.1604,-4.1604,-4.1648,-4.1754,-4.1841,-4.1849,-4.2019,-4.2205,-4.2287,-4.2287,-4.2287,-4.2287,-4.2287,-4.2287,-4.2287,-4.1895,-4.1306,-4.0075,-3.8611,-3.7916,-3.7577,-3.7577,-3.7577,-3.7577,-3.7577,-3.7577,-3.7577,-3.7577,-3.7577,-3.7577,-3.7577,-3.7577,-3.8391,-3.8391,-3.8391,-3.8391,-3.8391,-3.8391,-3.8391,-3.8391,-3.8391,-3.8391,-3.8391,-3.8391,-3.8391,-3.8391,-3.8391,-3.8391,-3.8391,-3.8391,-3.8391,-3.8391,-3.8375,-3.7776,-3.6805,-3.5995,-3.5266,-3.457,-3.4246,-3.4117,-3.4101,-3.4101,-3.4101,-3.4101,-3.4101,-3.4101,-3.4101,-3.4101,-3.4101,-3.4101,-3.4101,-3.4101,-3.4101,-3.4151,-3.4184,-3.4185,-3.3909,-3.381,-3.3792,-3.3559,-3.3238,-3.2951,-3.2823,-3.2603,-3.2052,-3.2949,-3.4202,-3.5357,-3.5172,-3.5057,-3.5152,-3.5596,-3.5871,-3.5932,-3.6036,-3.6122,-3.6122,-3.6191,-3.6259,-3.6301,-3.6284,-3.6284,-3.6422,-3.6853,-3.7629,-3.8491,-3.9543,-4.0353,-4.0884,-4.0871,-4.0871,-4.0918,-4.1059,-4.129,-4.156,-4.1542,-4.1542,-4.1604,-4.1754,-4.1736,-4.1762,-4.1977,-4.2145,-4.2205,-4.2287,-4.2287,-4.2287,-4.2287,-4.2287,-4.2287,-4.1448,-4.0985,-4.0128,-3.8683,-3.8005,-3.7577,-3.7577,-3.7577,-3.7577,-3.7577,-3.7577,-3.7577,-3.7577,-3.7577,-3.7577,-3.7577,-3.7577,-3.8391,-3.8391,-3.8391,-3.8391,-3.8391,-3.8391,-3.8391,-3.8391,-3.8391,-3.8391,-3.8391,-3.8391,-3.8391,-3.8391,-3.8391,-3.8391,-3.8391,-3.8391,-3.8391,-3.8391,-3.8359,-3.8003,-3.7436,-3.6546,-3.5785,-3.5072,-3.4424,-3.4149,-3.4101,-3.4101,-3.4101,-3.4101,-3.4101,-3.4101,-3.4101,-3.4101,-3.4101,-3.4101,-3.4101,-3.4101,-3.4101,-3.4101,-3.4101,-3.4134,-3.4152,-3.4186,-3.4301,-3.4268,-3.3922,-3.2751,-3.2945,-3.3117,-3.3056,-3.3868,-3.4526,-3.5107,-3.5316,-3.5391,-3.5458,-3.5588,-3.5745,-3.5773,-3.5888,-3.5975,-3.5975,-3.6079,-3.6191,-3.6284,-3.6301,-3.6301,-3.649,-3.7594,-3.8353,-3.8819,-3.9922,-4.075,-4.0871,-4.0871,-4.0871,-4.0918,-4.1047,-4.1233,-4.1443,-4.1471,-4.1471,-4.1604,-4.1692,-4.1692,-4.1736,-4.1866,-4.2037,-4.2163,-4.2205,-4.2246,-4.2246,-4.2246,-4.2287,-4.2198,-4.0931,-4.0235,-3.9932,-3.8861,-3.8041,-3.7577,-3.7577,-3.7577,-3.7577,-3.7577,-3.7577,-3.7577,-3.7577,-3.7577,-3.7577,-3.7577,-3.7577,-3.8391,-3.8391,-3.8391,-3.8391,-3.8391,-3.8391,-3.8391,-3.8391,-3.8391,-3.8391,-3.8391,-3.8391,-3.8391,-3.8391,-3.8391,-3.8391,-3.8391,-3.8391,-3.8391,-3.8391,-3.8391,-3.8343,-3.7873,-3.6934,-3.5946,-3.5234,-3.4473,-3.4133,-3.4117,-3.4101,-3.4101,-3.4101,-3.4101,-3.4101,-3.4101,-3.4101,-3.4101,-3.4101,-3.4101,-3.4101,-3.4101,-3.4101,-3.4101,-3.4101,-3.4151,-3.4151,-3.4201,-3.43,-3.4203,-3.4072,-3.4085,-3.4159,-3.4303,-3.4625,-3.4888,-3.5021,-3.5198,-3.5354,-3.5354,-3.5383,-3.5492,-3.5566,-3.5639,-3.5728,-3.5844,-3.5975,-3.6105,-3.6216,-3.6276,-3.6233,-3.6396,-3.768,-3.8439,-3.8888,-3.9922,-4.0871,-4.0871,-4.0871,-4.0871,-4.0935,-4.0982,-4.1123,-4.1272,-4.138,-4.1426,-4.156,-4.1604,-4.1648,-4.1692,-4.178,-4.1909,-4.2037,-4.2097,-4.2139,-4.2181,-4.2181,-4.2181,-4.1955,-4.0762,-3.9893,-3.9572,-3.8808,-3.7898,-3.7577,-3.7577,-3.7577,-3.7577,-3.7577,-3.7577,-3.7577,-3.7577,-3.7577,-3.7577,-3.7577,-3.7577,-3.8391,-3.8391,-3.8391,-3.8391,-3.8391,-3.8391,-3.8391,-3.8391,-3.8391,-3.8391,-3.8391,-3.8391,-3.8391,-3.8391,-3.8391,-3.8391,-3.8391,-3.8391,-3.8391,-3.8391,-3.8391,-3.8391,-3.8213,-3.7339,-3.64,-3.5671,-3.4975,-3.4505,-3.4198,-3.4101,-3.4101,-3.4101,-3.4101,-3.4101,-3.4101,-3.4101,-3.4101,-3.4101,-3.4101,-3.4101,-3.4101,-3.4101,-3.4101,-3.4101,-3.4101,-3.4101,-3.4101,-3.4151,-3.4201,-3.425,-3.4399,-3.4659,-3.4851,-3.4851,-3.4851,-3.4947,-3.4994,-3.5152,-3.5182,-3.5245,-3.5354,-3.54,-3.5475,-3.5566,-3.5684,-3.5817,-3.5888,-3.5958,-3.6019,-3.6122,-3.6234,-3.7504,-3.8259,-3.8717,-3.9864,-4.0724,-4.084,-4.084,-4.0871,-4.0935,-4.0953,-4.1029,-4.1123,-4.1244,-4.138,-4.1453,-4.156,-4.1604,-4.1648,-4.1736,-4.1736,-4.1823,-4.1945,-4.2048,-4.2072,-4.2072,-4.2072,-4.1635,-4.077,-4.0135,-3.9726,-3.8752,-3.763,-3.7577,-3.7577,-3.7577,-3.7577,-3.7577,-3.7577,-3.7577,-3.7577,-3.7577,-3.7577,-3.7577,-3.7577,-3.8391,-3.8391,-3.8391,-3.8391,-3.8391,-3.8391,-3.8391,-3.8391,-3.8391,-3.8391,-3.8391,-3.8391,-3.8391,-3.8391,-3.8391,-3.8391,-3.8391,-3.8391,-3.8391,-3.8391,-3.8391,-3.8391,-3.823,-3.776,-3.7112,-3.6432,-3.5509,-3.4797,-3.4262,-3.4101,-3.4101,-3.4101,-3.4101,-3.4101,-3.4101,-3.4101,-3.4101,-3.4101,-3.405,-3.4034,-3.405,-3.405,-3.4,-3.4,-3.405,-3.405,-3.405,-3.4101,-3.4101,-3.4101,-3.4201,-3.4448,-3.4594,-3.4643,-3.4562,-3.4804,-3.4804,-3.4899,-3.4994,-3.5088,-3.5198,-3.5261,-3.5354,-3.5446,-3.5475,-3.5611,-3.5667,-3.5711,-3.58,-3.5932,-3.6078,-3.7148,-3.7923,-3.8448,-3.959,-4.0408,-4.068,-4.0793,-4.0823,-4.0871,-4.0935,-4.0982,-4.1029,-4.1152,-4.1244,-4.1363,-4.1453,-4.156,-4.1604,-4.1648,-4.1648,-4.1692,-4.1797,-4.1902,-4.1945,-4.1995,-4.1995,-4.1339,-4.06,-4.0015,-3.9558,-3.8478,-3.7574,-3.7594,-3.7577,-3.7577,-3.7577,-3.7577,-3.7577,-3.7577,-3.7577,-3.7594,-3.7577,-3.7577,-3.754,-3.8391,-3.8391,-3.8391,-3.8391,-3.8391,-3.8391,-3.8391,-3.8391,-3.8391,-3.8391,-3.8391,-3.8391,-3.8391,-3.8391,-3.8391,-3.8391,-3.8391,-3.8391,-3.8391,-3.8391,-3.8391,-3.8391,-3.8343,-3.8197,-3.7744,-3.695,-3.5914,-3.491,-3.4327,-3.4101,-3.4034,-3.4101,-3.4101,-3.405,-3.405,-3.4101,-3.405,-3.405,-3.4,-3.3949,-3.3899,-3.3848,-3.3797,-3.3797,-3.3899,-3.3899,-3.3949,-3.405,-3.4101,-3.4101,-3.4134,-3.4201,-3.43,-3.4399,-3.4399,-3.4349,-3.4497,-3.4643,-3.4804,-3.4787,-3.4947,-3.5088,-3.5198,-3.5245,-3.5337,-3.5429,-3.5549,-3.5577,-3.5622,-3.5756,-3.601,-3.6836,-3.7547,-3.8196,-3.8999,-3.9884,-4.0312,-4.0549,-4.0662,-4.0823,-4.0888,-4.0935,-4.0982,-4.1076,-4.1152,-4.1226,-4.1318,-4.1453,-4.1498,-4.1498,-4.1498,-4.1542,-4.1604,-4.1754,-4.1797,-4.1831,-4.1785,-4.1025,-4.0288,-3.9527,-3.8929,-3.8026,-3.7496,-3.752,-3.754,-3.754,-3.7577,-3.7577,-3.754,-3.7521,-3.7558,-3.7558,-3.7521,-3.7484,-3.7429,-3.8391,-3.8391,-3.8391,-3.8391,-3.8391,-3.8391,-3.8391,-3.8391,-3.8391,-3.8391,-3.8391,-3.8391,-3.8391,-3.8391,-3.8391,-3.8391,-3.8391,-3.8391,-3.8391,-3.8391,-3.8391,-3.8391,-3.8391,-3.8391,-3.7898,-3.71,-3.6099,-3.5295,-3.4683,-3.4161,-3.4016,-3.3984,-3.3949,-3.3899,-3.3899,-3.3848,-3.3899,-3.3899,-3.3848,-3.3813,-3.3813,-3.3694,-3.3694,-3.371,-3.3761,-3.3813,-3.3797,-3.3848,-3.3949,-3.4016,-3.4,-3.405,-3.4101,-3.4201,-3.4234,-3.4151,-3.43,-3.4448,-3.4562,-3.4594,-3.4691,-3.4835,-3.4947,-3.5041,-3.5198,-3.5291,-3.5383,-3.5458,-3.5577,-3.5622,-3.5745,-3.6452,-3.7058,-3.7551,-3.8482,-3.9313,-3.979,-4.018,-4.048,-4.0645,-4.0728,-4.084,-4.0982,-4.1029,-4.1076,-4.1152,-4.118,-4.1272,-4.1408,-4.1363,-4.1363,-4.1408,-4.1453,-4.156,-4.1578,-4.1525,-4.1321,-4.0599,-3.9882,-3.9123,-3.8475,-3.768,-3.7421,-3.739,-3.7447,-3.7447,-3.7484,-3.7447,-3.7447,-3.7447,-3.741,-3.741,-3.7372,-3.7334,-3.7334,-3.8391,-3.8391,-3.8391,-3.8391,-3.8391,-3.8391,-3.8391,-3.8391,-3.8391,-3.8391,-3.8391,-3.8391,-3.8391,-3.8391,-3.8391,-3.8391,-3.8391,-3.8391,-3.8391,-3.8408,-3.8351,-3.8351,-3.8335,-3.8214,-3.7931,-3.7351,-3.6548,-3.5835,-3.4933,-3.4237,-3.3896,-3.3848,-3.3745,-3.3694,-3.3694,-3.3745,-3.3694,-3.3694,-3.3658,-3.3658,-3.3591,-3.3607,-3.3607,-3.3658,-3.3642,-3.3658,-3.3642,-3.3694,-3.3761,-3.3864,-3.3899,-3.3965,-3.405,-3.4101,-3.4101,-3.4101,-3.4201,-3.43,-3.4399,-3.4448,-3.4546,-3.4643,-3.4739,-3.4899,-3.4994,-3.5088,-3.5245,-3.5291,-3.5321,-3.5441,-3.5542,-3.6043,-3.6477,-3.6945,-3.7804,-3.8764,-3.9171,-3.9642,-4.0065,-4.0331,-4.0483,-4.0648,-4.0793,-4.0905,-4.0935,-4.0982,-4.1012,-4.1041,-4.118,-4.1226,-4.1226,-4.1272,-4.1318,-4.1363,-4.1286,-4.106,-4.0701,-4.0017,-3.9305,-3.8614,-3.8073,-3.7496,-3.7341,-3.722,-3.722,-3.7259,-3.7259,-3.7352,-3.7334,-3.7334,-3.7297,-3.7259,-3.7241,-3.7241,-3.7203,-3.8391,-3.8391,-3.8391,-3.8391,-3.8391,-3.8391,-3.8391,-3.8391,-3.8391,-3.8391,-3.8391,-3.8391,-3.8391,-3.8391,-3.8391,-3.8391,-3.8408,-3.8408,-3.8351,-3.8351,-3.8237,-3.8237,-3.818,-3.8033,-3.7927,-3.7518,-3.703,-3.6053,-3.5043,-3.4158,-3.3726,-3.371,-3.3694,-3.3694,-3.3642,-3.3642,-3.3694,-3.3642,-3.3555,-3.345,-3.3398,-3.3361,-3.3361,-3.3398,-3.345,-3.3503,-3.3555,-3.3607,-3.3694,-3.371,-3.3864,-3.3949,-3.405,-3.4101,-3.4101,-3.4084,-3.4134,-3.4201,-3.43,-3.43,-3.4382,-3.4497,-3.4546,-3.4594,-3.4739,-3.4899,-3.5041,-3.5291,-3.5135,-3.5135,-3.5291,-3.5455,-3.5823,-3.6239,-3.6791,-3.7761,-3.8368,-3.9074,-3.9545,-3.9917,-4.0118,-4.0319,-4.0485,-4.0648,-4.0762,-4.081,-4.084,-4.0871,-4.0918,-4.0965,-4.1059,-4.1088,-4.1128,-4.1157,-4.0854,-4.062,-4.0019,-3.9373,-3.8769,-3.8117,-3.7614,-3.7198,-3.711,-3.7009,-3.7027,-3.7066,-3.7105,-3.7161,-3.7238,-3.722,-3.722,-3.7164,-3.7147,-3.7108,-3.7126,-3.8335,-3.8391,-3.8391,-3.8391,-3.8391,-3.8391,-3.8391,-3.8391,-3.8391,-3.8391,-3.8391,-3.8391,-3.8391,-3.8391,-3.8391,-3.8335,-3.8294,-3.8294,-3.8237,-3.8164,-3.8065,-3.8049,-3.7992,-3.7918,-3.7876,-3.7642,-3.7084,-3.6198,-3.5156,-3.4494,-3.4001,-3.3623,-3.3503,-3.3435,-3.3503,-3.3503,-3.345,-3.345,-3.3414,-3.3346,-3.3293,-3.3293,-3.3309,-3.3293,-3.3361,-3.3398,-3.3398,-3.345,-3.3503,-3.3555,-3.3658,-3.3797,-3.4,-3.405,-3.4,-3.4101,-3.4101,-3.4151,-3.4151,-3.4201,-3.425,-3.4349,-3.4399,-3.4448,-3.4594,-3.4804,-3.4899,-3.4947,-3.4947,-3.4994,-3.5135,-3.5261,-3.5459,-3.5726,-3.6047,-3.6628,-3.7515,-3.8371,-3.8942,-3.9345,-3.975,-3.9968,-4.017,-4.0387,-4.0551,-4.0631,-4.0631,-4.068,-4.068,-4.0648,-4.0728,-4.0871,-4.0879,-4.0886,-4.0474,-4.0068,-3.9295,-3.8668,-3.8345,-3.769,-3.7132,-3.6823,-3.6829,-3.6829,-3.6846,-3.6886,-3.6965,-3.6987,-3.7066,-3.7105,-3.7105,-3.7048,-3.6992,-3.7031,-3.7009,-3.8164,-3.8278,-3.8278,-3.8278,-3.8278,-3.8278,-3.8278,-3.8278,-3.8294,-3.8278,-3.8278,-3.8278,-3.8278,-3.8294,-3.8237,-3.8164,-3.8107,-3.8123,-3.8065,-3.7934,-3.7876,-3.7876,-3.7817,-3.7817,-3.77,-3.7642,-3.7213,-3.6457,-3.5663,-3.492,-3.427,-3.3514,-3.3414,-3.3293,-3.3256,-3.3256,-3.3256,-3.3203,-3.3203,-3.3203,-3.3219,-3.3203,-3.3203,-3.3203,-3.3203,-3.3256,-3.324,-3.3293,-3.3346,-3.345,-3.3503,-3.3658,-3.3797,-3.3899,-3.3949,-3.405,-3.4101,-3.4101,-3.4101,-3.4101,-3.4151,-3.425,-3.43,-3.4349,-3.4448,-3.4643,-3.4804,-3.4691,-3.4739,-3.4835,-3.4947,-3.5058,-3.5155,-3.5321,-3.5618,-3.5966,-3.6398,-3.7268,-3.8221,-3.8891,-3.9261,-3.9564,-3.9834,-4.0087,-4.0288,-4.0419,-4.0468,-4.0517,-4.0485,-4.0453,-4.05,-4.0628,-4.0772,-4.0625,-3.9871,-3.934,-3.8616,-3.8044,-3.7679,-3.7356,-3.6835,-3.6702,-3.6766,-3.6725,-3.6643,-3.6725,-3.6806,-3.6886,-3.6908,-3.6908,-3.6926,-3.6908,-3.6908,-3.6908,-3.6908,-3.7934,-3.7934,-3.7918,-3.7934,-3.7934,-3.7934,-3.7934,-3.7992,-3.7934,-3.7992,-3.7992,-3.7934,-3.7992,-3.7934,-3.7992,-3.7992,-3.7934,-3.795,-3.7876,-3.7817,-3.7759,-3.77,-3.77,-3.7583,-3.7524,-3.7464,-3.7259,-3.6778,-3.6122,-3.5288,-3.4384,-3.3498,-3.3319,-3.3219,-3.315,-3.3112,-3.3058,-3.3005,-3.3005,-3.2951,-3.2966,-3.2951,-3.2951,-3.2951,-3.3058,-3.3112,-3.3096,-3.3203,-3.3309,-3.3293,-3.3414,-3.345,-3.3555,-3.371,-3.3899,-3.4034,-3.4101,-3.4101,-3.4101,-3.4101,-3.4101,-3.4151,-3.4201,-3.43,-3.4349,-3.4448,-3.4497,-3.448,-3.4529,-3.4546,-3.4594,-3.4643,-3.4804,-3.4918,-3.5148,-3.5378,-3.5789,-3.6187,-3.7153,-3.8187,-3.8723,-3.8924,-3.931,-3.9531,-3.9952,-4.012,-4.0221,-4.0271,-4.032,-4.0271,-4.0302,-4.0414,-4.0676,-4.0298,-3.9264,-3.8437,-3.7342,-3.7146,-3.7041,-3.6824,-3.6572,-3.6561,-3.6643,-3.6643,-3.6561,-3.6643,-3.6661,-3.6667,-3.6708,-3.6725,-3.6742,-3.6806,-3.6806,-3.6806,-3.6766,-3.7759,-3.7759,-3.7567,-3.761,-3.7876,-3.7876,-3.7876,-3.7876,-3.7876,-3.7876,-3.7876,-3.7876,-3.7876,-3.7876,-3.7876,-3.7876,-3.7759,-3.7743,-3.77,-3.7642,-3.7583,-3.7583,-3.7539,-3.7405,-3.7329,-3.727,-3.721,-3.682,-3.5966,-3.5383,-3.4601,-3.3842,-3.3294,-3.309,-3.3005,-3.2951,-3.2951,-3.2897,-3.2912,-3.2912,-3.2912,-3.2912,-3.2912,-3.2912,-3.2951,-3.3005,-3.3005,-3.3096,-3.315,-3.3203,-3.3309,-3.3361,-3.3361,-3.3607,-3.3864,-3.405,-3.4101,-3.4101,-3.4101,-3.4101,-3.4101,-3.4101,-3.4151,-3.4201,-3.4201,-3.425,-3.43,-3.4284,-3.4284,-3.4349,-3.4497,-3.4546,-3.4594,-3.4611,-3.4725,-3.4922,-3.5217,-3.5579,-3.6059,-3.712,-3.7703,-3.8087,-3.8539,-3.8957,-3.9395,-3.9766,-3.9919,-4.0003,-4.0054,-3.9968,-3.9883,-3.9829,-3.9993,-3.9388,-3.8342,-3.7246,-3.6085,-3.6233,-3.6414,-3.6396,-3.6318,-3.6343,-3.6426,-3.6444,-3.6461,-3.6461,-3.6461,-3.6444,-3.6502,-3.6602,-3.6661,-3.6702,-3.6719,-3.6661,-3.662,-3.7464,-3.7464,-3.727,-3.7329,-3.7685,-3.7642,-3.7642,-3.7642,-3.7626,-3.7743,-3.7759,-3.7759,-3.7759,-3.7759,-3.7759,-3.77,-3.7642,-3.7642,-3.7539,-3.7464,-3.7405,-3.7405,-3.7345,-3.7225,-3.715,-3.7089,-3.7013,-3.6672,-3.6162,-3.5288,-3.4607,-3.3985,-3.32,-3.2866,-3.2827,-3.2773,-3.2773,-3.2773,-3.2773,-3.2773,-3.2718,-3.2718,-3.2718,-3.2718,-3.2773,-3.2843,-3.2881,-3.2989,-3.3112,-3.315,-3.3203,-3.3309,-3.3346,-3.3503,-3.371,-3.3915,-3.405,-3.4101,-3.4101,-3.4101,-3.4101,-3.4101,-3.4101,-3.4101,-3.4101,-3.4101,-3.4201,-3.4184,-3.4151,-3.4201,-3.4399,-3.4399,-3.4448,-3.4448,-3.4546,-3.4709,-3.4775,-3.507,-3.5416,-3.6009,-3.6555,-3.7036,-3.7716,-3.8216,-3.8972,-3.941,-3.9799,-3.9799,-3.9749,-3.9598,-3.9244,-3.9176,-3.9172,-3.8272,-3.7221,-3.6469,-3.5824,-3.5895,-3.6078,-3.6174,-3.6148,-3.6216,-3.6259,-3.6318,-3.6335,-3.6276,-3.6318,-3.6335,-3.6419,-3.652,-3.6561,-3.6561,-3.6561,-3.652,-3.6478,-3.6999,-3.6999,-3.7015,-3.7044,-3.7194,-3.706,-3.706,-3.7121,-3.721,-3.7329,-3.748,-3.748,-3.748,-3.7464,-3.748,-3.748,-3.7464,-3.748,-3.7405,-3.727,-3.721,-3.7165,-3.706,-3.6999,-3.6984,-3.6999,-3.6923,-3.6754,-3.6569,-3.5282,-3.4651,-3.4098,-3.3234,-3.2523,-3.2578,-3.2453,-3.2398,-3.2437,-3.2437,-3.2453,-3.2468,-3.2453,-3.2523,-3.2523,-3.2594,-3.2648,-3.2703,-3.2935,-3.3058,-3.3043,-3.3203,-3.3293,-3.3293,-3.3466,-3.3658,-3.3832,-3.4,-3.4101,-3.4101,-3.4101,-3.4101,-3.4101,-3.4101,-3.4101,-3.4101,-3.4101,-3.4101,-3.4151,-3.4101,-3.4101,-3.4151,-3.4201,-3.43,-3.43,-3.4399,-3.4415,-3.4546,-3.4628,-3.4988,-3.5235,-3.5513,-3.594,-3.673,-3.7508,-3.8413,-3.9018,-3.9508,-3.961,-3.9408,-3.9124,-3.8706,-3.8204,-3.8051,-3.7444,-3.6548,-3.605,-3.5639,-3.5667,-3.58,-3.5888,-3.6019,-3.6148,-3.6191,-3.6208,-3.6208,-3.6191,-3.6208,-3.6225,-3.6251,-3.6335,-3.6318,-3.6318,-3.6318,-3.6318,-3.6293,-3.6693,-3.6616,-3.6538,-3.6523,-3.6585,-3.6862,-3.6999,-3.6999,-3.7044,-3.7105,-3.7121,-3.7181,-3.7181,-3.7197,-3.7197,-3.7181,-3.7181,-3.7181,-3.7121,-3.7044,-3.7044,-3.706,-3.6999,-3.6877,-3.68,-3.68,-3.6739,-3.6677,-3.6492,-3.5241,-3.4701,-3.4195,-3.3106,-3.2475,-3.2437,-3.2398,-3.2398,-3.2398,-3.2398,-3.2398,-3.2398,-3.2398,-3.2398,-3.2398,-3.2468,-3.2468,-3.2523,-3.2827,-3.2951,-3.3005,-3.315,-3.3293,-3.3293,-3.3414,-3.3555,-3.3729,-3.4,-3.4101,-3.4101,-3.4101,-3.4101,-3.4101,-3.4101,-3.4101,-3.4101,-3.4101,-3.4101,-3.4101,-3.4101,-3.4101,-3.4101,-3.4151,-3.4151,-3.4151,-3.4201,-3.4201,-3.4233,-3.4333,-3.4529,-3.4611,-3.4807,-3.5298,-3.5971,-3.6593,-3.7442,-3.816,-3.8579,-3.8766,-3.8615,-3.8415,-3.8118,-3.7253,-3.6801,-3.6398,-3.5911,-3.5568,-3.5412,-3.552,-3.5639,-3.5728,-3.5888,-3.5975,-3.6062,-3.6062,-3.6062,-3.6105,-3.6079,-3.6079,-3.6062,-3.6105,-3.6062,-3.6105,-3.6148,-3.6148,-3.6105,-3.6304,-3.6289,-3.6148,-3.6148,-3.6211,-3.6492,-3.6693,-3.6816,-3.68,-3.6877,-3.6999,-3.6999,-3.6999,-3.6999,-3.6999,-3.6999,-3.6999,-3.6999,-3.6938,-3.6938,-3.6862,-3.6862,-3.68,-3.6677,-3.6662,-3.66,-3.6554,-3.6492,-3.6415,-3.5137,-3.4229,-3.3521,-3.2875,-3.249,-3.2398,-3.2398,-3.2398,-3.2398,-3.2398,-3.2398,-3.2398,-3.2398,-3.2398,-3.2398,-3.2398,-3.2398,-3.2523,-3.2664,-3.2912,-3.2951,-3.3112,-3.3309,-3.3293,-3.3346,-3.345,-3.3745,-3.3949,-3.405,-3.4101,-3.4101,-3.4101,-3.4101,-3.4101,-3.4101,-3.4101,-3.4101,-3.4101,-3.4101,-3.4101,-3.4101,-3.4101,-3.4101,-3.4101,-3.4101,-3.4101,-3.4101,-3.4151,-3.4201,-3.425,-3.4316,-3.4365,-3.4822,-3.5281,-3.5822,-3.6479,-3.7091,-3.7604,-3.7672,-3.7692,-3.7529,-3.7265,-3.6522,-3.5909,-3.5608,-3.5438,-3.5252,-3.5211,-3.5354,-3.5475,-3.5549,-3.5639,-3.5756,-3.5844,-3.5888,-3.5888,-3.5888,-3.5888,-3.5888,-3.5888,-3.5844,-3.5817,-3.5905,-3.5993,-3.5993,-3.5949,-3.5973,-3.5973,-3.5973,-3.591,-3.5973,-3.5973,-3.6163,-3.6492,-3.6492,-3.6677,-3.6938,-3.6877,-3.6862,-3.6938,-3.6938,-3.6938,-3.6938,-3.6938,-3.68,-3.6739,-3.6723,-3.66,-3.6616,-3.6554,-3.6538,-3.6492,-3.6492,-3.6476,-3.6353,-3.5137,-3.386,-3.2844,-3.2536,-3.2398,-3.2398,-3.2398,-3.2398,-3.2398,-3.2398,-3.2398,-3.2398,-3.2398,-3.2398,-3.2398,-3.2398,-3.2398,-3.2523,-3.2718,-3.2843,-3.3005,-3.315,-3.3256,-3.3293,-3.3293,-3.345,-3.3694,-3.4,-3.405,-3.4101,-3.4101,-3.4101,-3.4101,-3.4101,-3.4101,-3.4101,-3.4101,-3.4101,-3.4101,-3.4101,-3.4101,-3.4101,-3.4101,-3.4101,-3.4101,-3.4101,-3.4101,-3.4101,-3.4101,-3.4101,-3.4151,-3.4151,-3.4477,-3.485,-3.534,-3.5554,-3.5801,-3.6263,-3.628,-3.6315,-3.6368,-3.6105,-3.5811,-3.5251,-3.4969,-3.4835,-3.4913,-3.5024,-3.5152,-3.5245,-3.5367,-3.5458,-3.5549,-3.5667,-3.5711,-3.5622,-3.5622,-3.5684,-3.5622,-3.5622,-3.5577,-3.5611,-3.5684,-3.5773,-3.5817,-3.5773,-3.5198,-3.5184,-3.5198,-3.5198,-3.5184,-3.5264,-3.5574,-3.61,-3.6178,-3.6241,-3.6289,-3.6399,-3.6476,-3.6414,-3.6554,-3.6631,-3.6693,-3.6616,-3.6616,-3.6538,-3.66,-3.6554,-3.6492,-3.6492,-3.6492,-3.6492,-3.6492,-3.6476,-3.6199,-3.5137,-3.3767,-3.2628,-3.2413,-3.2398,-3.2398,-3.2398,-3.2398,-3.2398,-3.2398,-3.2398,-3.2398,-3.2398,-3.2398,-3.2398,-3.2398,-3.2398,-3.2468,-3.2718,-3.2843,-3.2966,-3.3165,-3.3309,-3.3293,-3.3309,-3.345,-3.3949,-3.405,-3.4101,-3.4101,-3.4101,-3.4101,-3.4101,-3.4101,-3.4101,-3.4101,-3.4101,-3.4101,-3.4101,-3.4101,-3.4101,-3.4101,-3.4101,-3.4101,-3.4101,-3.4101,-3.4101,-3.4101,-3.4101,-3.4101,-3.4101,-3.4101,-3.4165,-3.4605,-3.4621,-3.4785,-3.4834,-3.4899,-3.5031,-3.5163,-3.5281,-3.5266,-3.4988,-3.4857,-3.4643,-3.4643,-3.4675,-3.4835,-3.4947,-3.5041,-3.5182,-3.5321,-3.5412,-3.5503,-3.5503,-3.5458,-3.5412,-3.5429,-3.5412,-3.5458,-3.5412,-3.54,-3.5475,-3.5566,-3.5594,-3.5594,-3.4935,-3.4935,-3.4935,-3.4935,-3.4935,-3.4935,-3.5198,-3.5589,-3.5733,-3.5861,-3.5973,-3.6085,-3.6148,-3.6163,-3.6289,-3.6414,-3.6399,-3.6492,-3.6492,-3.6492,-3.6492,-3.6492,-3.6492,-3.6492,-3.6492,-3.6492,-3.6492,-3.6492,-3.6091,-3.5106,-3.3767,-3.2521,-3.2398,-3.2398,-3.2398,-3.2398,-3.2398,-3.2398,-3.2398,-3.2398,-3.2398,-3.2398,-3.2398,-3.2398,-3.2398,-3.2398,-3.2453,-3.2718,-3.2858,-3.2951,-3.3165,-3.3309,-3.3346,-3.3398,-3.3607,-3.4,-3.4101,-3.4101,-3.4101,-3.4101,-3.4101,-3.4101,-3.4101,-3.4101,-3.4101,-3.4101,-3.4101,-3.4101,-3.4101,-3.4101,-3.4101,-3.4101,-3.4101,-3.4101,-3.4101,-3.4101,-3.4101,-3.4101,-3.4101,-3.4101,-3.4101,-3.4101,-3.4133,-3.4101,-3.4117,-3.4279,-3.441,-3.4443,-3.4558,-3.4673,-3.4624,-3.4512,-3.448,-3.4464,-3.4497,-3.4546,-3.4643,-3.4804,-3.4851,-3.4994,-3.5182,-3.5228,-3.5228,-3.5228,-3.5245,-3.5245,-3.5291,-3.5308,-3.5337,-3.5261,-3.5198,-3.5245,-3.5337,-3.5383,-3.5383,-3.4802,-3.4802,-3.4802,-3.4802,-3.4802,-3.4787,-3.4868,-3.4868,-3.5294,-3.5619,-3.5846,-3.591,-3.5973,-3.5973,-3.6148,-3.6211,-3.6211,-3.6289,-3.6367,-3.6429,-3.6429,-3.6414,-3.6429,-3.6492,-3.6492,-3.6492,-3.643,-3.6307,-3.5876,-3.486,-3.3567,-3.2459,-3.2398,-3.2398,-3.2398,-3.2398,-3.2398,-3.2398,-3.2398,-3.2398,-3.2398,-3.2398,-3.2398,-3.2398,-3.2398,-3.2398,-3.2453,-3.2648,-3.2912,-3.3005,-3.3096,-3.3256,-3.3346,-3.3503,-3.3745,-3.3949,-3.405,-3.405,-3.4101,-3.4101,-3.4101,-3.4101,-3.4101,-3.4101,-3.4101,-3.4101,-3.4101,-3.4101,-3.4101,-3.4101,-3.4101,-3.4101,-3.4101,-3.4101,-3.4101,-3.4101,-3.4101,-3.4101,-3.4101,-3.4101,-3.4101,-3.4101,-3.4101,-3.4101,-3.4101,-3.4101,-3.4101,-3.4101,-3.4117,-3.4248,-3.4216,-3.4167,-3.4217,-3.43,-3.43,-3.4399,-3.4497,-3.4594,-3.4691,-3.4739,-3.4883,-3.4947,-3.4899,-3.4994,-3.5105,-3.5152,-3.5198,-3.5152,-3.5105,-3.5058,-3.4994,-3.5041,-3.5088,-3.5152,-3.5135,-3.4157,-3.4142,-3.4142,-3.4157,-3.4157,-3.4264,-3.4399,-3.4549,-3.475,-3.5096,-3.5409,-3.5539,-3.5668,-3.5767,-3.5973,-3.6037,-3.6085,-3.61,-3.61,-3.6163,-3.6211,-3.6289,-3.6289,-3.6429,-3.6429,-3.6492,-3.6368,-3.5938,-3.5122,-3.4168,-3.3336,-3.2505,-3.2398,-3.2398,-3.2398,-3.2398,-3.2398,-3.2398,-3.2398,-3.2398,-3.2398,-3.2398,-3.2398,-3.2398,-3.2398,-3.2398,-3.2453,-3.2578,-3.2773,-3.2881,-3.3058,-3.3203,-3.3293,-3.345,-3.3745,-3.4,-3.4,-3.4,-3.405,-3.405,-3.4101,-3.4101,-3.4101,-3.4101,-3.4101,-3.4101,-3.4101,-3.4101,-3.4101,-3.4101,-3.4101,-3.4101,-3.4101,-3.4101,-3.4101,-3.4101,-3.4101,-3.4101,-3.4101,-3.4101,-3.4101,-3.4101,-3.4101,-3.4101,-3.4101,-3.4101,-3.4101,-3.4101,-3.4101,-3.4133,-3.4149,-3.4101,-3.4101,-3.4151,-3.4201,-3.425,-3.4349,-3.4448,-3.4497,-3.4594,-3.4643,-3.4691,-3.4756,-3.4851,-3.4899,-3.4947,-3.4899,-3.4756,-3.4707,-3.4804,-3.4804,-3.4787,-3.4739,-3.4739,-3.4787,-3.3896,-3.3896,-3.3896,-3.3896,-3.3896,-3.3951,-3.4074,-3.421,-3.4346,-3.4616,-3.4883,-3.5082,-3.5329,-3.5509,-3.5668,-3.5846,-3.5846,-3.5988,-3.6052,-3.6037,-3.6022,-3.6085,-3.6148,-3.6226,-3.6241,-3.6274,-3.5891,-3.5263,-3.4373,-3.3667,-3.3023,-3.2521,-3.2398,-3.2398,-3.2398,-3.2398,-3.2398,-3.2398,-3.2398,-3.2398,-3.2398,-3.2398,-3.2398,-3.2398,-3.2398,-3.2398,-3.2453,-3.2523,-3.2703,-3.2881,-3.3112,-3.3219,-3.3309,-3.345,-3.3555,-3.371,-3.3761,-3.3848,-3.3949,-3.4,-3.405,-3.405,-3.4101,-3.4101,-3.4101,-3.4101,-3.4101,-3.4101,-3.4101,-3.4101,-3.4101,-3.4101,-3.4101,-3.4101,-3.4101,-3.4101,-3.4101,-3.4101,-3.4101,-3.4101,-3.4101,-3.4101,-3.4101,-3.4101,-3.4101,-3.4101,-3.4101,-3.4101,-3.4101,-3.4101,-3.4101,-3.4101,-3.4101,-3.4101,-3.4151,-3.4151,-3.4267,-3.4316,-3.4366,-3.4448,-3.4546,-3.4594,-3.4659,-3.4659,-3.4643,-3.4643,-3.4594,-3.4497,-3.4497,-3.4594,-3.4594,-3.4546,-3.4497,-3.4448,-3.4497,-3.3599,-3.3699,-3.3785,-3.3813,-3.3813,-3.3827,-3.3896,-3.3896,-3.4005,-3.4196,-3.4414,-3.4668,-3.4935,-3.5148,-3.5344,-3.5459,-3.5638,-3.5718,-3.5782,-3.5925,-3.591,-3.5958,-3.5958,-3.6037,-3.6052,-3.5733,-3.5276,-3.479,-3.4193,-3.3398,-3.2721,-3.2435,-3.2398,-3.2398,-3.2382,-3.2382,-3.2398,-3.2398,-3.2398,-3.2398,-3.2398,-3.2398,-3.2398,-3.2398,-3.2398,-3.2398,-3.2453,-3.2523,-3.2648,-3.2881,-3.3096,-3.3203,-3.3309,-3.3414,-3.3346,-3.345,-3.3607,-3.3694,-3.3848,-3.3864,-3.3949,-3.3984,-3.405,-3.4101,-3.405,-3.4101,-3.4101,-3.4101,-3.4101,-3.4101,-3.4101,-3.4101,-3.4101,-3.4101,-3.4101,-3.4101,-3.4101,-3.4101,-3.4101,-3.4101,-3.4101,-3.4101,-3.4101,-3.4101,-3.4101,-3.4101,-3.4101,-3.4101,-3.4101,-3.4101,-3.4101,-3.4101,-3.4101,-3.4101,-3.4101,-3.4101,-3.4151,-3.4201,-3.425,-3.4349,-3.4399,-3.4448,-3.4448,-3.4448,-3.4448,-3.4448,-3.4448,-3.4399,-3.4448,-3.4431,-3.4382,-3.4333,-3.4349,-3.4349,-3.4349,-3.2281,-3.2692,-3.317,-3.3382,-3.3437,-3.3577,-3.3675,-3.3675,-3.3854,-3.402,-3.4099,-3.4249,-3.4467,-3.4935,-3.5001,-3.5133,-3.5329,-3.5394,-3.5474,-3.5554,-3.5638,-3.5688,-3.5767,-3.5782,-3.5988,-3.5533,-3.4804,-3.4243,-3.3695,-3.2798,-3.2205,-3.2109,-3.2191,-3.2247,-3.2247,-3.2302,-3.2398,-3.2398,-3.2398,-3.2398,-3.2398,-3.2398,-3.2398,-3.2398,-3.2398,-3.2398,-3.2398,-3.2382,-3.2523,-3.2703,-3.2973,-3.315,-3.3256,-3.3309,-3.3309,-3.3346,-3.345,-3.3591,-3.3694,-3.3761,-3.3797,-3.3899,-3.3949,-3.4,-3.4,-3.4101,-3.4101,-3.4101,-3.4101,-3.4101,-3.4101,-3.4101,-3.4101,-3.4101,-3.4101,-3.4101,-3.4101,-3.4101,-3.4101,-3.4101,-3.4101,-3.4101,-3.4101,-3.4101,-3.4101,-3.4101,-3.4101,-3.4101,-3.4101,-3.4101,-3.4101,-3.4101,-3.4101,-3.4101,-3.4101,-3.4101,-3.4151,-3.4151,-3.4151,-3.4201,-3.425,-3.43,-3.43,-3.43,-3.43,-3.4349,-3.43,-3.43,-3.425,-3.425,-3.4184,-3.4134,-3.4201,-3.4201,-3.4201]}]]